Date StartTime U_cm/s V_cm/s W_cm/s Ustd_cm/s Vstd_cm/s Wstd_cm/s Uvar_(cm/s)^2 Vvar_(cm/s)^2 Wvar_(cm/s)^2 KE_(m/s)^2 TurbulentKE_(m/s)^2 HorizWindSpeed_cm/s FrictionSpeec_cm/s DragCoef SpeedOfSound_m/s SonicTemperature_C Pressure_mb 
05/27/2013  00:00:00     -319.672      -44.346      -20.254      105.688       91.853       55.396    11169.913     8437.010     3068.723        6.362        1.134      322.734       56.342        0.030      339.653       13.132      862.522
05/27/2013  00:01:00     -209.674       -8.820      -12.748      124.443       87.693       58.202    15486.003     7690.017     3387.513        3.538        1.328      209.859       46.523        0.049      339.643       13.114      862.518
05/27/2013  00:02:00     -270.284      -85.155        0.475      104.368       78.542       46.817    10892.613     6168.836     2191.810        4.978        0.963      283.381       46.952        0.027      339.633       13.096      862.510
05/27/2013  00:03:00     -101.289      -22.852        5.573       97.474       77.082       46.398     9501.273     5941.604     2152.782        1.420        0.880      103.835       47.628        0.210      339.614       13.067      862.496
05/27/2013  00:04:00      -72.712      -15.199        9.389      106.808       68.792       37.177    11408.039     4732.339     1382.157        1.156        0.876       74.284       39.590        0.284      339.622       13.081      862.484
05/27/2013  00:05:00     -214.344      -62.216        0.987      101.442       79.244       46.204    10290.537     6279.584     2134.816        3.426        0.935      223.191       54.322        0.059      339.647       13.121      862.483
05/27/2013  00:06:00     -253.802      -38.685      -14.171       97.195       82.000       49.024     9446.839     6724.075     2403.315        4.234        0.929      256.734       45.992        0.032      339.650       13.125      862.461
05/27/2013  00:07:00     -261.992      -86.050        1.305      103.781       89.893       57.625    10770.595     8080.700     3320.644        4.911        1.109      275.762       53.637        0.038      339.649       13.124      862.449
05/27/2013  00:08:00     -329.730     -111.774       -8.841       87.136       76.280       48.918     7592.684     5818.637     2392.946        6.855        0.790      348.159       42.171        0.015      339.681       13.180      862.435
05/27/2013  00:09:00     -195.505       -6.894      -16.244      119.423       92.765       43.634    14261.826     8605.429     1903.908        3.165        1.239      195.627       53.359        0.074      339.632       13.096      862.425
05/27/2013  00:10:00     -168.167      -46.466        2.253       70.730       64.077       41.032     5002.686     4105.873     1683.662        2.062        0.540      174.468       38.358        0.048      339.597       13.036      862.423
05/27/2013  00:11:00     -142.591      -15.083        7.593       74.120       82.245       30.946     5493.838     6764.285      957.668        1.691        0.661      143.386       33.903        0.056      339.614       13.066      862.419
05/27/2013  00:12:00      -49.645      -55.648        2.226      102.516       73.403       34.927    10509.455     5387.990     1219.893        1.134        0.856       74.574       45.554        0.373      339.573       12.999      862.424
05/27/2013  00:13:00      -36.457      -44.443        3.034       39.560       42.645       17.406     1565.027     1818.628      302.952        0.350        0.184       57.484       17.599        0.094      339.555       12.970      862.434
05/27/2013  00:14:00      -85.238      -13.196        7.928       59.496       49.025       25.001     3539.751     2403.411      625.052        0.703        0.328       86.254       27.300        0.100      339.569       12.994      862.452
05/27/2013  00:15:00       -2.258      -92.367        9.315       76.332       86.476       34.513     5826.585     7478.022     1191.127        1.156        0.725       92.395       24.874        0.072      339.568       12.989      862.449
05/27/2013  00:16:00      -71.080        7.480       -2.243       38.792       31.457       25.573     1504.792      989.549      653.994        0.413        0.157       71.473       17.670        0.061      339.589       13.026      862.461
05/27/2013  00:17:00      -46.257      -46.976      -12.133       32.042       28.957       22.290     1026.698      838.487      496.837        0.343        0.118       65.927       10.564        0.026      339.561       12.980      862.481
05/27/2013  00:18:00      -15.382      -91.167      -17.727       54.935       63.465       33.252     3017.841     4027.772     1105.704        0.851        0.408       92.456       24.037        0.068      339.568       12.991      862.500
05/27/2013  00:19:00      -28.963      -40.615        3.981       46.744       62.089       31.606     2185.032     3855.065      998.950        0.477        0.352       49.884       17.273        0.120      339.493       12.864      862.510
05/27/2013  00:20:00      -14.409       25.444       41.134       12.787       29.395       20.507      163.508      864.072      420.527        0.200        0.072       29.241       22.405        0.587      339.347       12.618      862.500
05/27/2013  00:21:00      -10.348       12.159       57.705       16.710       35.335       27.766      279.236     1248.549      770.936        0.294        0.115       15.966       19.576        1.503      339.363       12.644      862.485
05/27/2013  00:22:00      -13.482       47.743       80.479       16.238       35.573       22.832      263.673     1265.417      521.308        0.549        0.103       49.610       23.225        0.219      339.359       12.637      862.475
05/27/2013  00:23:00       -8.430       12.901       43.586       14.663       19.082       15.617      214.993      364.134      243.882        0.148        0.041       15.412       11.125        0.521      339.340       12.607      862.463
05/27/2013  00:24:00       24.704       -7.582       24.835       31.584       61.138       40.960      997.560     3737.908     1677.746        0.385        0.321       25.841       37.386        2.093      339.299       12.537      862.450
05/27/2013  00:25:00       20.285      -53.819       18.878       31.156       35.677       37.881      970.675     1272.870     1434.940        0.367        0.184       57.515       25.095        0.190      339.352       12.627      862.473
05/27/2013  00:26:00      106.980      -71.488      -12.277       43.480       53.137       32.933     1890.495     2823.489     1084.599        1.125        0.290      128.668       19.928        0.024      339.463       12.813      862.494
05/27/2013  00:27:00       52.981      -36.959        9.417       34.329       43.357       19.830     1178.482     1879.863      393.219        0.386        0.173       64.598       24.638        0.145      339.429       12.757      862.507
05/27/2013  00:28:00       22.600        6.600       45.884       28.063       40.230       22.324      787.543     1618.451      498.351        0.278        0.145       23.544       16.746        0.506      339.317       12.567      862.517
05/27/2013  00:29:00       55.638      -61.625       16.932       49.279       65.074       34.855     2428.464     4234.652     1214.881        0.753        0.394       83.025       44.013        0.281      339.328       12.586      862.523
05/27/2013  00:30:00       36.898       31.877       55.405       32.131       35.463       29.847     1032.429     1257.599      890.862        0.431        0.159       48.760       26.167        0.288      339.205       12.380      862.528
05/27/2013  00:31:00       51.393       48.420       61.969       44.236       34.768       27.757     1956.796     1208.804      770.449        0.638        0.197       70.610       27.017        0.146      339.205       12.378      862.524
05/27/2013  00:32:00       22.054       26.610       35.061       25.422       29.059       26.876      646.291      844.408      722.310        0.232        0.111       34.561       19.249        0.310      339.232       12.425      862.517
05/27/2013  00:33:00       76.384       71.316       57.016       41.248       37.973       45.571     1701.377     1441.941     2076.683        0.969        0.261      104.501       30.578        0.086      339.181       12.339      862.501
05/27/2013  00:34:00      101.291       75.847       45.427       73.086       46.403       56.513     5341.566     2153.222     3193.733        1.438        0.534      126.541       45.897        0.132      339.210       12.385      862.491
05/27/2013  00:35:00       89.288       67.744       73.598       60.650       38.483       36.109     3678.476     1480.922     1303.882        1.222        0.323      112.078       33.816        0.091      339.188       12.350      862.497
05/27/2013  00:36:00       68.979       89.035       64.288       40.044       43.843       33.855     1603.484     1922.212     1146.138        1.074        0.234      112.629       17.378        0.024      339.167       12.315      862.505
05/27/2013  00:37:00       63.764       27.464       35.354       53.302       40.696       28.613     2841.054     1656.126      818.694        0.569        0.266       69.428       17.704        0.065      339.158       12.299      862.512
05/27/2013  00:38:00       85.374       80.985       45.812       37.945       24.452       26.030     1439.852      597.909      677.566        0.933        0.136      117.674       16.254        0.019      339.056       12.130      862.518
05/27/2013  00:39:00       87.737       62.515       32.176       42.967       33.048       29.724     1846.186     1092.193      883.497        0.823        0.191      107.731       25.541        0.056      339.053       12.123      862.526
05/27/2013  00:40:00      101.931       66.595       12.286       26.519       23.192       20.033      703.279      537.863      401.333        0.831        0.082      121.757       13.269        0.012      338.911       11.885      862.538
05/27/2013  00:41:00       84.085       77.684       29.724       31.649       15.303       31.269     1001.642      234.176      977.746        0.810        0.111      114.478       21.796        0.036      338.906       11.877      862.535
05/27/2013  00:42:00       86.396       36.245       33.296       45.962       33.342       31.330     2112.518     1111.667      981.570        0.705        0.210       93.691       26.751        0.082      338.964       11.972      862.534
05/27/2013  00:43:00       50.113       41.634       57.699       30.731       39.634       23.226      944.423     1570.878      539.426        0.531        0.153       65.152       23.338        0.128      338.914       11.889      862.533
05/27/2013  00:44:00       78.665       24.303       28.906       31.182       28.406       26.170      972.289      806.909      684.880        0.504        0.123       82.334       20.560        0.062      338.903       11.868      862.537
05/27/2013  00:45:00       43.665       29.468       28.671       17.315       22.287       13.400      299.812      496.729      179.550        0.229        0.049       52.678       10.108        0.037      338.878       11.828      862.539
05/27/2013  00:46:00       19.317       27.752       34.664       24.555       20.049       12.028      602.933      401.974      144.662        0.175        0.057       33.814        8.613        0.065      338.848       11.777      862.544
05/27/2013  00:47:00       18.514       67.604       60.886       25.796       37.586       18.719      665.425     1412.744      350.408        0.552        0.121       70.093       17.732        0.064      338.840       11.766      862.545
05/27/2013  00:48:00       88.991      106.086       59.689       32.084       20.364       31.061     1029.373      414.689      964.757        1.257        0.120      138.468       19.151        0.019      338.884       11.838      862.543
05/27/2013  00:49:00       40.653       64.841       59.449       32.895       25.616       28.581     1082.095      656.193      816.882        0.597        0.128       76.531       22.199        0.084      338.913       11.888      862.546
05/27/2013  00:50:00       25.058       14.588       42.881       25.048       40.741       29.291      627.416     1659.798      857.942        0.291        0.157       28.995       30.078        1.076      338.973       11.988      862.562
05/27/2013  00:51:00       14.946      -35.165       26.597       21.827       30.724       22.179      476.416      943.969      491.909        0.204        0.096       38.209       14.641        0.147      339.012       12.055      862.574
05/27/2013  00:52:00       13.912       11.454       38.234       15.718       15.602       11.082      247.067      243.429      122.802        0.120        0.031       18.020        8.291        0.212      338.945       11.943      862.576
05/27/2013  00:53:00       20.346       26.570       48.851       23.053       23.638       11.073      531.429      558.752      122.602        0.236        0.061       33.466        9.857        0.087      338.949       11.947      862.571
05/27/2013  00:54:00      104.454       69.548       39.012       33.636       21.123       28.003     1131.372      446.175      784.163        0.982        0.118      125.490       15.208        0.015      338.931       11.918      862.560
05/27/2013  00:55:00       78.557       83.478       61.510       32.439       23.869       25.801     1052.317      569.726      665.703        0.961        0.114      114.629       19.698        0.030      338.989       12.015      862.545
05/27/2013  00:56:00      112.262       83.050       40.512       33.224       25.602       31.488     1103.817      655.451      991.496        1.195        0.138      139.642       19.370        0.019      338.965       11.974      862.535
05/27/2013  00:57:00       43.523       83.854       76.151       40.386       35.556       28.953     1630.994     1264.208      838.298        0.923        0.187       94.477       29.821        0.100      338.768       11.644      862.522
05/27/2013  00:58:00       64.532       80.060       59.101       47.134       33.793       36.917     2221.612     1141.948     1362.866        0.940        0.236      102.830       30.654        0.089      338.799       11.696      862.517
05/27/2013  00:59:00       35.307       72.709       62.455       24.246       26.722       21.723      587.849      714.066      471.869        0.610        0.089       80.828       14.689        0.033      338.804       11.705      862.522
05/27/2013  01:00:00       45.223       12.086       27.490       44.576       34.985       27.784     1987.023     1223.957      771.951        0.346        0.199       46.810       27.837        0.354      338.951       11.951      862.526
05/27/2013  01:01:00       67.105       19.481        6.707       49.456       34.392       27.056     2445.853     1182.840      732.052        0.464        0.218       69.876       22.322        0.102      339.064       12.141      862.523
05/27/2013  01:02:00       79.709       55.666       26.794       28.717       31.687       28.714      824.685     1004.040      824.479        0.641        0.133       97.222       16.578        0.029      339.033       12.090      862.520
05/27/2013  01:03:00       74.012       23.544       12.360       30.049       23.345       20.662      902.919      545.010      426.924        0.403        0.094       77.667       11.418        0.022      338.949       11.947      862.525
05/27/2013  01:04:00       81.179       58.786       10.585       39.863       28.503       18.161     1589.035      812.422      329.812        0.644        0.137      100.229       10.035        0.010      338.882       11.836      862.538
05/27/2013  01:05:00      107.188       63.794       29.555       28.729       21.059       20.663      825.363      443.502      426.951        0.906        0.085      124.736       12.723        0.010      338.909       11.880      862.528
05/27/2013  01:06:00      113.388       74.196       13.633       35.746       27.804       25.373     1277.765      773.060      643.768        1.062        0.135      135.506       15.846        0.014      338.767       11.643      862.509
05/27/2013  01:07:00      114.655       55.688       11.125       43.134       24.370       26.262     1860.548      593.900      689.715        0.976        0.157      127.463       14.893        0.014      338.909       11.879      862.495
05/27/2013  01:08:00       72.292       30.026        3.373       35.649       31.441       19.788     1270.871      988.547      391.548        0.439        0.133       78.280       18.486        0.056      338.783       11.669      862.519
05/27/2013  01:09:00       53.137       21.459        9.055       19.254       26.572       17.452      370.698      706.096      304.561        0.237        0.069       57.306       12.369        0.047      338.695       11.521      862.544
05/27/2013  01:10:00       36.930       24.830       18.280       34.021       22.113       29.675     1157.451      488.977      880.598        0.242        0.126       44.501       28.313        0.405      338.767       11.641      862.557
05/27/2013  01:11:00       -6.128        7.163       21.271       11.837       22.619       16.378      140.124      511.617      268.239        0.073        0.046        9.427       15.411        2.673      338.934       11.922      862.557
05/27/2013  01:12:00       23.519       33.105       20.811       14.346       12.212       17.175      205.803      149.137      294.984        0.137        0.032       40.609        9.443        0.054      338.999       12.033      862.567
05/27/2013  01:13:00        8.058       30.335        2.616       11.522       11.730        8.351      132.749      137.602       69.737        0.067        0.017       31.387        4.951        0.025      338.901       11.868      862.565
05/27/2013  01:14:00       19.326       14.146        5.549       18.860       13.893       13.054      355.692      193.020      170.400        0.066        0.036       23.950        2.998        0.016      338.938       11.931      862.566
05/27/2013  01:15:00       16.625       19.304       -6.320       19.362        9.902       13.873      374.883       98.050      192.474        0.068        0.033       25.476        7.786        0.093      339.092       12.187      862.580
05/27/2013  01:16:00      -11.278       11.572       -3.803       12.184       13.479        8.188      148.439      181.679       67.040        0.034        0.020       16.158        4.738        0.086      339.115       12.227      862.595
05/27/2013  01:17:00      -41.236        7.465       -1.928       11.672        9.695        7.923      136.233       94.001       62.772        0.103        0.015       41.906        3.715        0.008      339.081       12.170      862.602
05/27/2013  01:18:00      -29.008       -7.525       -0.298       11.806        6.271        4.559      139.382       39.326       20.789        0.055        0.010       29.969        4.496        0.023      338.925       11.907      862.598
05/27/2013  01:19:00        6.192        4.874        0.712       12.762        6.997        6.139      162.869       48.964       37.690        0.016        0.012        7.880        4.724        0.359      338.914       11.888      862.581
05/27/2013  01:20:00       38.799        4.665        5.433       12.906        8.128        9.866      166.570       66.065       97.339        0.094        0.016       39.079        7.863        0.040      338.685       11.505      862.566
05/27/2013  01:21:00       19.173        8.450       13.461       16.007       10.422       12.699      256.216      108.614      161.266        0.057        0.026       20.952       12.465        0.354      338.604       11.368      862.554
05/27/2013  01:22:00       19.310       -8.332        2.047       20.365       17.636       15.192      414.744      311.025      230.785        0.070        0.048       21.031       13.840        0.433      338.708       11.543      862.561
05/27/2013  01:23:00        3.494      -18.621       18.589       14.350       28.077       14.417      205.931      788.318      207.843        0.095        0.060       18.946        4.578        0.058      338.747       11.608      862.556
05/27/2013  01:24:00       -6.767       22.286       49.954        9.869       23.369       14.691       97.402      546.091      215.824        0.195        0.043       23.291       14.124        0.368      338.791       11.682      862.554
05/27/2013  01:25:00       -5.331       30.526       60.438        9.817       19.940       11.912       96.376      397.620      141.894        0.262        0.032       30.988       11.955        0.149      338.846       11.775      862.550
05/27/2013  01:26:00        4.679       22.703       38.287       19.545       30.735       19.811      381.989      944.656      392.463        0.186        0.086       23.180       19.062        0.676      338.640       11.429      862.544
05/27/2013  01:27:00       -1.881      -21.785        0.709       11.983       12.142       11.010      143.599      147.424      121.226        0.045        0.021       21.866        8.779        0.161      338.669       11.477      862.543
05/27/2013  01:28:00        0.196       -7.638        9.450       14.560       15.098       11.113      211.982      227.951      123.489        0.036        0.028        7.641        5.095        0.445      338.556       11.287      862.539
05/27/2013  01:29:00       10.764       18.354       14.094        8.822       12.964        8.718       77.824      168.062       76.003        0.049        0.016       21.277        7.655        0.129      338.509       11.209      862.525
05/27/2013  01:30:00       31.840       30.334       20.254       23.431       15.036       11.170      548.997      226.075      124.779        0.162        0.045       43.977        7.886        0.032      338.435       11.088      862.517
05/27/2013  01:31:00       50.555       32.577       13.522       20.579       18.988       13.884      423.506      360.530      192.777        0.239        0.049       60.142        8.117        0.018      338.441       11.095      862.513
05/27/2013  01:32:00       86.450       41.326        8.620       20.783       14.416       17.879      431.942      207.810      319.645        0.511        0.048       95.820        9.740        0.010      338.481       11.162      862.506
05/27/2013  01:33:00       78.270       43.635       15.348       23.064       18.678       20.306      531.960      348.879      412.314        0.478        0.065       89.611       10.254        0.013      338.316       10.885      862.499
05/27/2013  01:34:00       59.135       38.549        9.916       24.418       17.278       17.566      596.259      298.529      308.568        0.314        0.060       70.590       14.187        0.040      338.325       10.900      862.489
05/27/2013  01:35:00       36.323       30.377       12.975       19.230       16.894       11.045      369.809      285.394      121.994        0.159        0.039       47.351       11.318        0.057      338.298       10.854      862.472
05/27/2013  01:36:00       29.538       15.925        3.907        9.607       11.362        8.925       92.289      129.095       79.647        0.072        0.015       33.557        2.683        0.006      338.410       11.043      862.464
05/27/2013  01:37:00        1.523        1.122       -1.811        9.878        8.441        5.777       97.566       71.254       33.375        0.010        0.010        1.892        5.400        8.143      338.534       11.251      862.469
05/27/2013  01:38:00      -45.863        5.493       -8.295       11.078        6.880        5.508      122.720       47.340       30.341        0.120        0.010       46.191        2.651        0.003      338.374       10.981      862.480
05/27/2013  01:39:00      -39.480       -0.466      -10.726        6.794        7.866        4.736       46.164       61.878       22.428        0.090        0.007       39.483        3.310        0.007      338.374       10.981      862.473
05/27/2013  01:40:00      -28.601      -13.670       -6.503        5.662        5.963        3.998       32.064       35.562       15.987        0.057        0.004       31.700        2.244        0.005      338.445       11.102      862.457
05/27/2013  01:41:00      -36.494       -6.393       -6.692       13.208        5.734        5.648      174.439       32.884       31.900        0.083        0.012       37.050        5.285        0.020      338.557       11.290      862.433
05/27/2013  01:42:00      -65.741      -11.321       -9.068       13.449        8.811        7.404      180.881       77.630       54.815        0.242        0.016       66.709        5.012        0.006      338.490       11.177      862.409
05/27/2013  01:43:00      -99.632      -21.602       -6.095       23.426       16.825       10.955      548.788      283.069      120.002        0.569        0.048      101.947        6.462        0.004      338.300       10.856      862.395
05/27/2013  01:44:00      -58.219        2.566       -7.313       40.733       32.507       22.889     1659.154     1056.719      523.884        0.334        0.162       58.276       15.939        0.075      338.046       10.431      862.385
05/27/2013  01:45:00     -179.130       22.241      -20.912       35.578       29.252       25.159     1265.801      855.659      632.984        1.789        0.138      180.506       18.709        0.011      338.076       10.482      862.377
05/27/2013  01:46:00     -116.813      -22.165      -10.811       51.876       34.902       24.209     2691.094     1218.116      586.094        0.937        0.225      118.897       23.484        0.039      337.975       10.311      862.375
05/27/2013  01:47:00     -103.553      -41.806       -3.054       37.537       32.180       24.741     1408.989     1035.539      612.100        0.777        0.153      111.674       19.749        0.031      337.964       10.294      862.366
05/27/2013  01:48:00     -114.357      -36.585      -14.023       28.571       19.751       15.662      816.276      390.096      245.311        0.803        0.073      120.067       12.755        0.011      338.042       10.425      862.359
05/27/2013  01:49:00     -111.880      -22.538       -6.722       27.277       34.551       14.685      744.015     1193.793      215.656        0.761        0.108      114.127       12.535        0.012      338.052       10.443      862.354
05/27/2013  01:50:00     -134.775       17.128      -11.665       24.819       23.644       15.547      615.988      559.049      241.724        1.001        0.071      135.859       14.525        0.011      338.073       10.478      862.361
05/27/2013  01:51:00     -147.441       10.938       -9.417       29.200       37.775       24.082      852.665     1426.934      579.952        1.240        0.143      147.846       16.306        0.012      338.082       10.492      862.357
05/27/2013  01:52:00     -149.879       43.621      -15.222       67.427       40.097       26.071     4546.374     1607.803      679.682        1.571        0.342      156.097       36.259        0.054      338.598       11.357      862.349
05/27/2013  01:53:00     -100.095       31.648      -10.759       34.515       21.320       14.406     1191.281      454.560      207.521        0.649        0.093      104.979       10.569        0.010      338.345       10.932      862.337
05/27/2013  01:54:00      -67.052       50.986       -6.694       31.608       43.073       24.124      999.042     1855.304      581.956        0.529        0.172       84.235       21.949        0.068      338.345       10.933      862.322
05/27/2013  01:55:00      -86.193       -8.882       -8.507       23.712       21.294       12.702      562.242      453.427      161.348        0.438        0.059       86.650        8.793        0.010      338.309       10.874      862.315
05/27/2013  01:56:00     -123.801       51.118      -21.594       36.097       35.790       22.714     1302.988     1280.925      515.945        1.075        0.155      133.940       20.528        0.023      338.415       11.052      862.304
05/27/2013  01:57:00     -131.093       94.895      -28.561       52.106       58.017       33.638     2715.011     3365.919     1131.514        1.711        0.361      161.835       31.284        0.037      338.330       10.908      862.288
05/27/2013  01:58:00      -83.978       61.453      -17.584       36.511       26.582       18.710     1333.020      706.625      350.052        0.676        0.119      104.061       15.513        0.022      338.233       10.746      862.280
05/27/2013  01:59:00      -44.617        9.790      -12.093       15.080       33.296       11.750      227.411     1108.649      138.067        0.185        0.074       45.678       14.678        0.103      338.202       10.693      862.292
05/27/2013  02:00:00      -32.666      -51.366       -0.797       40.162       31.281       21.217     1612.967      978.499      450.141        0.337        0.152       60.873       19.623        0.104      338.255       10.784      862.308
05/27/2013  02:01:00       -7.741      -40.528      -14.663       24.271       26.507       16.678      589.087      702.603      278.172        0.174        0.078       41.260       14.489        0.123      338.292       10.844      862.308
05/27/2013  02:02:00      -68.583      -29.657       -6.675       54.347       27.111       18.871     2953.609      735.009      356.117        0.484        0.202       74.721       14.273        0.036      338.232       10.744      862.299
05/27/2013  02:03:00      -59.398        0.153        2.092       25.599       24.791       18.724      655.292      614.581      350.606        0.258        0.081       59.398       17.217        0.084      338.079       10.487      862.292
05/27/2013  02:04:00      -30.297      -18.539       -8.567       21.283       18.873       11.893      452.968      356.182      141.447        0.114        0.048       35.519       10.679        0.090      338.205       10.697      862.316
05/27/2013  02:05:00      -21.093      -34.563       -7.546       12.741       14.637       10.147      162.340      214.239      102.955        0.109        0.024       40.491        7.274        0.032      338.238       10.754      862.334
05/27/2013  02:06:00      -11.869       -4.314       -4.399       13.797       12.195        7.929      190.348      148.725       62.874        0.029        0.020       12.629        6.839        0.293      338.197       10.684      862.329
05/27/2013  02:07:00      -40.432       -6.753       -4.362        6.407       10.576        5.028       41.055      111.846       25.282        0.094        0.009       40.992        3.932        0.009      338.237       10.751      862.334
05/27/2013  02:08:00      -38.512      -18.314      -14.046       20.717       14.999        6.650      429.208      224.960       44.225        0.136        0.035       42.645        6.181        0.021      338.275       10.817      862.332
05/27/2013  02:09:00      -72.274      -14.459       -6.557       24.916       26.536       13.666      620.806      704.179      186.772        0.349        0.076       73.707       14.332        0.038      338.168       10.637      862.328
05/27/2013  02:10:00      -80.644      -34.112       -7.183       23.915       23.122       14.451      571.922      534.618      208.827        0.452        0.066       87.562        7.947        0.008      338.114       10.546      862.330
05/27/2013  02:11:00      -61.030       10.403       -6.185       50.558       18.499       14.802     2556.068      342.223      219.088        0.349        0.156       61.910       19.192        0.096      337.998       10.350      862.330
05/27/2013  02:12:00      -56.555       22.546      -10.257       32.451       34.215       20.280     1053.087     1170.670      411.263        0.322        0.132       60.884       22.850        0.141      338.047       10.433      862.313
05/27/2013  02:13:00      -44.493       49.480      -12.453       32.275       31.206       23.782     1041.666      973.798      565.570        0.358        0.129       66.543       22.144        0.111      338.103       10.526      862.298
05/27/2013  02:14:00      -43.226       85.482       -8.927       57.518       50.623       28.096     3308.297     2562.670      789.370        0.796        0.333       95.789       27.459        0.082      338.136       10.584      862.275
05/27/2013  02:15:00     -103.402      124.453      -20.937       30.271       33.747       19.831      916.333     1138.868      393.268        1.453        0.122      161.804       16.775        0.011      338.164       10.630      862.274
05/27/2013  02:16:00      -94.875       43.268      -16.823       30.236       46.339       22.973      914.221     2147.261      527.761        0.737        0.179      104.276       25.922        0.062      338.176       10.649      862.298
05/27/2013  02:17:00      -65.498      -30.066       -7.907       33.178       27.366       20.799     1100.789      748.913      432.589        0.377        0.114       72.069       15.099        0.044      338.074       10.479      862.320
05/27/2013  02:18:00      -37.216      -44.955       10.111       27.519       24.429       19.125      757.300      596.754      365.774        0.261        0.086       58.361       16.096        0.076      337.950       10.269      862.330
05/27/2013  02:19:00      -35.621      -29.849        5.201       35.807       29.692       19.813     1282.154      881.621      392.546        0.237        0.128       46.473       23.453        0.255      337.897       10.181      862.334
05/27/2013  02:20:00      -73.226      -31.147      -15.143       15.238       16.786        9.578      232.192      281.783       91.745        0.358        0.030       79.575        5.637        0.005      337.938       10.250      862.335
05/27/2013  02:21:00      -65.295      -28.509      -10.747       54.603       24.669       16.343     2981.467      608.563      267.109        0.452        0.193       71.248       16.717        0.055      338.024       10.395      862.344
05/27/2013  02:22:00     -102.297      -11.207       -4.311       47.730       41.230       17.443     2278.131     1699.940      304.259        0.744        0.214      102.909       14.644        0.020      337.917       10.217      862.367
05/27/2013  02:23:00     -101.425       -1.865      -10.222       41.702       26.880       19.673     1739.091      722.559      387.008        0.662        0.142      101.442        2.777        0.001      337.881       10.155      862.371
05/27/2013  02:24:00      -64.586       13.287       -3.603       25.866       15.172       12.057      669.026      230.176      145.375        0.270        0.052       65.938        9.024        0.019      337.928       10.234      862.361
05/27/2013  02:25:00      -67.201       33.416      -13.123       23.877       22.870       15.911      570.123      523.026      253.155        0.358        0.067       75.051       16.283        0.047      338.079       10.487      862.359
05/27/2013  02:26:00      -73.107       35.030       -6.050       26.102       15.575       13.732      681.303      242.584      188.571        0.386        0.056       81.067       11.580        0.020      337.996       10.350      862.354
05/27/2013  02:27:00      -77.364       36.612      -18.195       20.166       18.864       16.042      406.684      355.856      257.343        0.434        0.051       85.589       10.067        0.014      338.247       10.770      862.363
05/27/2013  02:28:00      -88.652       39.028      -15.901       23.065       23.240       13.489      531.972      540.087      181.947        0.544        0.063       96.863       12.170        0.016      338.258       10.787      862.364
05/27/2013  02:29:00      -69.455       17.955       -7.146       23.924       14.082        9.718      572.360      198.293       94.447        0.303        0.043       71.738        6.832        0.009      338.184       10.663      862.348
05/27/2013  02:30:00      -45.467       -7.947       -2.717       16.979       12.410       14.706      288.288      153.998      216.281        0.140        0.033       46.157       12.613        0.075      338.221       10.726      862.326
05/27/2013  02:31:00       -3.493       24.179       -5.585       14.057       25.342       13.878      197.599      642.225      192.589        0.083        0.052       24.430       13.086        0.287      338.173       10.644      862.308
05/27/2013  02:32:00       25.711       29.765        7.969        7.296        5.633       11.943       53.226       31.727      142.624        0.092        0.011       39.332        4.750        0.015      338.022       10.391      862.300
05/27/2013  02:33:00       12.436       41.120       -2.779       11.728       15.895        7.051      137.546      252.644       49.712        0.115        0.022       42.960        5.669        0.017      337.977       10.316      862.296
05/27/2013  02:34:00       11.300       69.075       -2.338       30.188       35.853       21.386      911.307     1285.417      457.359        0.378        0.133       69.993       18.154        0.067      337.972       10.308      862.290
05/27/2013  02:35:00       29.320       86.206       -5.155       30.224       46.035       27.884      913.475     2119.255      777.514        0.606        0.191       91.056       26.180        0.083      337.977       10.316      862.292
05/27/2013  02:36:00       20.234      118.684      -13.318       33.177       50.567       24.866     1100.710     2557.046      618.322        0.947        0.214      120.397       28.046        0.054      338.023       10.394      862.296
05/27/2013  02:37:00      -13.857      150.116      -23.220       43.310       40.405       18.734     1875.748     1632.556      350.954        1.356        0.193      150.754       10.052        0.004      338.145       10.597      862.307
05/27/2013  02:38:00        4.961      163.725      -25.372       27.386       32.856       16.607      749.978     1079.539      275.808        1.479        0.105      163.800       12.725        0.006      338.207       10.702      862.291
05/27/2013  02:39:00       18.002       60.360        6.195       35.261       45.025       35.252     1243.341     2027.237     1242.694        0.426        0.226       62.987       29.850        0.225      338.037       10.417      862.265
05/27/2013  02:40:00       38.219       72.369       -9.800       33.825       34.994       27.981     1144.131     1224.576      782.960        0.497        0.158       81.841       22.608        0.076      338.021       10.390      862.246
05/27/2013  02:41:00       97.347       53.499        3.631       21.494       24.185       19.826      462.004      584.893      393.076        0.690        0.072      111.079       12.400        0.012      337.965       10.294      862.231
05/27/2013  02:42:00       85.674       41.978       -4.824       25.233       21.215       16.702      636.685      450.061      278.958        0.525        0.068       95.406       10.738        0.013      337.975       10.313      862.215
05/27/2013  02:43:00       19.026       13.902       -2.249       20.153       18.975       17.685      406.141      360.048      312.766        0.082        0.054       23.564       11.391        0.234      337.865       10.129      862.211
05/27/2013  02:44:00       50.159       30.074       15.006       15.847       14.643       20.645      251.116      214.429      426.214        0.227        0.045       58.484        8.746        0.022      337.857       10.115      862.201
05/27/2013  02:45:00       27.904       46.667       50.634       29.123       23.909       19.747      848.152      571.624      389.960        0.366        0.090       54.373       19.273        0.126      337.787        9.997      862.189
05/27/2013  02:46:00       10.366       22.803       27.976       19.299       20.645       12.080      372.470      426.213      145.917        0.118        0.047       25.049        7.933        0.100      337.812       10.040      862.197
05/27/2013  02:47:00       11.363       18.032       14.462       12.152       11.633       13.155      147.672      135.328      173.049        0.056        0.023       21.314       11.301        0.281      337.751        9.936      862.213
05/27/2013  02:48:00       29.401       22.223       12.475       24.998       20.184       11.027      624.879      407.404      121.591        0.133        0.058       36.854       12.371        0.113      337.862       10.122      862.214
05/27/2013  02:49:00       68.610       34.859        8.042       12.161       13.489       11.107      147.892      181.948      123.375        0.322        0.023       76.958        8.027        0.011      337.852       10.108      862.186
05/27/2013  02:50:00       42.918       34.775       -2.615       12.321       11.325       11.601      151.808      128.265      134.578        0.174        0.021       55.238        6.311        0.013      337.836       10.080      862.182
05/27/2013  02:51:00       -2.399       -8.016       -3.713       22.397       19.073       12.799      501.639      363.796      163.802        0.056        0.051        8.368       10.113        1.461      337.942       10.257      862.179
05/27/2013  02:52:00      -27.769      -11.552        0.968       20.709       14.986        9.552      428.852      224.587       91.245        0.082        0.037       30.076       10.656        0.126      337.819       10.050      862.178
05/27/2013  02:53:00      -24.303      -17.868       -2.409       20.704       16.286        9.748      428.673      265.219       95.028        0.085        0.039       30.165       11.579        0.147      337.766        9.961      862.170
05/27/2013  02:54:00      -25.389      -11.169        1.270       17.201       13.129        7.781      295.883      172.365       60.541        0.065        0.026       27.738       10.410        0.141      337.749        9.933      862.163
05/27/2013  02:55:00       -4.102      -10.907        1.270        6.626       16.260        7.038       43.905      264.389       49.530        0.025        0.018       11.653        5.500        0.223      337.833       10.073      862.155
05/27/2013  02:56:00       -5.342      -20.384       -5.519        5.744       13.766        6.674       32.997      189.489       44.546        0.037        0.013       21.072        4.677        0.049      337.800       10.019      862.153
05/27/2013  02:57:00      -14.008      -16.861      -13.285       16.603       25.367       14.562      275.657      643.478      212.039        0.089        0.057       21.921       16.525        0.568      337.907       10.199      862.141
05/27/2013  02:58:00      -29.775        3.147      -12.854       10.131        7.622        9.905      102.642       58.100       98.112        0.066        0.013       29.941        4.034        0.018      337.926       10.232      862.125
05/27/2013  02:59:00        1.447      -27.923       -1.920       21.734       12.273       16.175      472.374      150.630      261.645        0.083        0.044       27.961       17.110        0.374      338.018       10.385      862.102
05/27/2013  03:00:00       -6.650      -11.691        0.814       11.116        9.466        7.959      123.564       89.614       63.344        0.023        0.014       13.450        8.337        0.384      337.920       10.219      862.085
05/27/2013  03:01:00       -4.895      -27.833       -1.291        9.057       10.228        8.137       82.036      104.609       66.207        0.053        0.013       28.260        5.398        0.036      337.944       10.262      862.078
05/27/2013  03:02:00       -5.587       -4.486        6.447       15.601       17.469       12.960      243.399      305.168      167.972        0.040        0.036        7.165        6.040        0.711      337.797       10.013      862.065
05/27/2013  03:03:00      -21.099      -25.650       12.710       13.241       22.727       15.095      175.333      516.533      227.845        0.109        0.046       33.213       11.910        0.129      337.770        9.968      862.056
05/27/2013  03:04:00      -16.345       11.310        6.638       11.200       11.658        7.837      125.432      135.914       61.426        0.038        0.016       19.876        8.017        0.163      337.754        9.943      862.045
05/27/2013  03:05:00      -27.976        4.423        0.313       11.821       11.692       10.471      139.724      136.706      109.638        0.059        0.019       28.323        7.690        0.074      337.794       10.008      862.042
05/27/2013  03:06:00      -36.750       -8.299       -5.252        9.566        8.142        7.706       91.508       66.297       59.381        0.083        0.011       37.675        6.527        0.030      337.908       10.201      862.044
05/27/2013  03:07:00      -58.867      -23.639      -11.309       16.229       11.230        8.130      263.369      126.108       66.094        0.230        0.023       63.436        6.997        0.012      337.849       10.101      862.052
05/27/2013  03:08:00      -57.052      -11.903       -6.753       16.865       12.945       10.942      284.442      167.572      119.725        0.201        0.029       58.281        7.244        0.015      337.718        9.881      862.052
05/27/2013  03:09:00      -46.484       12.526       -5.772       11.464       11.336        6.240      131.420      128.507       38.940        0.132        0.015       48.142        2.843        0.003      337.672        9.804      862.040
05/27/2013  03:10:00      -43.081       23.772       -5.630       11.357        9.742        6.270      128.975       94.904       39.311        0.136        0.013       49.205        4.644        0.009      337.713        9.872      862.013
05/27/2013  03:11:00      -20.796       19.988       -5.322        9.151       12.310        6.095       83.734      151.536       37.153        0.057        0.014       28.845        2.729        0.009      337.776        9.978      861.993
05/27/2013  03:12:00      -17.183       10.258       -4.809       10.394       11.432        8.610      108.036      130.689       74.140        0.037        0.016       20.012        6.972        0.121      337.685        9.826      861.983
05/27/2013  03:13:00      -45.524       16.767      -10.014       13.469        8.046        7.475      181.418       64.744       55.879        0.138        0.015       48.513        6.849        0.020      337.580        9.648      861.984
05/27/2013  03:14:00      -19.401        6.250       -1.936        9.757       16.279        8.653       95.202      265.003       74.874        0.043        0.022       20.383        8.260        0.164      337.609        9.697      861.979
05/27/2013  03:15:00      -35.160       42.225      -10.162       14.835       18.608       10.983      220.077      346.245      120.629        0.190        0.034       54.947        6.670        0.015      337.655        9.776      861.964
05/27/2013  03:16:00        3.980       17.020        0.370       23.483       11.070       10.229      551.434      122.552      104.631        0.054        0.039       17.480        6.102        0.122      337.680        9.818      861.950
05/27/2013  03:17:00        7.657        3.021        4.933       10.384        8.618        6.157      107.831       74.268       37.906        0.016        0.011        8.231        3.823        0.216      337.571        9.636      861.944
05/27/2013  03:18:00      -28.106      -18.503       -0.421       25.037       21.293        9.707      626.850      453.408       94.222        0.115        0.059       33.649        8.942        0.071      337.696        9.846      861.941
05/27/2013  03:19:00      -75.064      -23.942       -0.786       29.561       23.598       17.216      873.848      556.885      296.390        0.397        0.086       78.790        9.319        0.014      337.435        9.406      861.944
05/27/2013  03:20:00      -80.719      -16.888       -8.470       15.606       20.369       18.042      243.553      414.900      325.525        0.393        0.049       82.467        8.711        0.011      337.357        9.275      861.935
05/27/2013  03:21:00      -74.100      -17.223       -7.860       19.520       28.023       12.493      381.041      785.274      156.082        0.359        0.066       76.076       11.441        0.023      337.317        9.210      861.927
05/27/2013  03:22:00     -107.969      -48.079       -8.759       26.423       27.427       14.504      698.163      752.258      210.378        0.785        0.083      118.190       11.619        0.010      337.310        9.198      861.921
05/27/2013  03:23:00     -138.446      -46.248      -11.493       20.397       18.972       15.492      416.025      359.930      240.001        1.123        0.051      145.967       12.472        0.007      337.278        9.144      861.914
05/27/2013  03:24:00      -91.182      -15.363       -2.535       40.625       28.090       18.454     1650.410      789.058      340.560        0.567        0.139       92.468       19.909        0.046      337.131        8.897      861.911
05/27/2013  03:25:00      -87.886      -12.598       -2.807       34.945       19.927       17.016     1221.184      397.093      289.561        0.490        0.095       88.784       15.964        0.032      337.065        8.787      861.900
05/27/2013  03:26:00      -33.687        0.148        1.985       17.507       19.621       10.393      306.499      384.971      108.012        0.097        0.040       33.687        8.972        0.071      337.017        8.706      861.884
05/27/2013  03:27:00      -40.834       19.474       -9.407       13.001       17.683        8.001      169.020      312.689       64.024        0.134        0.027       45.240        4.821        0.011      337.168        8.960      861.871
05/27/2013  03:28:00      -55.800      -13.026       -3.645       20.794       19.819       11.961      432.387      392.782      143.055        0.213        0.048       57.300       11.232        0.038      337.198        9.012      861.856
05/27/2013  03:29:00     -135.242      -84.227       -9.611       26.776       25.905       19.071      716.946      671.065      363.711        1.361        0.088      159.326       11.720        0.005      337.167        8.957      861.870
05/27/2013  03:30:00     -106.523      -65.460        7.733       62.668       49.218       30.921     3927.294     2422.407      956.124        1.150        0.365      125.029       31.661        0.064      337.084        8.819      861.894
05/27/2013  03:31:00      -47.092      -28.835        3.607       49.179       59.739       23.756     2418.573     3568.711      564.351        0.481        0.328       55.219       27.233        0.243      337.055        8.772      861.887
05/27/2013  03:32:00      -85.281       23.687       -7.898       39.780       17.814       12.794     1582.425      317.325      163.675        0.498        0.103       88.510       14.208        0.026      337.120        8.880      861.863
05/27/2013  03:33:00     -139.571        1.184      -12.069       38.377       26.892       16.115     1472.813      723.164      259.681        1.104        0.123      139.576       18.886        0.018      337.089        8.828      861.856
05/27/2013  03:34:00     -115.652      -40.068       -3.953       46.290       29.399       20.890     2142.749      864.317      436.380        0.922        0.172      122.396       22.659        0.034      336.970        8.627      861.855
05/27/2013  03:35:00     -167.236      -77.067       -6.866       63.536       39.699       26.048     4036.838     1576.006      678.511        2.012        0.315      184.139       19.252        0.011      337.002        8.679      861.848
05/27/2013  03:36:00     -182.963      -54.430      -19.274       46.051       47.764       23.960     2120.732     2281.379      574.098        2.089        0.249      190.888       18.595        0.009      336.996        8.672      861.851
05/27/2013  03:37:00     -124.221      -34.143      -15.115       30.517       40.844       21.627      931.265     1668.226      467.743        0.995        0.153      128.828       14.201        0.012      337.006        8.687      861.831
05/27/2013  03:38:00      -91.596       -4.987       -4.796       39.856       41.273       23.678     1588.534     1703.499      560.668        0.614        0.193       91.732       20.887        0.052      336.933        8.566      861.827
05/27/2013  03:39:00      -76.628        1.706       -2.732       43.931       28.350       20.890     1929.967      803.733      436.402        0.453        0.159       76.647       13.590        0.031      336.941        8.579      861.824
05/27/2013  03:40:00     -110.668      -41.141      -10.171       27.530       40.043       19.477      757.903     1603.475      379.365        0.839        0.137      118.068       13.896        0.014      337.015        8.702      861.840
05/27/2013  03:41:00      -98.046      -44.227        2.997       58.193       35.820       22.953     3386.390     1283.040      526.852        0.839        0.260      107.559       27.609        0.066      336.815        8.371      861.849
05/27/2013  03:42:00      -76.089      -41.330       -9.022       40.777       17.910       17.410     1662.743      320.775      303.100        0.493        0.114       86.589       14.973        0.030      336.947        8.590      861.837
05/27/2013  03:43:00      -45.827       18.257       -4.889       26.084       16.501       13.768      680.380      272.285      189.558        0.180        0.057       49.330       16.751        0.115      336.838        8.408      861.836
05/27/2013  03:44:00      -15.790        9.545       -4.536       18.842       12.707        9.105      355.003      161.474       82.901        0.048        0.030       18.451        7.723        0.175      336.843        8.417      861.813
05/27/2013  03:45:00        2.940      -36.456        7.729       33.346       24.881       22.379     1111.985      619.056      500.802        0.181        0.112       36.574       15.583        0.182      336.879        8.475      861.802
05/27/2013  03:46:00      -93.262      -31.408      -13.979       13.491       19.910       13.201      181.998      396.422      174.258        0.532        0.038       98.409        9.405        0.009      336.879        8.477      861.803
05/27/2013  03:47:00      -67.002      -10.028       -8.746       10.064       18.022        9.130      101.289      324.810       83.363        0.259        0.025       67.748        7.061        0.011      336.845        8.419      861.796
05/27/2013  03:48:00      -69.274      -11.774       -3.767       21.508       12.775       16.360      462.599      163.209      267.636        0.292        0.045       70.268       16.146        0.053      336.892        8.498      861.783
05/27/2013  03:49:00      -76.241        8.227       -0.502       42.459       25.281       18.158     1802.804      639.143      329.726        0.433        0.139       76.683       16.796        0.048      336.784        8.319      861.788
05/27/2013  03:50:00      -91.428       17.371       -6.944       39.312       30.719       20.132     1545.471      943.628      405.288        0.580        0.145       93.064       15.581        0.028      336.719        8.210      861.784
05/27/2013  03:51:00      -83.691        7.935      -16.595       30.316       28.245       13.443      919.067      797.807      180.712        0.462        0.095       84.067       13.414        0.025      336.771        8.297      861.777
05/27/2013  03:52:00      -54.706      -19.512      -15.290       21.984       15.159       12.915      483.284      229.781      166.795        0.224        0.044       58.082        8.318        0.021      336.918        8.542      861.787
05/27/2013  03:53:00      -60.736      -31.583       -9.866       30.321       24.558       21.909      919.378      603.092      480.017        0.339        0.100       68.457       16.781        0.060      336.926        8.555      861.791
05/27/2013  03:54:00      -79.723      -23.421       -9.116       24.670       27.471       15.229      608.592      754.644      231.910        0.429        0.080       83.092        7.877        0.009      336.769        8.295      861.789
05/27/2013  03:55:00      -67.872        5.037      -13.825       32.699       17.858       17.642     1069.226      318.900      311.238        0.326        0.085       68.059        7.198        0.011      336.755        8.269      861.787
05/27/2013  03:56:00     -106.939      -13.330      -12.305       27.774       22.481       13.556      771.372      505.412      183.761        0.661        0.073      107.766       12.377        0.013      336.790        8.329      861.791
05/27/2013  03:57:00     -114.759       -3.316      -14.007       24.877       30.202       14.120      618.888      912.148      199.376        0.755        0.087      114.807        9.300        0.007      336.723        8.218      861.779
05/27/2013  03:58:00      -84.400        7.282       -6.707       28.731       24.908       17.043      825.457      620.431      290.480        0.448        0.087       84.714       12.216        0.021      336.784        8.320      861.767
05/27/2013  03:59:00      -77.903      -30.102      -10.275       16.442       19.810       12.102      270.335      392.435      146.448        0.394        0.040       83.516        5.278        0.004      336.858        8.442      861.758
05/27/2013  04:00:00      -77.312      -46.078       -6.081       25.602       20.105       12.186      655.467      404.220      148.495        0.467        0.060       90.001        8.396        0.009      336.861        8.447      861.751
05/27/2013  04:01:00      -94.955      -43.203       -6.084       18.195       19.995       14.640      331.043      399.801      214.324        0.593        0.047      104.322        8.899        0.007      336.859        8.443      861.742
05/27/2013  04:02:00      -88.350      -28.532       -0.016       19.867       27.965       16.228      394.712      782.062      263.337        0.503        0.072       92.843       14.108        0.023      336.823        8.383      861.744
05/27/2013  04:03:00     -111.491      -59.987       -7.700       28.753       25.272       17.525      826.754      638.697      307.115        0.893        0.089      126.604       14.897        0.014      336.779        8.310      861.762
05/27/2013  04:04:00     -155.923        2.345      -10.783       53.390       31.396       26.052     2850.465      985.738      678.697        1.447        0.226      155.941       27.961        0.032      336.665        8.120      861.776
05/27/2013  04:05:00     -136.277       29.636      -10.034       31.860       21.719       16.962     1015.060      471.701      287.721        1.066        0.089      139.463       11.356        0.007      336.578        7.974      861.769
05/27/2013  04:06:00     -113.159       -9.250      -11.438       28.937       19.020       17.014      837.350      361.756      289.486        0.725        0.074      113.537       15.305        0.018      336.688        8.159      861.753
05/27/2013  04:07:00     -131.417      -16.733       -7.297       30.092       22.462       16.611      905.536      504.523      275.911        0.964        0.084      132.478       14.051        0.011      336.749        8.259      861.751
05/27/2013  04:08:00      -97.917      -24.864       -4.432       32.502       21.232       15.682     1056.350      450.803      245.932        0.599        0.088      101.024       17.770        0.031      336.712        8.199      861.752
05/27/2013  04:09:00     -119.424      -38.420       -4.712       14.806       19.048       11.695      219.216      362.813      136.765        0.824        0.036      125.452        7.989        0.004      336.779        8.310      861.747
05/27/2013  04:10:00     -116.645      -49.270       -4.030       22.038       18.984       12.886      485.681      360.387      166.039        0.853        0.051      126.624       10.188        0.006      336.801        8.346      861.744
05/27/2013  04:11:00     -110.254      -50.581       -3.241       29.713       20.903       17.262      882.853      436.940      297.990        0.817        0.081      121.303       17.968        0.022      336.767        8.290      861.740
05/27/2013  04:12:00     -108.132      -57.792        3.071       37.495       25.229       18.333     1405.841      636.511      336.103        0.871        0.119      122.607       16.674        0.018      336.896        8.505      861.726
05/27/2013  04:13:00      -61.046      -41.009        6.741       38.104       24.852       21.181     1451.941      617.610      448.650        0.399        0.126       73.541       20.082        0.075      336.981        8.646      861.715
05/27/2013  04:14:00      -57.950      -40.729        5.279       40.590       23.932       15.000     1647.560      572.731      225.004        0.374        0.122       70.831       18.931        0.071      336.972        8.631      861.718
05/27/2013  04:15:00      -78.596      -51.871        2.335       34.260       29.629       20.836     1173.748      877.891      434.152        0.568        0.124       94.170       19.707        0.044      336.981        8.646      861.731
05/27/2013  04:16:00      -44.324      -26.534        9.993       42.935       28.168       18.129     1843.427      793.444      328.648        0.287        0.148       51.659       16.773        0.105      337.018        8.706      861.738
05/27/2013  04:17:00     -102.847      -26.773       -5.728       15.597       19.297       14.098      243.265      372.382      198.742        0.607        0.041      106.274        9.237        0.008      336.991        8.664      861.739
05/27/2013  04:18:00      -84.026      -10.447       -2.052       39.314       20.187       22.531     1545.599      407.523      507.632        0.482        0.123       84.673       24.024        0.081      336.865        8.452      861.746
05/27/2013  04:19:00     -104.171      -16.518       -5.799       29.476       15.825       13.472      868.857      250.439      181.485        0.623        0.065      105.472       13.279        0.016      336.873        8.465      861.750
05/27/2013  04:20:00      -82.709       -8.642       -9.924       27.526       28.320       14.050      757.668      802.004      197.411        0.439        0.088       83.159       14.212        0.029      336.820        8.378      861.740
05/27/2013  04:21:00      -75.534       21.356       -5.391       25.998       22.674       16.861      675.921      514.121      284.304        0.383        0.074       78.495       12.597        0.026      336.718        8.210      861.730
05/27/2013  04:22:00      -92.318       38.064       -8.274       21.316       21.116       16.443      454.377      445.867      270.379        0.561        0.059       99.857        7.627        0.006      336.894        8.501      861.721
05/27/2013  04:23:00      -93.436       28.666       -7.388       33.814       22.422       15.443     1143.386      502.745      238.495        0.575        0.094       97.734        9.052        0.009      336.971        8.629      861.715
05/27/2013  04:24:00      -73.687       24.698       -6.349       15.469       16.929       14.134      239.293      286.594      199.771        0.340        0.036       77.716        9.981        0.016      336.980        8.644      861.695
05/27/2013  04:25:00      -45.903      -13.855      -11.980       22.028       10.798        9.557      485.245      116.604       91.336        0.157        0.035       47.949       11.692        0.059      336.904        8.517      861.673
05/27/2013  04:26:00      -15.113      -37.996       -0.201       16.429       14.398       12.646      269.905      207.299      159.929        0.115        0.032       40.891        9.101        0.050      336.959        8.610      861.646
05/27/2013  04:27:00      -46.356      -46.234      -12.373       19.689       14.567        9.005      387.662      212.202       81.095        0.256        0.034       65.471        7.835        0.014      337.018        8.708      861.634
05/27/2013  04:28:00      -54.009      -37.966       -4.696       20.540       12.319        8.896      421.909      151.768       79.131        0.252        0.033       66.019        5.452        0.007      337.010        8.695      861.623
05/27/2013  04:29:00      -21.562      -37.886        8.136       31.706       16.257       18.585     1005.280      264.291      345.403        0.179        0.081       43.592       12.218        0.079      336.918        8.542      861.621
05/27/2013  04:30:00      -11.443      -27.283       13.830       22.652       19.634       17.447      513.104      385.485      304.404        0.113        0.060       29.586       13.142        0.197      336.861        8.447      861.625
05/27/2013  04:31:00      -28.487       -7.208       -3.619       17.661       19.425        9.639      311.895      377.325       92.916        0.083        0.039       29.385        7.929        0.073      336.724        8.220      861.629
05/27/2013  04:32:00      -45.650       24.379       -7.739       16.825       14.726       10.502      283.077      216.863      110.296        0.167        0.031       51.752        8.728        0.028      336.432        7.729      861.647
05/27/2013  04:33:00      -28.602       -4.857       -7.724       10.667       13.526       10.066      113.792      182.964      101.323        0.065        0.020       29.012        4.155        0.021      336.425        7.719      861.654
05/27/2013  04:34:00      -18.023      -35.118        0.508       19.923       13.041        9.828      396.924      170.062       96.594        0.111        0.033       39.473        5.633        0.020      336.602        8.015      861.654
05/27/2013  04:35:00        7.258      -16.633        5.768       13.207       12.335       10.997      174.437      152.157      120.944        0.040        0.022       18.148        8.157        0.202      336.652        8.100      861.654
05/27/2013  04:36:00      -29.902        8.056       -1.727        9.157        9.003        7.899       83.860       81.060       62.395        0.059        0.011       30.968        5.723        0.034      336.558        7.940      861.637
05/27/2013  04:37:00      -61.010       13.564       -7.177       19.220       15.157        9.497      369.409      229.737       90.190        0.232        0.034       62.499        5.906        0.009      336.368        7.623      861.632
05/27/2013  04:38:00      -49.257       18.881       -9.375       17.449       18.019       10.136      304.451      324.667      102.744        0.180        0.037       52.752        9.527        0.033      336.418        7.706      861.628
05/27/2013  04:39:00      -54.649       13.009       -7.204       20.753       22.374       12.546      430.676      500.584      157.407        0.215        0.054       56.176        7.901        0.020      336.512        7.864      861.638
05/27/2013  04:40:00      -61.098        0.324       -4.939       29.275       18.271       14.061      857.051      333.815      197.707        0.257        0.069       61.099       14.848        0.059      336.499        7.842      861.643
05/27/2013  04:41:00      -70.276       -1.115       -8.356       16.481       16.281       10.450      271.636      265.076      109.212        0.283        0.032       70.285        6.981        0.010      336.481        7.813      861.653
05/27/2013  04:42:00      -51.375        9.482       -7.716       10.731       13.269        9.225      115.148      176.056       85.102        0.158        0.019       52.243        7.025        0.018      336.427        7.721      861.653
05/27/2013  04:43:00      -31.559        3.599       -4.120       11.325        9.527        8.294      128.265       90.768       68.790        0.066        0.014       31.764        6.325        0.040      336.570        7.962      861.660
05/27/2013  04:44:00      -38.607      -12.638       -7.671       15.688       10.281        7.427      246.117      105.693       55.164        0.106        0.020       40.623        7.089        0.030      336.596        8.004      861.652
05/27/2013  04:45:00      -29.215      -19.092       -2.093       14.910       13.938       14.071      222.309      194.257      198.001        0.092        0.031       34.900        7.684        0.048      336.491        7.829      861.641
05/27/2013  04:46:00      -28.419       -3.691       -6.178       12.606        8.423        9.423      158.923       70.941       88.802        0.059        0.016       28.658        2.413        0.007      336.464        7.783      861.638
05/27/2013  04:47:00      -23.030      -12.885       -3.350       12.981        8.989        8.419      168.510       80.797       70.882        0.051        0.016       26.390        2.690        0.010      336.456        7.768      861.650
05/27/2013  04:48:00       -9.773       -7.398       -0.636       11.672        9.430        3.673      136.237       88.926       13.490        0.019        0.012       12.258        5.188        0.179      336.465        7.784      861.638
05/27/2013  04:49:00      -37.368      -14.730       -7.441       13.410        7.419        5.405      179.827       55.034       29.215        0.097        0.013       40.166        4.372        0.012      336.499        7.842      861.627
05/27/2013  04:50:00      -63.273      -15.256       -9.348       11.299       11.483       10.729      127.663      131.865      115.111        0.235        0.019       65.086        9.296        0.020      336.413        7.697      861.622
05/27/2013  04:51:00      -57.375      -14.687       -9.261        8.761        9.575        7.670       76.760       91.677       58.821        0.191        0.011       59.225        2.328        0.002      336.388        7.655      861.610
05/27/2013  04:52:00      -47.270      -15.134       -9.720        7.440        7.836        4.780       55.351       61.409       22.847        0.135        0.007       49.634        2.775        0.003      336.467        7.787      861.598
05/27/2013  04:53:00      -41.057      -17.424       -4.293        7.751        9.324        7.299       60.080       86.928       53.280        0.110        0.010       44.602        3.995        0.008      336.584        7.985      861.587
05/27/2013  04:54:00      -36.525       -5.722       -6.787       10.008       12.903        7.409      100.166      166.481       54.898        0.087        0.016       36.970        5.101        0.019      336.554        7.933      861.582
05/27/2013  04:55:00      -31.957       -2.239       -6.597        7.142        7.040        4.489       51.015       49.563       20.150        0.060        0.006       32.036        3.138        0.010      336.587        7.990      861.560
05/27/2013  04:56:00       -6.587        5.042       -1.979       15.561       11.030        5.376      242.142      121.663       28.904        0.023        0.020        8.295        6.694        0.651      336.669        8.129      861.544
05/27/2013  04:57:00        6.417       10.737        2.499        6.488        6.327        5.784       42.097       40.025       33.450        0.014        0.006       12.508        2.514        0.040      336.909        8.526      861.525
05/27/2013  04:58:00      -11.784        0.204       -3.459        8.715        6.478        3.721       75.950       41.959       13.844        0.014        0.007       11.786        2.569        0.048      336.783        8.315      861.513
05/27/2013  04:59:00      -12.390       -8.536       -1.392       12.929       10.872        4.398      167.159      118.211       19.347        0.027        0.015       15.045        4.594        0.093      336.750        8.262      861.515
05/27/2013  05:00:00      -38.071      -12.246      -10.404        8.622       10.640        7.592       74.340      113.220       57.637        0.098        0.012       39.992        3.887        0.009      336.672        8.134      861.529
05/27/2013  05:01:00      -38.908      -22.427       -6.707        6.110        7.566        6.036       37.334       57.246       36.427        0.110        0.007       44.909        2.285        0.003      336.672        8.131      861.534
05/27/2013  05:02:00      -40.416      -24.690      -10.181       12.754        7.813       10.815      162.671       61.037      116.959        0.134        0.017       47.361        6.207        0.017      336.549        7.927      861.539
05/27/2013  05:03:00      -55.317      -22.519      -11.298       14.053        9.253        7.531      197.479       85.611       56.711        0.202        0.017       59.725        3.900        0.004      336.308        7.522      861.528
05/27/2013  05:04:00      -84.048      -18.525      -11.716       13.786       11.520        7.379      190.064      132.707       54.454        0.396        0.019       86.066        5.117        0.004      336.184        7.315      861.519
05/27/2013  05:05:00      -88.043       -9.534      -16.323       15.523       14.327        9.384      240.950      205.270       88.056        0.432        0.027       88.557        6.626        0.006      336.257        7.438      861.506
05/27/2013  05:06:00      -77.743       -6.411      -18.880       11.248       15.066       15.949      126.524      226.988      254.366        0.352        0.030       78.007        6.592        0.007      336.269        7.456      861.506
05/27/2013  05:07:00      -83.369      -14.645      -13.798       24.479       25.132       13.536      599.209      631.595      183.211        0.438        0.071       84.645       12.510        0.022      336.151        7.261      861.514
05/27/2013  05:08:00      -88.274      -40.224      -12.262       23.635       20.570       14.719      558.612      423.106      216.653        0.538        0.060       97.007        7.650        0.006      336.138        7.239      861.539
05/27/2013  05:09:00      -96.918      -27.183        0.558       32.372       25.033       21.861     1047.975      626.668      477.912        0.614        0.108      100.658       20.301        0.041      336.136        7.235      861.548
05/27/2013  05:10:00      -84.954      -18.047       -6.262       26.400       33.235       20.179      696.949     1104.561      407.178        0.490        0.110       86.850       12.734        0.021      336.153        7.263      861.550
05/27/2013  05:11:00      -95.945      -12.127       -4.183       42.345       31.992       19.499     1793.071     1023.470      380.200        0.628        0.160       96.708       16.184        0.028      336.085        7.150      861.555
05/27/2013  05:12:00      -95.597      -10.860       -6.492       33.749       24.122       18.097     1138.986      581.855      327.484        0.567        0.102       96.212       19.345        0.040      336.169        7.291      861.548
05/27/2013  05:13:00      -93.430       17.187       -6.886       32.296       27.180       21.772     1043.060      738.750      474.031        0.566        0.113       94.997       19.388        0.042      336.183        7.313      861.547
05/27/2013  05:14:00      -84.103        8.603       -9.024       25.298       25.519       13.194      640.007      651.242      174.071        0.435        0.073       84.542       11.175        0.017      336.234        7.400      861.559
05/27/2013  05:15:00      -96.063       14.071      -10.214       38.775       23.656       16.650     1503.506      559.622      277.210        0.594        0.117       97.088       16.838        0.030      336.277        7.470      861.560
05/27/2013  05:16:00     -112.374       29.852      -13.110       27.804       16.816       15.150      773.074      282.794      229.514        0.749        0.064      116.272       13.280        0.013      336.253        7.430      861.557
05/27/2013  05:17:00     -126.839       42.047      -17.503       33.456       26.931       16.808     1119.277      725.273      282.502        1.014        0.106      133.626       15.895        0.014      336.254        7.433      861.554
05/27/2013  05:18:00     -125.700       45.599      -12.976       41.246       24.427       21.135     1701.257      596.678      446.681        1.040        0.137      133.715       20.235        0.023      336.277        7.469      861.542
05/27/2013  05:19:00     -109.041       45.172      -18.004       36.072       26.651       16.759     1301.171      710.268      280.854        0.827        0.115      118.027       14.483        0.015      336.291        7.495      861.537
05/27/2013  05:20:00      -89.764       12.281      -12.221       27.229       28.747       13.124      741.445      826.416      172.233        0.505        0.087       90.600       12.377        0.019      336.251        7.425      861.522
05/27/2013  05:21:00     -111.695        4.423      -16.361       36.172       23.997       18.951     1308.424      575.874      359.152        0.750        0.112      111.782       19.430        0.030      336.299        7.508      861.505
05/27/2013  05:22:00     -101.356       -5.283      -18.001       24.661       20.804       14.728      608.144      432.798      216.910        0.594        0.063      101.494        4.684        0.002      336.313        7.532      861.495
05/27/2013  05:23:00      -98.313      -38.847       -6.812       26.564       27.187       16.940      705.632      739.152      286.972        0.648        0.087      105.710        9.978        0.009      336.123        7.213      861.504
05/27/2013  05:24:00     -105.709      -12.598       -8.561       49.415       26.051       19.923     2441.844      678.672      396.907        0.746        0.176      106.457       23.966        0.051      336.056        7.101      861.506
05/27/2013  05:25:00     -138.679       -3.097       -8.441       30.912       24.646       19.236      955.525      607.422      370.020        1.062        0.097      138.714       16.055        0.013      335.890        6.825      861.503
05/27/2013  05:26:00     -126.217      -23.419      -14.360       37.994       30.206       18.878     1443.550      912.398      356.385        0.970        0.136      128.371       18.019        0.020      335.919        6.872      861.511
05/27/2013  05:27:00     -118.401        2.794       -9.074       46.518       28.198       23.124     2163.943      795.149      534.731        0.880        0.175      118.434       24.806        0.044      335.944        6.915      861.509
05/27/2013  05:28:00     -142.021        8.516      -15.027       35.487       32.019       17.290     1259.336     1025.199      298.936        1.153        0.129      142.276       14.188        0.010      335.947        6.919      861.506
05/27/2013  05:29:00     -141.227        6.510      -10.600       53.263       37.811       24.907     2836.928     1429.687      620.360        1.249        0.244      141.377       21.881        0.024      335.889        6.823      861.512
05/27/2013  05:30:00     -121.228       -1.715      -13.540       41.852       42.811       21.599     1751.571     1832.796      466.537        0.947        0.203      121.240       13.494        0.012      335.850        6.759      861.529
05/27/2013  05:31:00     -122.840       22.333      -16.244       38.664       42.561       21.482     1494.884     1811.465      461.464        0.981        0.188      124.854       11.178        0.008      335.955        6.932      861.532
05/27/2013  05:32:00     -137.236       34.126      -21.343       41.990       33.000       23.741     1763.155     1088.978      563.645        1.193        0.171      141.416       19.386        0.019      335.951        6.924      861.537
05/27/2013  05:33:00     -142.189       33.532      -22.078       33.505       34.386       25.470     1122.605     1182.386      648.728        1.239        0.148      146.089       15.587        0.011      336.030        7.057      861.526
05/27/2013  05:34:00     -107.727        6.388      -10.180       45.756       33.651       25.115     2093.656     1132.397      630.786        0.780        0.193      107.916       25.038        0.054      336.046        7.086      861.492
05/27/2013  05:35:00     -150.483       33.380      -13.708       50.336       26.967       20.370     2533.732      727.213      414.930        1.381        0.184      154.141       17.658        0.013      336.047        7.086      861.464
05/27/2013  05:36:00     -133.739        3.587      -14.545       50.488       30.229       25.293     2549.016      913.764      639.717        1.111        0.205      133.788       21.614        0.026      336.045        7.082      861.443
05/27/2013  05:37:00     -123.655       -2.594       -8.076       51.839       31.636       26.261     2687.291     1000.863      689.657        0.987        0.219      123.682       25.280        0.042      335.980        6.975      861.418
05/27/2013  05:38:00      -67.914      -12.675       -5.384       40.511       34.140       22.318     1641.163     1165.516      498.100        0.405        0.165       69.087       24.710        0.128      335.979        6.972      861.402
05/27/2013  05:39:00      -66.442      -16.663      -10.794       33.237       26.780       16.090     1104.726      717.184      258.879        0.344        0.104       68.499       12.765        0.035      335.981        6.975      861.398
05/27/2013  05:40:00      -58.186      -39.192       -2.676       23.814       21.194       13.246      567.093      449.189      175.463        0.306        0.060       70.154        4.853        0.005      336.096        7.168      861.398
05/27/2013  05:41:00      -64.534      -36.378      -10.566       31.662       23.558       14.984     1002.508      555.003      224.534        0.369        0.089       74.081       10.077        0.019      336.149        7.256      861.393
05/27/2013  05:42:00      -29.424      -26.179       -7.109       28.521       18.053       14.150      813.436      325.921      200.226        0.147        0.067       39.384        7.577        0.037      336.192        7.330      861.389
05/27/2013  05:43:00      -56.408      -37.020       -4.473       22.495       17.727       13.848      506.019      314.251      191.760        0.279        0.051       67.472        2.461        0.001      336.135        7.234      861.400
05/27/2013  05:44:00      -80.606      -48.271       -8.345       17.103       15.282        8.899      292.509      233.554       79.198        0.475        0.030       93.955        6.850        0.005      336.215        7.368      861.407
05/27/2013  05:45:00      -75.410      -47.877       -4.455       37.527       19.158       13.581     1408.273      367.045      184.456        0.498        0.098       89.325        7.450        0.007      336.293        7.497      861.399
05/27/2013  05:46:00      -80.143      -44.055       -2.896       21.938       21.433       12.702      481.263      459.372      161.353        0.474        0.055       91.453       12.519        0.019      336.316        7.536      861.396
05/27/2013  05:47:00      -46.276      -23.155       -0.361       18.896       14.541       13.538      357.061      211.433      183.278        0.171        0.038       51.746        8.033        0.024      336.332        7.562      861.381
05/27/2013  05:48:00      -33.922      -19.209        4.857       35.114       17.642       12.423     1232.986      311.251      154.321        0.162        0.085       38.983       13.738        0.124      336.345        7.582      861.375
05/27/2013  05:49:00        7.024      -19.565        7.951       16.647       18.530       10.561      277.109      343.371      111.539        0.061        0.037       20.787        7.588        0.133      336.461        7.778      861.367
05/27/2013  05:50:00      -18.376      -28.152        4.511       32.021       25.767       18.045     1025.368      663.928      325.636        0.158        0.101       33.619       18.844        0.314      336.440        7.742      861.368
05/27/2013  05:51:00      -47.411      -41.473        6.261       53.012       27.635       19.701     2810.278      763.719      388.116        0.398        0.198       62.990       25.490        0.164      336.412        7.695      861.375
05/27/2013  05:52:00      -52.650      -59.093        5.809       53.838       33.663       21.324     2898.553     1133.192      454.711        0.539        0.224       79.146       22.906        0.084      336.391        7.661      861.374
05/27/2013  05:53:00      -72.077      -46.338       -5.216       39.315       24.730       17.652     1545.680      611.560      311.580        0.492        0.123       85.688       13.668        0.025      336.319        7.540      861.365
05/27/2013  05:54:00      -75.418      -42.281        2.378       49.909       21.184       20.329     2490.931      448.775      413.285        0.542        0.168       86.461       27.452        0.101      336.272        7.464      861.372
05/27/2013  05:55:00      -69.146      -34.528        6.401       41.631       27.433       21.325     1733.132      752.582      454.772        0.448        0.147       77.288       21.938        0.081      336.220        7.376      861.364
05/27/2013  05:56:00      -89.466      -47.699       -4.020       27.003       24.672       18.639      729.156      608.685      347.423        0.599        0.084      101.388       15.322        0.023      336.279        7.474      861.360
05/27/2013  05:57:00      -64.242      -44.175        1.303       36.181       24.907       19.848     1309.031      620.347      393.947        0.420        0.116       77.965       16.755        0.046      336.338        7.572      861.356
05/27/2013  05:58:00     -119.284      -43.321       -1.218       29.074       16.950       15.708      845.289      287.313      246.736        0.874        0.069      126.907       13.670        0.012      336.272        7.462      861.346
05/27/2013  05:59:00     -149.934      -48.643       -3.847       24.431       16.209       18.562      596.887      262.722      344.532        1.303        0.060      157.627        7.454        0.002      336.288        7.489      861.348
05/27/2013  06:00:00     -124.699      -48.179       -3.844       31.880       22.616       18.487     1016.346      511.471      341.787        0.988        0.093      133.683       14.514        0.012      336.251        7.428      861.357
05/27/2013  06:01:00      -73.977      -37.992        3.068       34.582       27.608       18.462     1195.893      762.185      340.838        0.461        0.115       83.163       17.953        0.047      336.247        7.420      861.357
05/27/2013  06:02:00      -98.367      -60.817       -4.650       26.807       24.128       17.386      718.604      582.162      302.267        0.750        0.080      115.649       17.249        0.022      336.259        7.439      861.347
05/27/2013  06:03:00      -74.098      -25.777       -1.400       22.118       19.733       12.838      489.211      389.407      164.818        0.360        0.052       78.454       12.525        0.025      336.281        7.478      861.330
05/27/2013  06:04:00      -54.196      -35.749       -3.013       23.727       23.173       14.973      562.975      537.007      224.187        0.277        0.066       64.924       12.894        0.039      336.335        7.567      861.305
05/27/2013  06:05:00      -72.584      -35.881       -5.509       27.477       14.130       11.935      754.969      199.662      142.440        0.384        0.055       80.969        9.089        0.013      336.304        7.515      861.297
05/27/2013  06:06:00      -81.402      -36.379       -2.283       31.644       20.012       21.162     1001.313      400.491      447.824        0.490        0.092       89.161       21.084        0.056      336.355        7.601      861.293
05/27/2013  06:07:00     -111.094      -31.836      -10.361       17.921       20.772       11.686      321.150      431.489      136.568        0.718        0.044      115.565        8.274        0.005      336.365        7.618      861.287
05/27/2013  06:08:00      -90.743      -26.155        1.451       25.575       23.579       13.861      654.066      555.987      192.119        0.516        0.070       94.437       14.161        0.022      336.380        7.642      861.277
05/27/2013  06:09:00      -99.327      -48.868       -7.079       34.245       30.294       16.064     1172.720      917.746      258.066        0.733        0.117      110.698       11.340        0.010      336.443        7.748      861.270
05/27/2013  06:10:00     -133.723      -70.171        1.101       37.540       23.601       24.892     1409.218      557.024      619.595        1.270        0.129      151.016       22.813        0.023      336.380        7.643      861.266
05/27/2013  06:11:00      -95.704      -59.581       -5.456       39.828       20.532       19.491     1586.237      421.570      379.906        0.756        0.119      112.735       18.291        0.026      336.341        7.577      861.281
05/27/2013  06:12:00      -13.082      -12.536        9.567       29.651       26.157       17.123      879.191      684.184      293.213        0.114        0.093       18.119       15.759        0.756      336.416        7.703      861.285
05/27/2013  06:13:00      -24.890      -36.086        8.713       40.646       24.124       26.263     1652.067      581.950      689.735        0.246        0.146       43.837       27.898        0.405      336.417        7.704      861.288
05/27/2013  06:14:00      -80.525      -46.096       -6.864       14.779       11.283       11.689      218.412      127.308      136.632        0.457        0.024       92.786        4.886        0.003      336.323        7.549      861.281
05/27/2013  06:15:00      -59.990      -51.087       -7.996       23.264       13.241       11.767      541.218      175.315      138.474        0.356        0.043       78.795       11.729        0.022      336.394        7.665      861.281
05/27/2013  06:16:00      -59.866      -50.434       -0.999       27.462       18.691       16.155      754.189      349.357      260.981        0.375        0.068       78.279        9.553        0.015      336.442        7.745      861.282
05/27/2013  06:17:00      -77.120      -56.678        0.079       30.284       31.839       16.394      917.105     1013.696      268.760        0.568        0.110       95.707       16.590        0.030      336.448        7.755      861.274
05/27/2013  06:18:00      -67.522      -55.486       -0.116       31.879       24.095       17.005     1016.258      580.576      289.173        0.476        0.094       87.395       10.387        0.014      336.459        7.776      861.278
05/27/2013  06:19:00      -89.769      -51.636       -4.065       26.923       19.931       13.532      724.870      397.250      183.102        0.602        0.065      103.561       13.528        0.017      336.490        7.828      861.276
05/27/2013  06:20:00      -94.075      -26.708       -4.498       28.297       23.857       14.517      800.742      569.148      210.740        0.558        0.079       97.792       11.824        0.015      336.499        7.841      861.278
05/27/2013  06:21:00      -70.293      -25.369       -2.416       36.701       25.974       14.883     1346.934      674.625      221.507        0.392        0.112       74.730       19.138        0.066      336.577        7.975      861.277
05/27/2013  06:22:00      -86.487      -47.838       -6.047       26.918       16.846       10.327      724.554      283.772      106.640        0.546        0.056       98.836        6.469        0.004      336.550        7.929      861.263
05/27/2013  06:23:00      -72.614      -41.140       -4.218       22.293       14.459       12.532      496.972      209.057      157.042        0.392        0.043       83.458       11.664        0.020      336.572        7.965      861.247
05/27/2013  06:24:00      -58.775      -42.030       -3.738       17.479       15.975       10.571      305.502      255.195      111.749        0.295        0.034       72.256        7.880        0.012      336.575        7.970      861.220
05/27/2013  06:25:00      -19.292      -33.671        5.745       21.988       18.331       12.603      483.483      336.023      158.825        0.126        0.049       38.806       14.187        0.134      336.664        8.118      861.214
05/27/2013  06:26:00      -27.321      -44.908       -2.896       16.332       20.582       13.217      266.730      423.609      174.690        0.182        0.043       52.565        8.871        0.028      336.754        8.269      861.212
05/27/2013  06:27:00      -45.668      -55.619       -0.095       31.636       20.698       20.080     1000.846      428.416      403.192        0.351        0.092       71.965       19.396        0.073      336.763        8.285      861.218
05/27/2013  06:28:00      -76.163      -58.878       -4.580       23.990       22.370       13.860      575.508      500.434      192.105        0.528        0.063       96.268       10.835        0.013      336.757        8.273      861.227
05/27/2013  06:29:00      -81.929      -69.242       -7.087       28.073       19.060       16.176      788.093      363.300      261.658        0.648        0.071      107.270       17.188        0.026      336.759        8.279      861.250
05/27/2013  06:30:00      -40.078      -43.070        6.365       37.165       27.388       22.430     1381.268      750.113      503.109        0.307        0.132       58.833       22.156        0.142      336.784        8.319      861.267
05/27/2013  06:31:00      -46.974      -28.680       11.041       42.160       25.774       14.942     1777.487      664.286      223.250        0.291        0.133       55.037       16.396        0.089      336.782        8.316      861.276
05/27/2013  06:32:00      -56.161      -65.492        0.735       34.572       24.830       19.474     1195.199      616.548      379.229        0.482        0.110       86.274       15.672        0.033      336.777        8.307      861.292
05/27/2013  06:33:00      -73.580      -60.198       -1.329       31.152       19.568       19.524      970.448      382.915      381.197        0.539        0.087       95.067       19.173        0.041      336.803        8.350      861.291
05/27/2013  06:34:00      -73.840      -58.960       -8.696       29.002       19.304       14.037      841.092      372.636      197.049        0.521        0.071       94.492       14.148        0.022      336.811        8.365      861.289
05/27/2013  06:35:00      -90.883      -19.336       -9.196       22.754       16.389       16.079      517.756      268.597      258.522        0.488        0.052       92.917       14.548        0.025      336.821        8.380      861.292
05/27/2013  06:36:00      -75.670      -19.174       -1.798       22.523       17.680       13.518      507.302      312.580      182.747        0.355        0.050       78.061        9.778        0.016      336.815        8.371      861.283
05/27/2013  06:37:00      -57.316       -1.745        1.527       28.600       22.598       17.905      817.973      510.654      320.576        0.247        0.082       57.342       16.388        0.082      336.871        8.463      861.263
05/27/2013  06:38:00      -54.654      -12.838        3.779       23.962       19.762       14.005      574.196      390.545      196.137        0.216        0.058       56.141       14.344        0.065      336.853        8.434      861.246
05/27/2013  06:39:00      -63.631      -45.800       -0.098       24.298       35.595       16.486      590.384     1266.998      271.783        0.414        0.106       78.400       11.924        0.023      336.893        8.499      861.234
05/27/2013  06:40:00      -62.910      -59.869       -5.780       38.701       26.037       17.127     1497.779      677.916      293.336        0.502        0.123       86.844       13.995        0.026      336.929        8.560      861.225
05/27/2013  06:41:00      -17.465      -39.960       19.037       47.200       38.106       30.949     2227.811     1452.051      957.826        0.345        0.232       43.611       27.844        0.408      336.935        8.570      861.230
05/27/2013  06:42:00      -30.383      -44.844        8.855       33.629       33.436       25.357     1130.922     1117.949      642.964        0.295        0.145       54.168       27.918        0.266      336.966        8.624      861.239
05/27/2013  06:43:00      -48.676      -38.188        5.153       28.201       20.012       15.159      795.288      400.496      229.802        0.264        0.071       61.869       15.602        0.064      336.935        8.569      861.249
05/27/2013  06:44:00      -50.198      -21.523        8.074       30.488       22.302       17.776      929.529      497.368      315.993        0.240        0.087       54.618       19.581        0.129      336.997        8.673      861.255
05/27/2013  06:45:00       -7.925      -46.964        1.990       17.224       20.725       24.141      296.670      429.516      582.765        0.179        0.065       47.628       16.473        0.120      337.052        8.764      861.254
05/27/2013  06:46:00      -24.377        0.065       -4.819       21.817       25.121       14.450      475.962      631.061      208.810        0.097        0.066       24.377       13.306        0.298      336.964        8.619      861.252
05/27/2013  06:47:00      -31.014        4.438        3.251       26.482       11.969       15.396      701.322      143.255      237.030        0.104        0.054       31.330       14.646        0.219      336.960        8.612      861.243
05/27/2013  06:48:00      -61.666      -25.751       -8.551       18.562       17.776       13.778      344.558      315.974      189.843        0.269        0.043       66.827        8.126        0.015      337.018        8.708      861.258
05/27/2013  06:49:00      -50.037       -8.212       -9.137       19.966       11.919       10.511      398.651      142.065      110.483        0.165        0.033       50.706       10.632        0.044      337.003        8.683      861.259
05/27/2013  06:50:00      -20.917       -7.740       -5.192       11.224       10.945        9.981      125.988      119.794       99.617        0.043        0.017       22.303        4.909        0.048      337.055        8.771      861.268
05/27/2013  06:51:00      -54.276        6.139       -0.280       13.043       13.076        8.846      170.131      170.986       78.244        0.170        0.021       54.622        4.765        0.008      337.036        8.738      861.278
05/27/2013  06:52:00      -62.451      -17.328       -6.194       16.965       17.058        7.885      287.799      290.983       62.176        0.244        0.032       64.810        4.375        0.005      337.079        8.811      861.280
05/27/2013  06:53:00      -49.490      -12.153       -4.889       11.456       11.921        8.965      131.246      142.106       80.369        0.149        0.018       50.961        4.486        0.008      337.134        8.903      861.287
05/27/2013  06:54:00      -33.242      -43.889       -2.370       24.693       16.792       14.174      609.768      281.982      200.895        0.206        0.055       55.057       12.040        0.048      337.178        8.979      861.264
05/27/2013  06:55:00      -31.634      -26.671        2.645       17.204       16.005       11.165      295.986      256.172      124.666        0.120        0.034       41.377       10.626        0.066      337.233        9.069      861.261
05/27/2013  06:56:00      -28.088      -45.918       -2.282       17.069       16.181        7.393      291.352      261.839       54.652        0.176        0.030       53.827        6.327        0.014      337.186        8.989      861.241
05/27/2013  06:57:00      -24.098      -49.176       -0.330       23.459       25.802       15.505      550.322      665.765      240.390        0.223        0.073       54.763       18.731        0.117      337.253        9.101      861.242
05/27/2013  06:58:00      -43.582      -53.318       -4.192       13.935       15.393        8.724      194.191      236.946       76.107        0.263        0.025       68.864        8.270        0.014      337.144        8.919      861.237
05/27/2013  06:59:00      -30.315      -49.388        5.312       28.113       21.477       15.552      790.353      461.241      241.864        0.244        0.075       57.949       18.978        0.107      337.261        9.116      861.249
05/27/2013  07:00:00      -58.415      -60.801       -4.101       18.017       15.086       13.759      324.625      227.581      189.300        0.393        0.037       84.315       11.574        0.019      337.208        9.031      861.251
05/27/2013  07:01:00      -64.819      -63.948       -3.110       20.538       17.073       17.657      421.815      291.493      311.787        0.466        0.051       91.054       14.746        0.026      337.226        9.056      861.258
05/27/2013  07:02:00      -65.734      -58.473      -11.785       11.169        9.675       10.423      124.756       93.605      108.641        0.410        0.016       87.977        5.186        0.003      337.239        9.080      861.267
05/27/2013  07:03:00      -68.684      -74.305      -13.398        8.178       10.683        7.278       66.885      114.129       52.966        0.533        0.012      101.187        3.798        0.001      337.275        9.138      861.274
05/27/2013  07:04:00      -35.013      -51.162       -3.271       21.280       26.289       12.064      452.860      691.087      145.528        0.257        0.064       61.995        9.867        0.025      337.386        9.325      861.273
05/27/2013  07:05:00      -39.468      -44.171       -2.536       19.127        8.513       11.587      365.855       72.477      134.268        0.204        0.029       59.235       12.990        0.048      337.364        9.290      861.264
05/27/2013  07:06:00      -14.366      -37.776       -1.372        7.373        6.722        7.948       54.354       45.187       63.175        0.090        0.008       40.416        3.591        0.008      337.369        9.298      861.233
05/27/2013  07:07:00      -10.052      -31.998       -0.742        6.483       11.048        5.839       42.034      122.052       34.089        0.066        0.010       33.540        5.094        0.023      337.453        9.438      861.207
05/27/2013  07:08:00       -2.316      -18.591       10.925        9.242       13.220        9.829       85.408      174.774       96.617        0.041        0.018       18.735        8.304        0.196      337.746        9.928      861.175
05/27/2013  07:09:00       -5.143       -8.756        9.324       11.762       11.653       11.143      138.340      135.788      124.162        0.029        0.020       10.155        8.311        0.670      337.890       10.171      861.151
05/27/2013  07:10:00      -15.801        7.104       11.004       11.204        7.951       12.596      125.538       63.216      158.648        0.038        0.017       17.324        8.951        0.267      337.983       10.327      861.131
05/27/2013  07:11:00      -21.515       12.760        3.953       10.102        7.912       10.344      102.059       62.597      107.008        0.046        0.014       25.014        7.216        0.083      337.785        9.993      861.124
05/27/2013  07:12:00       -4.629       17.308       -1.005       11.171        9.296        9.444      124.791       86.422       89.191        0.031        0.015       17.916        4.174        0.054      337.875       10.144      861.139
05/27/2013  07:13:00      -20.683       -2.584       -1.645        9.837        7.963        5.756       96.775       63.411       33.132        0.032        0.010       20.844        4.371        0.044      337.786        9.994      861.164
05/27/2013  07:14:00      -21.309       -4.501       -1.682        6.804       10.618        8.445       46.289      112.742       71.317        0.035        0.012       21.779        5.628        0.067      337.796       10.012      861.190
05/27/2013  07:15:00      -18.233        2.004        1.381        7.628       10.499        6.668       58.194      110.232       44.465        0.028        0.011       18.343        3.615        0.039      337.888       10.165      861.199
05/27/2013  07:16:00       -6.007       -6.515        1.254        9.346        7.006       11.814       87.356       49.086      139.559        0.018        0.014        8.862        7.259        0.671      338.221       10.725      861.190
05/27/2013  07:17:00       28.203       44.210       10.893       24.407       29.081       19.558      595.702      845.690      382.533        0.235        0.091       52.440       15.963        0.093      338.035       10.413      861.179
05/27/2013  07:18:00       43.759       57.647       -7.528       11.895       21.705       16.717      141.479      471.125      279.466        0.309        0.045       72.374        8.983        0.015      337.836       10.080      861.163
05/27/2013  07:19:00       34.895       48.926        0.495       30.416       26.001       27.788      925.129      676.069      772.177        0.299        0.119       60.095       11.103        0.034      338.111       10.541      861.149
05/27/2013  07:20:00       39.082       14.528       23.186       24.285       16.676       23.048      589.767      278.091      531.224        0.184        0.070       41.694        4.985        0.014      338.271       10.811      861.136
05/27/2013  07:21:00        2.891       10.641       12.692       17.560       19.133       20.511      308.367      366.065      420.718        0.069        0.055       11.027       13.649        1.532      338.351       10.943      861.137
05/27/2013  07:22:00       -3.284       -8.990       17.001       13.511       17.689       11.872      182.560      312.908      140.937        0.051        0.032        9.571        5.912        0.382      338.547       11.273      861.136
05/27/2013  07:23:00       10.225       17.948        7.742       21.684       18.739       14.554      470.195      351.160      211.832        0.076        0.052       20.657       11.964        0.335      338.392       11.013      861.128
05/27/2013  07:24:00        0.847       23.270       12.009       11.485       15.055       14.293      131.912      226.664      204.280        0.062        0.028       23.285        9.583        0.169      338.552       11.279      861.137
05/27/2013  07:25:00       -2.761       30.862       -1.576       19.437       20.360       15.145      377.792      414.520      229.383        0.099        0.051       30.985       13.191        0.181      338.125       10.565      861.136
05/27/2013  07:26:00       16.325       18.333       12.905       23.243       13.629       18.035      540.230      185.743      325.277        0.091        0.053       24.548       10.810        0.194      338.301       10.858      861.135
05/27/2013  07:27:00      -20.974        2.767        7.573       12.503       16.484       10.407      156.332      271.718      108.306        0.052        0.027       21.156        6.994        0.109      338.224       10.731      861.127
05/27/2013  07:28:00      -21.860        8.893        1.173       16.622       22.001       14.732      276.296      484.047      217.043        0.077        0.049       23.600        9.921        0.177      338.208       10.702      861.121
05/27/2013  07:29:00        1.981       37.506       -2.662       16.572       14.945       12.941      274.631      223.345      167.468        0.104        0.033       37.558        9.781        0.068      338.264       10.798      861.117
05/27/2013  07:30:00      -30.392        4.655       -3.515       20.313       33.838       13.605      412.633     1145.024      185.109        0.135        0.087       30.746        9.923        0.104      338.193       10.677      861.116
05/27/2013  07:31:00      -23.952      -26.790        3.836       16.396       18.676       11.454      268.839      348.809      131.190        0.103        0.037       35.936        5.806        0.026      338.220       10.722      861.114
05/27/2013  07:32:00      -27.230       -9.129        2.867       21.065       19.097       13.442      443.752      364.714      180.700        0.091        0.049       28.720       10.933        0.145      338.318       10.887      861.113
05/27/2013  07:33:00      -16.600       11.635       19.485       17.620       19.504       19.736      310.482      380.390      389.510        0.094        0.054       20.271       18.574        0.840      338.438       11.089      861.107
05/27/2013  07:34:00      -34.334        6.399       -1.395       14.604       18.114       13.848      213.290      328.115      191.757        0.098        0.037       34.925       13.677        0.153      338.219       10.722      861.091
05/27/2013  07:35:00       -8.754       -9.445       16.703       22.365       20.764       15.676      500.197      431.126      245.737        0.081        0.059       12.878       12.872        0.999      338.549       11.277      861.076
05/27/2013  07:36:00      -38.849      -32.838       12.070       35.981       20.707       20.611     1294.638      428.793      424.818        0.244        0.107       50.868       23.785        0.219      338.378       10.987      861.053
05/27/2013  07:37:00      -58.259       -8.672       -0.149       31.853       23.276       16.907     1014.631      541.768      285.838        0.266        0.092       58.901       17.652        0.090      338.193       10.679      861.041
05/27/2013  07:38:00      -31.862      -18.278        1.561       22.235       20.541       17.424      494.390      421.915      303.581        0.129        0.061       36.732       16.129        0.193      338.294       10.847      861.044
05/27/2013  07:39:00      -56.565       39.626      -11.345       15.094       21.814       12.424      227.840      475.854      154.365        0.288        0.043       69.064        5.592        0.007      338.099       10.521      861.038
05/27/2013  07:40:00      -37.147      -15.143       -9.760       19.604       28.425        8.718      384.334      807.983       75.995        0.149        0.063       40.115        4.148        0.011      338.094       10.511      861.051
05/27/2013  07:41:00      -25.716      -17.775       -2.924       13.181        7.516        8.825      173.731       56.493       77.882        0.065        0.015       31.261        4.985        0.025      338.140       10.588      861.057
05/27/2013  07:42:00      -61.926      -21.303       -3.337       17.308       15.289       12.003      299.554      233.753      144.072        0.249        0.034       65.487        7.638        0.014      338.191       10.675      861.062
05/27/2013  07:43:00      -61.823      -11.006       -7.522       27.515       19.915       18.336      757.086      396.626      336.209        0.274        0.074       62.795       12.168        0.038      338.265       10.799      861.071
05/27/2013  07:44:00      -79.962      -30.367      -12.180       15.689       15.903       13.152      246.137      252.908      172.986        0.407        0.034       85.534        8.668        0.010      338.204       10.697      861.074
05/27/2013  07:45:00      -34.149       -4.916        0.620       19.060       10.744        9.398      363.293      115.435       88.331        0.088        0.028       34.501       11.043        0.102      338.211       10.709      861.058
05/27/2013  07:46:00       -5.910      -15.109        3.019        9.199       14.551        8.381       84.627      211.723       70.240        0.032        0.018       16.223        7.972        0.241      338.376       10.986      861.055
05/27/2013  07:47:00      -42.339      -17.673       -6.647       15.452       20.879       15.226      238.754      435.912      231.824        0.153        0.045       45.879       12.373        0.073      338.348       10.940      861.043
05/27/2013  07:48:00      -37.243      -42.869       -1.574       12.613       13.024        8.309      159.091      169.631       69.043        0.181        0.020       56.787        4.436        0.006      338.322       10.895      861.037
05/27/2013  07:49:00      -27.677      -40.589        9.452       30.785       20.793       22.328      947.734      432.336      498.545        0.219        0.094       49.128       18.709        0.145      338.458       11.124      861.043
05/27/2013  07:50:00      -35.244      -86.669      -10.664       27.724       27.505       20.360      768.601      756.531      414.548        0.540        0.097       93.561       11.136        0.014      338.256       10.786      861.048
05/27/2013  07:51:00       -1.016      -60.918        0.180       18.639       16.806       10.858      347.414      282.451      117.891        0.223        0.037       60.927        8.207        0.018      338.280       10.824      861.049
05/27/2013  07:52:00      -20.041      -26.935       -2.446       24.580       24.463       15.864      604.153      598.455      251.651        0.129        0.073       33.573        7.111        0.045      338.424       11.067      861.041
05/27/2013  07:53:00      -18.096      -45.419        2.104       18.113       22.498       17.234      328.079      506.165      297.014        0.176        0.057       48.891       12.615        0.067      338.469       11.143      861.034
05/27/2013  07:54:00      -11.923      -83.470       -0.835       15.438       17.977       16.588      238.331      323.170      275.164        0.397        0.042       84.317       10.962        0.017      338.401       11.026      861.023
05/27/2013  07:55:00      -22.274      -79.623        2.195       23.562       24.135       16.862      555.169      582.509      284.338        0.413        0.071       82.680       13.958        0.029      338.391       11.013      861.020
05/27/2013  07:56:00      -41.722      -49.011       -7.415       17.111       13.786       14.365      292.802      190.052      206.343        0.244        0.034       64.365        7.363        0.013      338.378       10.988      861.026
05/27/2013  07:57:00      -33.680      -42.278       -0.283       12.369       19.477       11.996      153.001      379.365      143.907        0.180        0.034       54.053        4.875        0.008      338.450       11.109      861.031
05/27/2013  07:58:00      -20.038      -29.168        5.235       12.770       16.091       10.752      163.060      258.936      115.599        0.091        0.027       35.388        6.399        0.033      338.465       11.136      861.041
05/27/2013  07:59:00       -8.817       -0.059       -0.057       14.184       19.772       16.976      201.187      390.936      288.176        0.048        0.044        8.817        6.091        0.477      338.703       11.535      861.035
05/27/2013  08:00:00      -37.215      -10.896        7.891       28.551       23.310       16.169      815.173      543.349      261.448        0.159        0.081       38.777       12.059        0.097      338.726       11.573      861.048
05/27/2013  08:01:00      -41.169      -28.016        2.568       21.084       23.764       18.646      444.522      564.718      347.689        0.192        0.068       49.798       18.565        0.139      338.634       11.420      861.052
05/27/2013  08:02:00      -34.156      -37.824       -0.921       26.688       28.706       15.499      712.262      824.032      240.211        0.219        0.089       50.964       19.432        0.145      338.676       11.490      861.054
05/27/2013  08:03:00      -46.586      -27.451        1.943       35.301       32.912       19.626     1246.168     1083.199      385.185        0.282        0.136       54.072       21.031        0.151      338.739       11.595      861.054
05/27/2013  08:04:00      -42.180      -44.036        4.382       36.769       28.460       16.896     1351.940      809.951      285.484        0.309        0.122       60.978       22.099        0.131      338.680       11.496      861.064
05/27/2013  08:05:00      -35.532      -44.747        1.634       29.613       23.415       16.725      876.934      548.279      279.739        0.249        0.085       57.138       16.661        0.085      338.675       11.488      861.062
05/27/2013  08:06:00      -17.780      -67.713       -5.944       24.028       29.076       15.118      577.324      845.438      228.556        0.329        0.083       70.009       12.325        0.031      338.538       11.256      861.065
05/27/2013  08:07:00      -54.475      -42.152       -2.133       40.587       25.327       17.155     1647.309      641.458      294.298        0.367        0.129       68.879       18.286        0.070      338.647       11.441      861.052
05/27/2013  08:08:00      -62.582      -32.910       -6.195       22.360       17.296       12.406      499.950      299.169      153.915        0.300        0.048       70.707       10.982        0.024      338.550       11.277      861.062
05/27/2013  08:09:00      -15.398      -19.818       -9.707       11.599       10.612       11.202      134.530      112.604      125.474        0.055        0.019       25.097        7.443        0.088      338.594       11.352      861.062
05/27/2013  08:10:00      -39.220       -0.803       -2.250       25.972       26.978       18.841      674.544      727.824      354.970        0.165        0.088       39.228       17.156        0.191      338.742       11.600      861.068
05/27/2013  08:11:00      -31.758      -28.589       -0.852       27.922       20.708       14.136      779.665      428.815      199.823        0.162        0.070       42.731       10.551        0.061      338.727       11.575      861.052
05/27/2013  08:12:00      -23.069      -53.718        1.469       16.473       16.601       12.331      271.344      275.594      152.058        0.206        0.035       58.462        9.899        0.029      338.616       11.391      861.043
05/27/2013  08:13:00      -16.023      -40.504        4.911       14.728       16.787       13.835      216.901      281.807      191.398        0.131        0.035       43.558       10.108        0.054      338.788       11.678      861.024
05/27/2013  08:14:00      -26.928      -18.487       14.584       42.586       20.889       20.100     1813.570      436.331      404.017        0.197        0.133       32.664       19.316        0.350      339.004       12.041      861.030
05/27/2013  08:15:00      -32.550      -21.963        7.706       24.616       18.483       16.429      605.931      341.619      269.922        0.141        0.061       39.266       17.396        0.196      338.950       11.950      861.033
05/27/2013  08:16:00      -53.988      -22.148        3.367       20.006       20.537       12.172      400.254      421.764      148.160        0.219        0.049       58.355        9.993        0.029      338.723       11.569      861.044
05/27/2013  08:17:00      -59.106       -5.587       -8.489       18.316       21.836       11.333      335.485      476.819      128.438        0.227        0.047       59.369       15.002        0.064      338.677       11.491      861.025
05/27/2013  08:18:00      -22.277       14.420       -0.995       12.630       10.463       11.948      159.515      109.468      142.753        0.056        0.021       26.537        7.511        0.080      338.965       11.976      861.022
05/27/2013  08:19:00       -9.556       -4.598        4.761       12.307        8.125       11.319      151.468       66.008      128.115        0.024        0.017       10.605        9.460        0.796      339.247       12.450      861.008
05/27/2013  08:20:00      -14.048       -5.860       15.906       29.167       15.983       16.886      850.691      255.455      285.150        0.094        0.070       15.221       15.724        1.067      339.545       12.951      861.003
05/27/2013  08:21:00      -50.193       20.919       -2.087       19.892       22.487       14.209      395.684      505.648      201.896        0.203        0.055       54.377        9.520        0.031      338.955       11.959      860.985
05/27/2013  08:22:00      -45.150       13.185        5.971       24.427       18.436       18.341      596.658      339.888      336.375        0.176        0.064       47.036       16.725        0.126      339.127       12.250      860.989
05/27/2013  08:23:00      -56.801       11.121       -2.321       15.504       23.310        9.925      240.363      543.379       98.503        0.212        0.044       57.880        8.249        0.020      338.809       11.713      860.999
05/27/2013  08:24:00      -20.476       -1.445        7.125       18.262       13.259       17.071      333.486      175.801      291.421        0.064        0.040       20.527       14.658        0.510      339.283       12.511      861.016
05/27/2013  08:25:00       -7.503        2.584       22.305       20.578       12.681       16.402      423.447      160.800      269.015        0.071        0.043        7.935       14.841        3.498      339.888       13.530      861.010
05/27/2013  08:26:00      -46.493       14.736       -3.797       25.140       15.794       13.792      632.027      249.453      190.210        0.173        0.054       48.772       10.589        0.047      339.039       12.100      861.005
05/27/2013  08:27:00       -0.293        9.346       22.904       10.772       15.009       18.668      116.035      225.266      348.483        0.065        0.034        9.350        7.902        0.714      340.033       13.776      860.977
05/27/2013  08:28:00       17.013       28.047       26.305       38.756       21.447       22.331     1502.037      459.990      498.689        0.211        0.123       32.804       20.846        0.404      339.662       13.150      860.952
05/27/2013  08:29:00       38.469       45.773       31.783       26.825       31.061       28.281      719.577      964.788      799.810        0.353        0.124       59.791       10.685        0.032      339.321       12.575      860.920
05/27/2013  08:30:00      -13.688      -48.663        4.969       36.785       30.256       28.053     1353.116      915.400      786.965        0.282        0.153       50.552       15.859        0.098      339.120       12.236      860.898
05/27/2013  08:31:00      -12.705      -39.280        6.925       43.371       22.327       20.916     1881.084      498.477      437.463        0.228        0.141       41.284       13.729        0.111      339.096       12.196      860.879
05/27/2013  08:32:00       27.211        8.585       19.550       31.891       21.571       26.249     1017.048      465.293      689.026        0.168        0.109       28.533       23.882        0.701      339.683       13.185      860.852
05/27/2013  08:33:00      107.526       56.984       34.795      105.511       39.011       26.245    11132.594     1521.861      688.785        1.468        0.667      121.692       30.201        0.062      339.421       12.742      860.841
05/27/2013  08:34:00      130.246       55.771       39.810       62.343       58.541       44.439     3886.656     3427.066     1974.838        1.547        0.464      141.685       37.799        0.071      339.041       12.104      860.836
05/27/2013  08:35:00       55.501       37.932        6.733       38.397       57.452       23.987     1474.330     3300.756      575.375        0.496        0.268       67.225       18.754        0.078      339.119       12.233      860.843
05/27/2013  08:36:00       64.168       70.816       16.844       56.917       47.332       33.653     3239.523     2240.291     1132.518        0.801        0.331       95.564       20.014        0.044      339.373       12.662      860.855
05/27/2013  08:37:00       98.417       54.781       29.668       61.312       38.474       30.293     3759.204     1480.263      917.685        0.986        0.308      112.636       29.721        0.070      339.312       12.561      860.866
05/27/2013  08:38:00       78.654       75.216        4.120       51.444       39.247       32.986     2646.440     1540.321     1088.067        0.857        0.264      108.830       26.991        0.062      339.171       12.320      860.876
05/27/2013  08:39:00       19.640       86.513        3.215       25.674       37.678       31.852      659.174     1419.599     1014.560        0.549        0.155       88.714       24.680        0.077      339.222       12.407      860.884
05/27/2013  08:40:00       58.768       53.713        6.657       48.711       32.805       27.454     2372.764     1076.190      753.736        0.529        0.210       79.617       20.397        0.066      339.256       12.465      860.867
05/27/2013  08:41:00       25.836       39.349       16.375       34.960       27.080       29.242     1222.191      733.304      855.074        0.265        0.141       47.072       15.448        0.108      339.372       12.659      860.879
05/27/2013  08:42:00       -4.959       32.277       23.302       18.203       20.069       26.137      331.344      402.760      683.128        0.151        0.071       32.655       13.883        0.181      339.736       13.272      860.898
05/27/2013  08:43:00       11.031       42.236       70.459       26.533       29.951       24.377      704.015      897.041      594.258        0.453        0.110       43.653       16.086        0.136      339.520       12.908      860.935
05/27/2013  08:44:00       55.576       61.755       43.137       41.770       30.425       43.328     1744.695      925.666     1877.315        0.665        0.227       83.080       25.199        0.092      339.276       12.497      860.957
05/27/2013  08:45:00       97.501       72.921       20.593       27.676       29.624       32.114      765.957      877.591     1031.334        0.896        0.134      121.753       11.615        0.009      339.200       12.370      860.964
05/27/2013  08:46:00      101.096       92.446       46.779       52.375       35.496       34.942     2743.100     1259.934     1220.957        1.309        0.261      136.992       26.262        0.037      339.158       12.300      860.953
05/27/2013  08:47:00      107.137       96.506       65.541       37.468       22.918       32.622     1403.815      525.220     1064.187        1.404        0.150      144.194       25.051        0.030      339.135       12.261      860.959
05/27/2013  08:48:00       19.641       -0.123       53.372       32.352       59.304       33.562     1046.627     3516.925     1126.435        0.446        0.284       19.641       34.879        3.153      339.591       13.029      860.954
05/27/2013  08:49:00       34.273      -13.920       16.875       37.988       51.082       32.863     1443.057     2609.374     1079.949        0.339        0.257       36.992       37.472        1.026      339.648       13.125      860.950
05/27/2013  08:50:00       29.677      -20.739       25.396       32.845       46.642       31.917     1078.778     2175.501     1018.718        0.311        0.214       36.206       35.822        0.979      339.574       13.000      860.947
05/27/2013  08:51:00       27.945       40.468       23.427       22.050       20.800       33.770      486.206      432.646     1140.409        0.251        0.103       49.180       11.706        0.057      339.363       12.645      860.941
05/27/2013  08:52:00        3.736       -1.044       14.936       16.474       17.529       16.531      271.388      307.257      273.290        0.054        0.043        3.879        8.396        4.684      339.982       13.691      860.947
05/27/2013  08:53:00       39.442       16.892       41.415       34.959       38.366       24.207     1222.145     1471.928      585.989        0.342        0.164       42.907       26.609        0.385      339.770       13.330      860.949
05/27/2013  08:54:00        4.375       21.511       48.471       27.660       33.457       20.863      765.057     1119.396      435.260        0.258        0.116       21.952       18.072        0.678      340.040       13.787      860.945
05/27/2013  08:55:00       68.724       69.762       57.792       75.600       41.451       43.107     5715.398     1718.219     1858.218        1.111        0.465       97.927       33.689        0.118      339.731       13.265      860.948
05/27/2013  08:56:00      135.689       84.398       32.407       49.406       38.815       41.802     2440.911     1506.580     1747.377        1.614        0.285      159.795       23.091        0.021      339.201       12.371      860.945
05/27/2013  08:57:00       98.864       50.630       32.614       56.528       47.573       35.596     3195.448     2263.178     1267.089        1.006        0.336      111.074       19.856        0.032      339.347       12.617      860.946
05/27/2013  08:58:00        1.167        6.301       28.764       23.699       39.660       28.071      561.623     1572.938      787.954        0.189        0.146        6.408       21.269       11.017      339.972       13.672      860.950
05/27/2013  08:59:00       65.512       75.374       14.175       43.773       41.894       31.852     1916.087     1755.107     1014.566        0.743        0.234       99.865       23.641        0.056      339.519       12.909      860.979
05/27/2013  09:00:00       19.468       72.842      -20.971       41.041       26.663       35.043     1684.397      710.938     1227.995        0.487        0.181       75.399       20.217        0.072      339.280       12.506      860.999
05/27/2013  09:01:00        1.312       29.379       14.878       25.648       20.302       25.951      657.815      412.170      673.445        0.141        0.087       29.408       17.510        0.355      339.757       13.309      861.004
05/27/2013  09:02:00       -0.049       91.837       -7.357       19.805       51.012       25.365      392.253     2602.178      643.400        0.606        0.182       91.837       21.359        0.054      339.378       12.671      860.979
05/27/2013  09:03:00      -19.690       91.944       -5.441       26.806       20.832       19.397      718.579      433.978      376.257        0.520        0.076       94.029       10.519        0.013      339.504       12.884      860.971
05/27/2013  09:04:00      -60.983      101.992      -15.916       25.503       28.244       14.404      650.418      797.712      207.480        0.801        0.083      118.833        7.545        0.004      339.441       12.777      860.981
05/27/2013  09:05:00      -66.499       47.741       -6.386       20.854       32.041       18.754      434.899     1026.624      351.727        0.428        0.091       81.862       18.105        0.049      339.463       12.814      861.012
05/27/2013  09:06:00      -22.815       16.910       19.109       32.898       28.325       17.926     1082.276      802.327      321.344        0.169        0.110       28.398       22.052        0.603      339.901       13.551      861.033
05/27/2013  09:07:00      -73.744       52.683       -7.949       27.278       34.351       25.527      744.104     1179.993      651.604        0.543        0.129       90.630       18.390        0.041      339.340       12.606      861.028
05/27/2013  09:08:00      -28.062       33.270       -0.706       32.693       27.663       19.313     1068.838      765.216      372.993        0.205        0.110       43.524       20.645        0.225      339.649       13.128      861.009
05/27/2013  09:09:00       26.802        9.337        8.853       18.459       19.619       23.608      340.730      384.897      557.360        0.108        0.064       28.382       11.198        0.156      339.641       13.113      860.999
05/27/2013  09:10:00        9.531        1.458       18.522       13.072       17.958       18.384      170.875      322.475      337.983        0.063        0.042        9.642        5.441        0.318      339.933       13.606      860.983
05/27/2013  09:11:00        9.231       81.940       -4.182       21.861       47.245       23.373      477.911     2232.109      546.274        0.504        0.163       82.458       25.649        0.097      339.623       13.083      860.991
05/27/2013  09:12:00       15.249       46.250        9.480       23.454       44.259       20.555      550.077     1958.862      422.527        0.270        0.147       48.699       22.642        0.216      339.808       13.396      861.007
05/27/2013  09:13:00       54.268       32.927       15.847       60.824       47.322       28.172     3699.510     2239.326      793.635        0.551        0.337       63.476       14.921        0.055      339.798       13.379      861.028
05/27/2013  09:14:00       23.865       31.029       32.851       40.777       42.838       27.999     1662.739     1835.126      783.964        0.345        0.214       39.145       17.193        0.193      339.886       13.528      861.026
05/27/2013  09:15:00       59.035       32.537       -0.754       46.705       22.416       24.640     2181.349      502.480      607.141        0.392        0.165       67.407        9.840        0.021      339.663       13.152      861.051
05/27/2013  09:16:00       38.753       49.157        4.128       25.525       24.538       19.795      651.502      602.112      391.831        0.279        0.082       62.596       10.955        0.031      339.865       13.493      861.054
05/27/2013  09:17:00       22.176       51.702       -1.713       22.326       25.061       23.304      498.447      628.036      543.099        0.242        0.083       56.257       12.667        0.051      339.793       13.370      861.059
05/27/2013  09:18:00       37.222       95.041        6.503       43.623       48.968       34.566     1902.956     2397.905     1194.796        0.798        0.275      102.070       25.867        0.064      339.991       13.705      861.053
05/27/2013  09:19:00       41.332       80.490       -1.309       46.262       37.168       28.460     2140.147     1381.473      809.950        0.626        0.217       90.482       18.427        0.041      339.845       13.459      861.032
05/27/2013  09:20:00       29.218       43.139        9.810       29.594       36.950       23.744      875.793     1365.312      563.793        0.281        0.140       52.102       15.530        0.089      340.076       13.848      861.031
05/27/2013  09:21:00       -4.603        1.862       14.239       14.732       19.677       19.497      217.032      387.203      380.150        0.061        0.049        4.966       14.441        8.456      340.314       14.248      861.017
05/27/2013  09:22:00       49.285      -65.405        5.535       35.140       60.671       26.493     1234.806     3680.958      701.896        0.618        0.281       81.895       23.445        0.082      339.981       13.687      860.987
05/27/2013  09:23:00       47.201      -59.971       -1.720       27.636       32.948       26.893      763.772     1085.591      723.258        0.420        0.129       76.318       17.423        0.052      339.836       13.443      860.977
05/27/2013  09:24:00       37.024      -39.684        3.445       16.427       33.564       24.190      269.846     1126.520      585.167        0.247        0.099       54.273       19.457        0.129      339.792       13.369      860.985
05/27/2013  09:25:00       13.616      -62.109       -6.424       40.459       37.347       31.042     1636.969     1394.820      963.599        0.404        0.200       63.584       26.063        0.168      340.305       14.233      860.999
05/27/2013  09:26:00       11.482      -28.730       10.279       30.094       31.624       37.352      905.635     1000.054     1395.149        0.218        0.165       30.940       21.306        0.474      340.353       14.315      860.990
05/27/2013  09:27:00       18.861        2.888       23.143       32.917       33.469       24.451     1083.546     1120.200      597.838        0.185        0.140       19.080       27.204        2.033      340.428       14.442      860.989
05/27/2013  09:28:00      -13.844       19.143       22.809       19.241       21.052       17.077      370.218      443.187      291.608        0.109        0.055       23.625       10.005        0.179      340.341       14.295      860.964
05/27/2013  09:29:00      -40.316        9.048        9.630       18.356       19.150       18.334      336.957      366.719      336.124        0.142        0.052       41.318       15.035        0.132      340.055       13.811      860.945
05/27/2013  09:30:00      -55.261        5.090        6.091       30.684       19.686       19.197      941.512      387.543      368.525        0.241        0.085       55.495       15.299        0.076      340.187       14.035      860.919
05/27/2013  09:31:00      -77.782       11.483        2.004       17.578       19.606       11.922      308.976      384.386      142.136        0.351        0.042       78.625       10.711        0.019      339.618       13.076      860.898
05/27/2013  09:32:00      -29.800       43.621       17.199       28.199       31.119       23.028      795.203      968.421      530.270        0.269        0.115       52.828       11.735        0.049      340.204       14.064      860.884
05/27/2013  09:33:00       23.485       70.397       15.571       34.168       33.583       30.435     1167.452     1127.807      926.312        0.449        0.161       74.211       14.625        0.039      340.534       14.621      860.854
05/27/2013  09:34:00       33.131       47.208       21.331       40.564       33.740       34.980     1645.451     1138.367     1223.616        0.389        0.200       57.674       11.326        0.039      340.500       14.564      860.847
05/27/2013  09:35:00       60.670       63.405       -4.565       49.553       37.031       27.947     2455.475     1371.320      781.013        0.616        0.230       87.755       14.579        0.028      340.322       14.263      860.824
05/27/2013  09:36:00       64.027       47.204       19.576       54.952       24.794       31.104     3019.671      614.759      967.461        0.566        0.230       79.546       12.402        0.024      340.314       14.249      860.813
05/27/2013  09:37:00       88.962       62.265       20.477       52.462       38.783       33.044     2752.296     1504.157     1091.911        0.878        0.267      108.587       13.262        0.015      340.038       13.784      860.810
05/27/2013  09:38:00       71.875       29.969        6.511       40.078       25.945       28.047     1606.266      673.134      786.612        0.459        0.153       77.873       25.705        0.109      339.951       13.639      860.846
05/27/2013  09:39:00       31.903       31.944        0.001       19.869       23.242       18.318      394.772      540.202      335.540        0.165        0.064       45.147        6.808        0.023      339.979       13.684      860.853
05/27/2013  09:40:00       37.845       31.599       -6.225       30.693       26.406       21.421      942.073      697.288      458.858        0.228        0.105       49.303       16.985        0.119      340.139       13.953      860.826
05/27/2013  09:41:00       77.478       57.281        1.272       34.261       30.212       30.998     1173.803      912.771      960.860        0.617        0.152       96.353       22.123        0.053      340.238       14.120      860.782
05/27/2013  09:42:00       82.596       58.560       18.651       64.374       30.355       38.321     4143.972      921.425     1468.510        0.857        0.327      101.249       14.629        0.021      340.330       14.277      860.776
05/27/2013  09:43:00       76.907       49.655        6.812       25.441       22.911       28.274      647.257      524.892      799.422        0.520        0.099       91.544        9.765        0.011      339.913       13.572      860.783
05/27/2013  09:44:00       69.948       61.680       45.416       54.509       34.801       37.491     2971.227     1211.119     1405.599        0.817        0.279       93.258       19.667        0.044      340.203       14.061      860.785
05/27/2013  09:45:00       38.227       58.075       53.018       41.728       34.992       24.948     1741.263     1224.469      622.395        0.562        0.179       69.527       14.609        0.044      340.397       14.390      860.783
05/27/2013  09:46:00       69.334       42.970       12.318       38.863       49.097       31.732     1510.351     2410.514     1006.894        0.587        0.246       81.570       12.755        0.024      340.598       14.730      860.724
05/27/2013  09:47:00      -70.040      -98.334       -4.483       96.450       73.158       39.708     9302.662     5352.128     1576.698        1.541        0.812      120.727       36.178        0.090      340.528       14.610      860.724
05/27/2013  09:48:00      -86.931     -136.501        5.935      107.807       61.310       52.804    11622.246     3758.934     2788.223        2.219        0.908      161.832       45.736        0.080      340.563       14.669      860.725
05/27/2013  09:49:00     -209.826      -82.773       -7.305      165.738      100.694       53.074    27469.083    10139.232     2816.824        4.567        2.021      225.562       41.403        0.034      340.799       15.068      860.689
05/27/2013  09:50:00     -328.976      -66.979        0.340      122.047       96.749       59.300    14895.474     9360.427     3516.439        7.024        1.389      335.725       63.355        0.036      340.897       15.231      860.682
05/27/2013  09:51:00     -405.229     -114.751      -29.567      201.078      154.046       82.506    40432.179    23730.251     6807.283       12.460        3.548      421.163       90.747        0.046      340.849       15.150      860.567
05/27/2013  09:52:00     -433.948     -153.734       -5.845      150.291      104.531       60.182    22587.274    10926.708     3621.845       12.455        1.857      460.374       66.719        0.021      340.800       15.067      860.502
05/27/2013  09:53:00     -319.048      -29.209       -9.842      141.283      142.077       73.415    19960.958    20185.810     5389.759        7.413        2.277      320.382       74.022        0.053      340.947       15.317      860.478
05/27/2013  09:54:00     -298.171       -6.221      -19.906      126.680      123.146       60.895    16047.703    15165.023     3708.194        6.213        1.746      298.236       56.121        0.035      341.023       15.446      860.484
05/27/2013  09:55:00     -312.128      -35.097      -11.513      144.893      168.158       73.325    20994.050    28277.088     5376.627        7.671        2.732      314.095       65.412        0.043      341.075       15.531      860.489
05/27/2013  09:56:00     -178.445     -129.934        0.301      115.751      119.793       53.063    13398.249    14350.357     2815.719        3.964        1.528      220.739       60.379        0.075      341.143       15.648      860.498
05/27/2013  09:57:00      -77.041       52.100        7.228       86.189       82.753       43.718     7428.560     6848.047     1911.222        1.244        0.809       93.004       35.693        0.147      341.260       15.847      860.464
05/27/2013  09:58:00       -7.932      -87.785       -1.420       85.280       83.327       46.420     7272.624     6943.464     2154.832        1.207        0.819       88.143       49.700        0.318      341.230       15.797      860.493
05/27/2013  09:59:00      -97.405      -57.760       15.680      115.898       53.205       35.800    13432.314     2830.739     1281.659        1.530        0.877      113.243       39.403        0.121      341.171       15.698      860.502
05/27/2013  10:00:00     -288.227     -100.976       -5.657      109.189       83.557       53.879    11922.266     6981.853     2902.904        5.755        1.090      305.403       56.250        0.034      340.882       15.205      860.472
05/27/2013  10:01:00     -281.933      -68.996      -11.848       67.353       80.686       45.605     4536.362     6510.204     2079.779        4.875        0.656      290.252       32.297        0.012      340.831       15.118      860.383
05/27/2013  10:02:00     -233.846       17.685      -20.497       79.299       53.594       38.949     6288.360     2872.357     1517.048        3.305        0.534      234.513       40.070        0.029      340.917       15.267      860.355
05/27/2013  10:03:00     -103.607      105.844       -8.724       59.205       91.660       38.346     3505.239     8401.611     1470.385        1.769        0.669      148.112       33.166        0.050      341.014       15.432      860.307
05/27/2013  10:04:00     -183.279      -26.982       -7.112      107.357      100.695       40.050    11525.486    10139.412     1604.003        2.882        1.163      185.255       25.331        0.019      341.034       15.465      860.295
05/27/2013  10:05:00     -145.471      -43.904       -0.068      138.363       55.936       37.454    19144.300     3128.886     1402.809        2.338        1.184      151.952       50.949        0.112      341.176       15.706      860.265
05/27/2013  10:06:00      -58.283       31.631        6.921       49.276       55.525       31.351     2428.094     3083.004      982.884        0.547        0.325       66.313       20.909        0.099      341.220       15.782      860.256
05/27/2013  10:07:00      -87.390      -39.916        4.732       62.626       63.893       27.937     3921.985     4082.307      780.504        0.902        0.439       96.075       22.325        0.054      341.291       15.902      860.218
05/27/2013  10:08:00     -104.009       -7.946      -16.373       68.542       29.109       18.749     4698.056      847.312      351.541        0.852        0.295      104.312       12.761        0.015      341.073       15.533      860.212
05/27/2013  10:09:00        0.157        4.413       12.799       38.960       19.336       28.347     1517.902      373.867      803.573        0.144        0.135        4.415       27.340       38.340      341.354       16.008      860.163
05/27/2013  10:10:00      -31.993      -12.196       -4.802       30.897       37.913       22.936      954.605     1437.414      526.079        0.206        0.146       34.239       18.686        0.298      341.267       15.863      860.151
05/27/2013  10:11:00        1.999      -34.553        9.028       52.334       31.861       31.228     2738.870     1015.112      975.202        0.300        0.236       34.611       20.170        0.340      341.334       15.976      860.163
05/27/2013  10:12:00      -42.897     -151.788      -21.880       91.386      113.323       42.908     8351.423    12842.037     1841.123        2.419        1.152      157.733       29.783        0.036      341.299       15.916      860.170
05/27/2013  10:13:00     -380.901     -294.798      -23.378      188.700      128.254       74.465    35607.539    16449.124     5545.098       14.506        2.880      481.654       75.801        0.025      340.948       15.318      860.180
05/27/2013  10:14:00     -259.837      -70.756       11.302      161.163      108.536       58.001    25973.585    11780.014     3364.147        5.688        2.056      269.298       58.827        0.048      341.019       15.438      860.126
05/27/2013  10:15:00     -185.747      -56.806        0.084       85.156       81.545       44.524     7251.542     6649.526     1982.385        2.680        0.794      194.239       39.211        0.041      341.057       15.503      860.155
05/27/2013  10:16:00     -100.666     -106.461       11.791       88.839       84.632       42.885     7892.335     7162.537     1839.157        1.925        0.845      146.518       37.307        0.065      341.154       15.668      860.206
05/27/2013  10:17:00     -170.960     -195.676       10.424      133.204      101.072       64.414    17743.395    10215.604     4149.211        4.986        1.605      259.839       59.387        0.052      341.086       15.552      860.243
05/27/2013  10:18:00     -121.869      -98.045        1.505       79.238       90.168       32.984     6278.740     8130.212     1087.956        1.998        0.775      156.413       26.916        0.030      340.963       15.345      860.241
05/27/2013  10:19:00       -0.689       48.636       12.954       66.401       26.130       35.724     4409.075      682.780     1276.204        0.445        0.318       48.641       15.990        0.108      341.191       15.732      860.202
05/27/2013  10:20:00      -64.041       24.611       14.931       96.490       35.127       40.690     9310.287     1233.897     1655.646        0.856        0.610       68.607       56.388        0.676      341.280       15.882      860.198
05/27/2013  10:21:00     -197.432       81.553      -31.733      127.828      105.694       52.659    16339.945    11171.172     2772.929        3.846        1.514      213.612       74.242        0.121      341.159       15.678      860.179
05/27/2013  10:22:00     -148.342       87.668      -30.736       73.125       80.983       48.608     5347.257     6558.276     2362.715        2.245        0.713      172.311       37.502        0.047      341.216       15.773      860.132
05/27/2013  10:23:00     -170.305       33.007       -3.278       72.156       68.079       35.157     5206.546     4634.700     1236.013        2.059        0.554      173.474       32.151        0.034      341.256       15.841      860.100
05/27/2013  10:24:00      -90.914      -70.485        4.405       93.823       70.113       42.955     8802.831     4915.839     1845.117        1.441        0.778      115.037       36.502        0.101      341.416       16.113      860.099
05/27/2013  10:25:00       31.608     -109.389       -6.188       57.187       69.459       35.349     3270.302     4824.602     1249.578        1.117        0.467      113.864       28.279        0.062      341.586       16.402      860.124
05/27/2013  10:26:00       70.670      -69.552       14.450       65.597       91.079       61.081     4302.947     8295.325     3730.829        1.318        0.816       99.155       69.993        0.498      341.595       16.417      860.120
05/27/2013  10:27:00      -30.415      -65.687       -6.860       46.999       50.284       30.136     2208.950     2528.524      908.166        0.547        0.282       72.387       25.062        0.120      341.637       16.488      860.110
05/27/2013  10:28:00     -100.739     -118.275       -4.670       81.836       73.311       41.716     6697.123     5374.543     1740.218        1.898        0.691      155.362       45.447        0.086      341.649       16.507      860.131
05/27/2013  10:29:00     -145.119     -154.530       -0.971      101.540       87.920       44.060    10310.431     7729.989     1941.251        3.246        0.999      211.988       28.254        0.018      341.634       16.480      860.130
05/27/2013  10:30:00     -120.104      -69.538        6.592       61.215       72.290       34.575     3747.242     5225.838     1195.436        1.473        0.508      138.782       37.325        0.072      341.482       16.225      860.143
05/27/2013  10:31:00     -129.952      -99.915      -12.129       96.098       68.609       35.341     9234.789     4707.191     1248.992        2.110        0.760      163.922       36.447        0.049      341.482       16.223      860.164
05/27/2013  10:32:00      -85.248     -136.268        2.024       84.501      101.066       33.229     7140.352    10214.251     1104.184        2.215        0.923      160.736       42.756        0.071      341.160       15.679      860.169
05/27/2013  10:33:00      -98.988      -51.568        3.168       99.438       55.392       42.303     9887.918     3068.316     1789.521        1.360        0.737      111.615       37.263        0.111      341.537       16.318      860.129
05/27/2013  10:34:00     -101.950      -90.205       -9.824       71.926       64.677       44.739     5173.421     4183.147     2001.603        1.499        0.568      136.127       48.008        0.124      341.464       16.194      860.136
05/27/2013  10:35:00      -34.004      -42.953      -13.015       30.511       33.919       22.357      930.932     1150.481      499.813        0.288        0.129       54.784       15.911        0.084      341.413       16.107      860.116
05/27/2013  10:36:00      -14.329      -27.976       11.099       31.977       48.621       31.083     1022.539     2364.022      966.137        0.273        0.218       31.432        7.623        0.059      341.715       16.621      860.100
05/27/2013  10:37:00       50.900      -18.774       18.489       63.230      130.072       55.562     3998.022    16918.755     3087.153        1.364        1.200       54.252       51.624        0.905      341.708       16.607      860.092
05/27/2013  10:38:00       53.890       80.504       21.128       58.805       42.135       25.916     3458.084     1775.380      671.645        0.787        0.295       96.876       18.544        0.037      341.374       16.042      860.101
05/27/2013  10:39:00       26.152       23.604       12.792       70.889      100.136       39.186     5025.295    10027.287     1535.509        0.899        0.829       35.228       38.531        1.196      341.565       16.365      860.097
05/27/2013  10:40:00      -33.485      -40.630       27.272       90.491       79.677       50.564     8188.657     6348.352     2556.711        1.030        0.855       52.650       48.269        0.840      341.698       16.591      860.079
05/27/2013  10:41:00     -107.877     -134.020       26.050      150.488      109.127       73.171    22646.681    11908.774     5354.020        3.509        1.995      172.043       61.479        0.128      341.460       16.185      860.098
05/27/2013  10:42:00      -87.959     -151.453       -2.424      115.366      113.817       54.840    13309.370    12954.319     3007.445        2.997        1.464      175.142       43.887        0.063      341.291       15.900      860.113
05/27/2013  10:43:00     -317.087       21.945      -24.364      190.647       84.125       59.718    36346.340     7076.981     3566.246        7.430        2.349      317.846       76.865        0.058      341.251       15.831      860.141
05/27/2013  10:44:00     -311.820     -119.887       -8.961      139.562       91.413       72.835    19477.497     8356.374     5304.910        7.241        1.657      334.073       81.305        0.059      341.360       16.014      860.079
05/27/2013  10:45:00     -225.604      -62.214      -13.885      111.985       85.836       40.871    12540.663     7367.842     1670.407        3.827        1.079      234.025       29.937        0.016      341.587       16.400      860.059
05/27/2013  10:46:00     -320.754       23.876      -20.898      221.480      106.268       66.223    49053.409    11292.971     4385.536        8.430        3.237      321.641       86.038        0.072      341.675       16.551      860.029
05/27/2013  10:47:00     -411.440      -75.018      -26.331      127.606       87.375       56.717    16283.336     7634.454     3216.795       10.136        1.357      418.223       54.809        0.017      341.617       16.449      860.013
05/27/2013  10:48:00     -357.021       -3.631      -21.138      161.864      111.936       61.901    26200.103    12529.708     3831.710        8.524        2.128      357.040       76.675        0.046      341.839       16.826      859.991
05/27/2013  10:49:00     -137.289     -113.333        5.975      127.693      102.537       54.476    16305.442    10513.839     2967.633        3.075        1.489      178.024       44.681        0.063      342.058       17.199      860.011
05/27/2013  10:50:00     -203.273      -70.661        7.338      132.318      127.639       60.037    17508.135    16291.653     3604.412        4.188        1.870      215.204       50.598        0.055      342.008       17.116      859.989
05/27/2013  10:51:00     -346.543      -93.540       -6.309      180.138      118.806       78.855    32449.842    14114.853     6218.098        9.082        2.639      358.945       95.576        0.071      341.665       16.531      859.962
05/27/2013  10:52:00     -290.931     -155.872      -15.362      171.163      117.934       62.553    29296.869    13908.488     3912.908        7.814        2.356      330.056       66.240        0.040      341.805       16.770      859.938
05/27/2013  10:53:00     -349.209     -202.420      -13.607      133.048      107.525       61.437    17701.684    11561.680     3774.532        9.807        1.652      403.635       65.440        0.026      341.645       16.497      859.951
05/27/2013  10:54:00      -79.735     -179.730       24.270      100.616       95.584       55.696    10123.579     9136.236     3102.096        3.080        1.118      196.623       58.626        0.089      341.681       16.559      859.954
05/27/2013  10:55:00     -125.333      -42.583       -5.882       81.044       40.959       33.456     6568.170     1677.639     1119.331        1.346        0.468      132.369       37.383        0.080      341.759       16.694      859.887
05/27/2013  10:56:00     -138.517      -71.145       16.911      136.885       51.017       65.538    18737.500     2602.700     4295.228        2.508        1.282      155.720       78.672        0.255      341.745       16.669      859.861
05/27/2013  10:57:00     -313.815     -136.041      -21.228      152.963       87.607       43.313    23397.770     7674.989     1876.056        7.519        1.647      342.033       44.403        0.017      341.692       16.579      859.848
05/27/2013  10:58:00     -507.963      -94.077      -27.272      155.014      154.614       75.693    24029.332    23905.512     5729.486       16.063        2.683      516.601       76.441        0.022      341.769       16.709      859.842
05/27/2013  10:59:00     -381.169     -131.175      -16.739      170.288      190.788       83.429    28997.848    36400.169     6960.430       11.756        3.618      403.108       93.797        0.054      341.860       16.863      859.830
05/27/2013  11:00:00     -351.124      -76.383      -13.578      106.903      121.506       61.559    11428.239    14763.811     3789.520        7.964        1.499      359.336       48.470        0.018      341.833       16.816      859.793
05/27/2013  11:01:00     -420.820       45.949      -19.863      276.168      189.295       93.728    76268.814    35832.475     8784.920       15.022        6.044      423.321      120.081        0.080      341.899       16.929      859.682
05/27/2013  11:02:00     -782.477       76.837      -60.732      262.145      231.656      111.255    68720.142    53664.411    12377.761       37.829        6.738      786.241      112.329        0.020      341.783       16.731      859.549
05/27/2013  11:03:00     -661.150      -45.706      -43.936      226.132      173.752      101.623    51135.563    30189.744    10327.306       26.638        4.583      662.728      112.279        0.029      341.865       16.871      859.506
05/27/2013  11:04:00     -388.308      -97.562      -26.705      152.078      131.536       82.971    23127.833    17301.679     6884.219       10.416        2.366      400.376       75.491        0.036      342.058       17.199      859.648
05/27/2013  11:05:00     -333.928     -102.717        0.099      170.006      153.407       66.983    28902.101    23533.749     4486.711        8.948        2.846      349.369       59.068        0.029      342.132       17.325      859.702
05/27/2013  11:06:00     -411.122     -195.566      -18.701      142.901       92.464       62.791    20420.626     8549.643     3942.660       12.026        1.646      455.266       66.123        0.021      341.839       16.826      859.689
05/27/2013  11:07:00     -240.299     -133.344      -10.783      121.315       91.493       61.025    14717.351     8371.039     3724.080        5.122        1.341      274.817       65.229        0.056      341.870       16.879      859.661
05/27/2013  11:08:00     -113.165     -119.918        4.396      112.444       67.968       48.259    12643.670     4619.705     2328.962        2.340        0.980      164.883       42.733        0.067      342.110       17.289      859.753
05/27/2013  11:09:00     -105.773     -162.169        1.312      106.890       82.631       62.341    11425.436     6827.962     3886.353        2.981        1.107      193.615       54.820        0.080      341.844       16.837      859.772
05/27/2013  11:10:00      -44.961      -94.979      -12.645       52.490       78.598       39.959     2755.241     6177.673     1596.689        1.086        0.526      105.083       37.957        0.130      342.068       17.218      859.761
05/27/2013  11:11:00       10.621      -25.529       30.497       74.579       58.355       40.320     5561.996     3405.253     1625.724        0.614        0.530       27.650       45.865        2.752      342.378       17.745      859.787
05/27/2013  11:12:00     -100.154      -63.336       -0.174       93.644       70.583       45.970     8769.241     4981.905     2113.213        1.495        0.793      118.500       34.311        0.084      342.155       17.365      859.773
05/27/2013  11:13:00     -110.658      -19.536        2.495      107.538       62.145       36.328    11564.514     3861.994     1319.747        1.469        0.837      112.369       47.668        0.180      342.244       17.517      859.798
05/27/2013  11:14:00     -354.751        7.758       -7.580      145.884       95.206       65.398    21282.227     9064.212     4276.841        8.029        1.731      354.836       57.093        0.026      341.732       16.645      859.794
05/27/2013  11:15:00     -217.926      -26.255       18.437      117.923      102.786       53.066    13905.743    10565.010     2815.991        3.790        1.364      219.502       58.193        0.070      341.787       16.739      859.757
05/27/2013  11:16:00      -88.873      -96.070       16.944      103.922       78.820       48.654    10799.757     6212.571     2367.256        1.839        0.969      130.873       50.514        0.149      341.787       16.743      859.751
05/27/2013  11:17:00     -119.839      -70.713        0.703       73.229       60.733       32.260     5362.470     3688.499     1040.731        1.473        0.505      139.146       17.524        0.016      341.820       16.796      859.715
05/27/2013  11:18:00      -85.272      -71.875       26.547       90.446       76.790       41.416     8180.499     5896.666     1715.272        1.446        0.790      111.523       43.084        0.149      342.010       17.118      859.698
05/27/2013  11:19:00     -158.527      -95.999       14.044      111.648       74.244       44.735    12465.260     5512.230     2001.232        2.726        0.999      185.329       46.324        0.062      341.978       17.065      859.696
05/27/2013  11:20:00      -12.196     -101.255        7.024      134.274      103.224       54.121    18029.485    10655.178     2929.134        2.103        1.581      101.986       50.597        0.246      342.038       17.165      859.697
05/27/2013  11:21:00       27.358     -179.611       -8.307       95.563       75.065       57.548     9132.265     5634.718     3311.749        2.558        0.904      181.682       25.656        0.020      341.793       16.752      859.744
05/27/2013  11:22:00       -6.871     -112.734        5.555      103.071      100.077       53.607    10623.638    10015.385     2873.720        1.815        1.176      112.943       52.564        0.217      341.858       16.861      859.774
05/27/2013  11:23:00       -4.223     -285.535       -8.369      106.522      136.585       64.715    11346.884    18655.437     4187.979        5.790        1.710      285.567       62.875        0.048      341.541       16.322      859.759
05/27/2013  11:24:00       -4.437     -102.411        6.698       73.624       67.339       50.082     5420.449     4534.553     2508.240        1.151        0.623      102.507       38.310        0.140      341.693       16.582      859.683
05/27/2013  11:25:00      -70.000      -86.930        2.801       84.300       77.821       47.830     7106.520     6056.129     2287.705        1.395        0.773      111.610       44.225        0.157      341.855       16.857      859.727
05/27/2013  11:26:00     -178.114      -99.657       -1.798      109.897       76.491       45.379    12077.389     5850.902     2059.279        3.082        0.999      204.098       43.093        0.045      341.773       16.717      859.742
05/27/2013  11:27:00     -124.240     -134.017        1.079       97.860       82.016       54.767     9576.498     6726.568     2999.429        2.635        0.965      182.746       55.564        0.092      341.742       16.665      859.738
05/27/2013  11:28:00     -196.738      -83.593       13.857      162.871       93.498       62.016    26527.013     8741.840     3845.954        4.249        1.956      213.760       74.221        0.121      341.881       16.899      859.675
05/27/2013  11:29:00     -140.137     -121.193        7.467      129.680       85.319       47.871    16816.818     7279.348     2291.586        3.038        1.319      185.273       49.262        0.071      341.950       17.016      859.703
05/27/2013  11:30:00     -335.746     -270.708       -6.537      174.163      195.659       90.373    30332.595    38282.601     8167.317       13.140        3.839      431.287       82.980        0.037      341.851       16.848      859.737
05/27/2013  11:31:00     -268.560     -162.474      -14.332      146.574      139.718       62.133    21483.974    19521.114     3860.451        7.179        2.243      313.883       68.109        0.047      341.879       16.894      859.732
05/27/2013  11:32:00     -270.329     -160.924        0.700      178.034      102.872       67.533    31696.105    10582.685     4560.639        7.290        2.342      314.601       73.812        0.055      341.905       16.940      859.730
05/27/2013  11:33:00     -303.663     -210.022      -10.841      176.899      135.670       77.931    31293.293    18406.384     6073.259        9.610        2.789      369.216       81.087        0.048      341.868       16.878      859.702
05/27/2013  11:34:00     -194.901     -126.684       16.156      163.439      110.344       71.408    26712.381    12175.711     5099.137        4.913        2.199      232.455       72.082        0.096      341.940       16.998      859.688
05/27/2013  11:35:00     -187.039     -160.628       -1.846      112.650      111.039       50.693    12689.952    12329.762     2569.749        4.418        1.379      246.546       41.975        0.029      341.951       17.017      859.689
05/27/2013  11:36:00     -108.109     -115.658       18.597      164.416      144.763       90.389    27032.730    20956.222     8170.245        4.078        2.808      158.317       90.863        0.329      341.976       17.061      859.689
05/27/2013  11:37:00     -226.986     -141.264        7.311      203.467      194.373       99.555    41398.783    37781.022     9911.151        8.030        4.455      267.354      117.563        0.193      341.810       16.779      859.666
05/27/2013  11:38:00     -140.290      -72.577       19.445      169.832      123.958       68.919    28842.917    15365.696     4749.788        3.713        2.448      157.952       67.709        0.184      341.908       16.944      859.645
05/27/2013  11:39:00     -345.453      -94.593      -14.888      254.010      125.788       86.754    64520.875    15822.545     7526.262       10.817        4.393      358.170      110.495        0.095      341.841       16.830      859.669
05/27/2013  11:40:00     -398.084     -196.558      -22.001      225.139      136.553       78.606    50687.635    18646.778     6178.909       13.654        3.776      443.966       98.088        0.049      341.791       16.746      859.699
05/27/2013  11:41:00     -449.589     -213.902      -12.077      258.728      236.079      105.745    66940.106    55733.275    11182.024       19.092        6.693      497.879      125.822        0.064      341.726       16.636      859.716
05/27/2013  11:42:00     -368.135     -409.755       -4.577      236.392      206.539      119.323    55881.064    42658.177    14238.066       20.809        5.639      550.838      132.675        0.058      341.664       16.531      859.712
05/27/2013  11:43:00     -460.142     -240.241      -11.199      240.438      168.042       90.962    57810.649    28238.155     8274.026       18.193        4.716      519.082       98.976        0.036      341.705       16.601      859.738
05/27/2013  11:44:00     -441.546     -102.240      -14.742      234.262      185.975      101.243    54878.821    34586.859    10250.210       15.266        4.986      453.228      110.234        0.059      341.633       16.479      859.760
05/27/2013  11:45:00     -362.714     -160.337        1.199      255.888      183.279       90.250    65478.617    33591.301     8145.028       13.222        5.361      396.572       95.559        0.058      341.642       16.493      859.740
05/27/2013  11:46:00     -317.795     -169.487      -19.609      200.099      158.636       85.050    40039.464    25165.314     7233.578       10.126        3.622      360.166       81.562        0.051      341.712       16.613      859.746
05/27/2013  11:47:00     -378.015      -23.648      -17.958      193.809      138.165       77.765    37561.749    19089.478     6047.356       10.323        3.135      378.754       94.515        0.062      341.727       16.638      859.770
05/27/2013  11:48:00     -408.688     -203.298       -1.064      271.444      195.452      104.344    73682.085    38201.433    10887.765       16.554        6.139      456.461      106.639        0.055      341.695       16.583      859.800
05/27/2013  11:49:00     -239.395     -184.266       25.349      277.202      211.387      133.650    76841.177    44684.494    17862.399       11.562        6.969      302.099      158.560        0.275      341.643       16.494      859.791
05/27/2013  11:50:00     -223.660      -88.137       14.108      212.126      147.405       85.908    44997.265    21728.343     7380.189        6.604        3.705      240.400       98.295        0.167      341.717       16.621      859.795
05/27/2013  11:51:00     -513.779     -186.858        7.180      274.163      236.686      131.814    75165.452    56020.407    17374.809       22.372        7.428      546.703      131.280        0.058      341.532       16.307      859.812
05/27/2013  11:52:00     -566.429     -391.598       -7.979      342.843      236.374      154.434   117540.991    55872.817    23849.915       33.573        9.863      688.615      195.435        0.081      341.536       16.313      859.793
05/27/2013  11:53:00     -487.498     -247.826      -34.841      212.075      146.345       88.145    44975.604    21416.771     7769.609       18.721        3.708      546.875       96.077        0.031      341.555       16.346      859.869
05/27/2013  11:54:00     -608.024     -278.453      -39.398      279.423      259.582      107.812    78077.192    67382.577    11623.415       30.291        7.854      668.751      112.995        0.029      341.522       16.290      859.893
05/27/2013  11:55:00     -354.658     -160.814      -21.927      235.885      175.816       97.881    55641.546    30911.389     9580.642       12.411        4.807      389.414      106.943        0.075      341.467       16.197      859.913
05/27/2013  11:56:00     -339.307     -139.824       -9.222      196.882      118.097       90.279    38762.511    13946.887     8150.249        9.780        3.043      366.988       90.043        0.060      341.501       16.254      859.895
05/27/2013  11:57:00     -301.618      -18.783       -5.857      255.726      203.322      102.899    65395.924    41339.941    10588.153       10.432        5.866      302.202       94.786        0.098      341.452       16.172      859.855
05/27/2013  11:58:00     -321.770       59.507        4.033      219.127      120.456       88.487    48016.688    14509.765     7829.883        8.871        3.518      327.226      106.594        0.106      341.519       16.285      859.837
05/27/2013  11:59:00     -340.349       21.161      -12.296      219.941      144.786       85.422    48374.059    20962.868     7296.874        9.652        3.832      341.006       90.813        0.071      341.584       16.394      859.826
05/27/2013  12:00:00     -509.969      -33.969      -22.856      283.693      191.696       95.604    80481.725    36747.223     9140.147       19.404        6.318      511.099       97.406        0.036      341.394       16.073      859.799
05/27/2013  12:01:00     -403.116     -196.858       -0.564      286.337      168.938      116.671    81988.794    28540.045    13612.139       16.268        6.207      448.615      132.187        0.087      341.251       15.831      859.784
05/27/2013  12:02:00     -397.744      -58.812      -14.512      184.051      158.167       60.877    33874.704    25016.843     3706.067       11.222        3.130      402.069       61.505        0.023      341.329       15.963      859.801
05/27/2013  12:03:00     -514.601     -152.948      -18.864      245.302      178.540       83.157    60173.168    31876.407     6915.030       19.375        4.948      536.850       80.617        0.023      341.417       16.111      859.819
05/27/2013  12:04:00     -508.878     -126.426       -3.975      228.755      192.787      107.249    52328.711    37166.845    11502.357       18.796        5.050      524.348      106.964        0.042      341.418       16.112      859.855
05/27/2013  12:05:00     -518.917     -205.234      -15.958      302.233      211.129      119.702    91344.565    44575.437    14328.562       23.092        7.512      558.029      151.581        0.074      341.374       16.038      859.912
05/27/2013  12:06:00     -402.636     -215.927       15.921      344.364      273.820      143.926   118586.337    74977.239    20714.568       21.160       10.714      456.881      182.323        0.159      341.272       15.866      859.928
05/27/2013  12:07:00     -453.339     -360.625       -9.087      237.836      244.413      134.884    56565.782    59737.861    18193.820       23.505        6.725      579.281      154.773        0.071      341.198       15.741      859.937
05/27/2013  12:08:00     -367.884     -271.043       -2.679      297.163      211.215      123.248    88305.799    44611.951    15190.139       17.843        7.405      456.949      151.341        0.110      341.261       15.848      859.922
05/27/2013  12:09:00     -418.917     -150.576        6.067      340.118      187.280      112.879   115680.307    35073.978    12741.755       18.082        8.175      445.157      161.560        0.132      341.284       15.886      859.972
05/27/2013  12:10:00     -384.618     -125.114       -1.510      245.396      193.948      105.169    60219.131    37615.867    11060.545       13.622        5.445      404.456      130.734        0.104      341.267       15.860      860.004
05/27/2013  12:11:00     -424.782     -311.787      -17.650      262.106      290.721      125.494    68699.330    84518.949    15748.831       22.344        8.448      526.926      150.008        0.081      341.247       15.824      859.988
05/27/2013  12:12:00     -415.510     -111.579      -15.075      204.539      174.936       95.732    41836.181    30602.674     9164.668       13.345        4.080      430.231      100.605        0.055      341.246       15.822      860.009
05/27/2013  12:13:00     -252.268     -173.314       18.904      264.702      172.287      109.382    70067.384    29682.677    11964.521       10.286        5.586      306.067      132.116        0.186      341.269       15.862      860.028
05/27/2013  12:14:00     -459.765      -61.516        4.077      260.636      154.422       84.919    67931.188    23846.154     7211.231       15.707        4.949      463.862       97.362        0.044      341.271       15.865      860.072
05/27/2013  12:15:00     -422.225      -59.770      -30.852      191.254      172.185       66.162    36577.915    29647.799     4377.435       12.669        3.530      426.434       67.301        0.025      341.272       15.867      860.118
05/27/2013  12:16:00     -672.213     -114.206      -36.313      322.639      260.890      112.899   104095.723    68063.501    12746.098       32.554        9.245      681.845      145.903        0.046      341.171       15.694      860.109
05/27/2013  12:17:00     -262.004     -223.494        2.494      239.259      166.604      114.214    57244.691    27756.729    13044.874       10.831        4.902      344.377      133.999        0.151      341.280       15.880      860.091
05/27/2013  12:18:00     -299.389     -162.761       -0.556      199.142      159.015       79.555    39657.521    25285.929     6328.919        9.369        3.564      340.771       89.624        0.069      341.265       15.857      860.062
05/27/2013  12:19:00     -392.832     -240.617        4.060      268.192      198.440      108.400    71927.201    39378.292    11750.663       16.762        6.153      460.667      120.353        0.068      341.197       15.738      860.067
05/27/2013  12:20:00     -441.698     -164.560        9.902      242.550      223.879      101.000    58830.454    50121.837    10200.913       17.069        5.958      471.356      104.411        0.049      341.116       15.601      860.040
05/27/2013  12:21:00     -685.558     -286.367      -46.553      304.226      247.152      137.695    92553.308    61084.178    18959.907       36.335        8.630      742.964      131.194        0.031      341.021       15.442      860.057
05/27/2013  12:22:00     -643.119      -88.835      -31.193      225.748      163.176      102.048    50962.256    26626.268    10413.890       25.522        4.400      649.225       93.175        0.021      340.980       15.373      860.091
05/27/2013  12:23:00     -556.215     -246.443      -33.524      245.654      216.950       96.333    60345.785    47067.180     9279.987       24.394        5.835      608.366      107.064        0.031      341.025       15.448      860.117
05/27/2013  12:24:00     -415.424     -192.793      -10.117      226.167      153.262       87.053    51151.531    23489.148     7578.213       14.602        4.111      457.981       87.622        0.037      341.057       15.503      860.137
05/27/2013  12:25:00     -363.996     -110.094      -19.361      219.588      146.994       86.169    48219.009    21607.144     7425.026       11.111        3.863      380.281      101.386        0.071      341.155       15.668      860.135
05/27/2013  12:26:00     -453.860      -94.549      -21.650      253.545      178.687       92.062    64284.836    31929.139     8475.450       16.003        5.234      463.604      111.136        0.057      341.100       15.574      860.140
05/27/2013  12:27:00     -355.996     -188.023        0.623      230.652      164.153       95.628    53200.203    26946.299     9144.735       12.567        4.465      402.599      112.123        0.078      341.103       15.580      860.142
05/27/2013  12:28:00     -295.793     -174.658        7.360      227.918      158.575      103.531    51946.736    25146.143    10718.722       10.292        4.391      343.510       97.491        0.081      341.187       15.723      860.141
05/27/2013  12:29:00     -503.530     -238.347      -12.275      216.453      180.406      102.728    46851.903    32546.333    10553.100       20.021        4.498      557.093      109.885        0.039      341.079       15.539      860.191
05/27/2013  12:30:00     -238.977      -29.218       18.204      193.006      176.490       81.448    37251.402    31148.586     6633.735        6.665        3.752      240.756       91.519        0.144      341.083       15.548      860.212
05/27/2013  12:31:00     -557.945     -353.582      -14.661      312.478      236.987      128.405    97642.219    56162.644    16487.840       30.339        8.515      660.547      147.183        0.050      340.924       15.278      860.228
05/27/2013  12:32:00     -360.296     -248.099       15.392      267.804      201.008      116.415    71719.053    40404.022    13552.422       15.862        6.284      437.454      130.452        0.089      340.978       15.370      860.206
05/27/2013  12:33:00     -258.014      -79.722      -18.349      197.281      160.611       78.484    38919.754    25795.787     6159.711        7.206        3.544      270.050       75.393        0.078      341.067       15.522      860.249
05/27/2013  12:34:00     -481.317     -176.335      -20.997      348.366      182.592      113.061   121358.780    33339.953    12782.806       21.531        8.374      512.601      144.345        0.079      340.907       15.248      860.234
05/27/2013  12:35:00     -522.611      -99.113      -40.489      246.156      185.190      104.761    60593.002    34295.422    10974.825       19.521        5.293      531.926      118.276        0.049      340.845       15.143      860.226
05/27/2013  12:36:00     -532.847      -56.312      -25.768      277.265      194.449      101.444    76875.651    37810.532    10290.921       20.635        6.249      535.815      133.308        0.062      340.865       15.178      860.215
05/27/2013  12:37:00     -442.759     -271.226      -13.269      216.327      149.427      108.546    46797.573    22328.296    11782.337       17.533        4.045      519.229      109.808        0.045      340.830       15.118      860.247
05/27/2013  12:38:00     -488.207     -249.664       -3.429      284.847      195.949      108.903    81137.773    38395.864    11859.792       21.602        6.570      548.341      117.465        0.046      340.816       15.095      860.261
05/27/2013  12:39:00     -489.722     -208.700       -1.904      315.630      200.225      131.309    99622.266    40090.021    17241.941       22.014        7.848      532.338      147.960        0.077      340.871       15.187      860.244
05/27/2013  12:40:00     -463.845     -180.467       -6.428      259.690      216.469      104.907    67438.848    46858.744    11005.500       18.651        6.265      497.715      122.196        0.060      340.867       15.180      860.292
05/27/2013  12:41:00     -361.847     -191.175        1.684      248.047      188.883      119.624    61527.386    35676.930    14309.852       13.948        5.576      409.245      137.353        0.113      340.851       15.153      860.289
05/27/2013  12:42:00     -361.110     -122.137       -7.192      231.964      195.794       88.713    53807.206    38335.111     7869.974       12.267        5.001      381.206       92.184        0.058      340.912       15.256      860.310
05/27/2013  12:43:00     -327.609     -202.667       -2.697      254.355      196.733      101.984    64696.519    38703.748    10400.642       13.109        5.690      385.229      128.020        0.110      340.855       15.160      860.319
05/27/2013  12:44:00     -290.475     -151.652       -7.803      203.480      173.341       82.928    41404.247    30047.103     6877.034        9.287        3.916      327.680      101.716        0.096      340.886       15.213      860.253
05/27/2013  12:45:00     -388.875     -191.253      -27.321      184.697      167.136       75.829    34113.123    27934.498     5750.036       12.816        3.390      433.360       92.238        0.045      340.854       15.158      860.299
05/27/2013  12:46:00     -210.287      -23.360       17.933      154.246      121.112       78.080    23791.798    14668.230     6096.493        4.481        2.228      211.581       87.872        0.172      341.012       15.427      860.349
05/27/2013  12:47:00     -567.144      -75.535      -23.965      225.562      198.684      103.076    50878.142    39475.502    10624.638       21.444        5.049      572.151      119.241        0.043      340.682       14.867      860.351
05/27/2013  12:48:00     -665.813     -157.977      -20.588      331.078      234.008      111.925   109612.960    54759.852    12527.263       32.276        8.845      684.298      124.853        0.033      340.495       14.552      860.336
05/27/2013  12:49:00     -558.204     -174.019      -13.475      266.549      178.942       93.166    71048.536    32020.232     8679.966       22.688        5.587      584.700      124.782        0.046      340.539       14.625      860.304
05/27/2013  12:50:00     -490.743     -227.161      -34.927      211.035      160.512       86.159    44535.596    25764.260     7423.414       18.567        3.886      540.769       70.784        0.017      340.571       14.681      860.401
05/27/2013  12:51:00     -234.699     -165.551      -12.321      163.884      137.835       82.742    26858.084    18998.591     6846.178        6.766        2.635      287.212       88.510        0.095      340.627       14.776      860.393
05/27/2013  12:52:00     -227.503      -69.406       -9.600      142.768      115.050       50.200    20382.703    13236.411     2520.083        4.640        1.807      237.855       35.354        0.022      340.753       14.988      860.433
05/27/2013  12:53:00     -412.114     -120.388      -13.457      254.936      156.100       75.297    64992.550    24367.241     5669.610       13.975        4.751      429.338       98.027        0.052      340.643       14.801      860.479
05/27/2013  12:54:00     -297.517     -190.767       -1.713      209.329      190.317       99.048    43818.734    36220.731     9810.513       10.737        4.492      353.424      116.123        0.108      340.618       14.759      860.482
05/27/2013  12:55:00     -517.380       42.938      -39.161      171.922      167.069       84.959    29557.159    27912.098     7217.991       16.786        3.234      519.158       81.070        0.024      340.518       14.590      860.427
05/27/2013  12:56:00     -374.731      -16.959      -17.256      251.677      131.861       78.980    63341.233    17387.419     6237.891       11.397        4.348      375.114      102.811        0.075      340.583       14.701      860.379
05/27/2013  12:57:00     -696.828      -24.052      -54.442      282.741      157.770       95.484    79942.331    24891.351     9117.169       30.151        5.698      697.243      125.228        0.032      340.536       14.621      860.342
05/27/2013  12:58:00     -521.560      -35.156      -13.794      180.124      146.720       89.900    32444.762    21526.898     8082.012       16.774        3.103      522.744      101.748        0.038      340.637       14.789      860.350
05/27/2013  12:59:00     -412.808      -75.371      -11.864      169.799      132.854       79.215    28831.630    17650.244     6274.958       11.449        2.638      419.632       84.395        0.040      340.717       14.928      860.429
05/27/2013  13:00:00     -404.680      -65.278        6.280      219.280      158.959       89.660    48083.545    25268.072     8038.928       12.471        4.070      409.911       96.036        0.055      340.689       14.881      860.411
05/27/2013  13:01:00     -537.060     -175.691      -13.374      178.686      154.723       92.480    31928.611    23939.128     8552.626       19.194        3.221      565.067      101.586        0.032      340.551       14.646      860.358
05/27/2013  13:02:00     -394.465      -85.045      -18.592      224.181      199.476       88.089    50256.951    39790.701     7759.678       13.048        4.890      403.528       92.370        0.052      340.648       14.810      860.378
05/27/2013  13:03:00     -446.092     -212.151      -19.265      205.670      147.535       92.273    42300.199    21766.722     8514.382       15.847        3.629      493.969       93.263        0.036      340.634       14.787      860.411
05/27/2013  13:04:00     -529.457     -235.087       -9.170      174.943      204.405       97.640    30605.140    41781.342     9533.504       20.878        4.096      579.302       92.120        0.025      340.611       14.748      860.353
05/27/2013  13:05:00     -408.770     -104.493      -29.127      169.043      184.907       80.700    28575.523    34190.467     6512.428       12.406        3.464      421.914       84.123        0.040      340.606       14.740      860.359
05/27/2013  13:06:00     -308.932     -158.831       -1.923      185.273      177.559       90.256    34326.022    31527.317     8146.110        9.732        3.700      347.371       92.428        0.071      340.663       14.835      860.325
05/27/2013  13:07:00     -355.933      -95.815      -19.853      227.016      150.219       82.366    51536.372    22565.667     6784.183       10.856        4.044      368.604      104.417        0.080      340.616       14.758      860.312
05/27/2013  13:08:00     -479.861      -73.305      -37.636      193.399      142.109       77.099    37403.163    20194.907     5944.201       15.029        3.177      485.428       80.745        0.028      340.593       14.717      860.310
05/27/2013  13:09:00     -593.585     -198.024       -9.286      182.798      175.597       86.739    33414.937    30834.422     7523.687       23.170        3.589      625.745       79.259        0.016      340.500       14.560      860.286
05/27/2013  13:10:00     -352.919     -157.777      -13.260      194.443      130.128       72.095    37808.025    16933.347     5197.709       10.477        2.997      386.582       93.094        0.058      340.619       14.762      860.295
05/27/2013  13:11:00     -394.768     -194.007       -0.294      216.203      172.692       93.827    46743.532    29822.398     8803.414       13.941        4.268      439.865      115.688        0.069      340.672       14.851      860.285
05/27/2013  13:12:00     -458.426      -65.408      -32.681      150.976      158.191       74.129    22793.796    25024.452     5495.083       13.440        2.666      463.069       65.598        0.020      340.660       14.829      860.302
05/27/2013  13:13:00     -501.614     -230.617      -35.992      236.285      255.309      102.447    55830.495    65182.601    10495.436       21.878        6.575      552.087      114.427        0.043      340.597       14.724      860.271
05/27/2013  13:14:00     -511.723     -194.550      -11.067      202.591      151.282       79.929    41043.096    22886.394     6388.667       18.506        3.516      547.458       89.946        0.027      340.612       14.750      860.225
05/27/2013  13:15:00     -582.591     -161.237      -35.295      213.819      214.570       95.685    45718.745    46040.078     9155.590       23.377        5.046      604.491       79.517        0.017      340.539       14.625      860.235
05/27/2013  13:16:00     -284.736     -123.105        5.744      188.740      118.863       77.417    35622.915    14128.465     5993.316        7.599        2.787      310.209       90.286        0.085      340.629       14.778      860.273
05/27/2013  13:17:00     -351.240      -54.895      -18.824      178.825      115.207       76.857    31978.216    13272.629     5907.036        8.894        2.558      355.504       80.007        0.051      340.610       14.746      860.257
05/27/2013  13:18:00     -380.903       40.977      -21.440      222.142      156.274       80.292    49346.942    24421.600     6446.805       11.371        4.011      383.100       81.311        0.045      340.645       14.804      860.233
05/27/2013  13:19:00     -229.201      -34.599       10.751      218.165      133.825       79.959    47595.878    17909.163     6393.438        6.286        3.595      231.797       94.192        0.165      340.650       14.814      860.217
05/27/2013  13:20:00     -510.677      -75.586      -26.032      228.472      178.349       98.570    52199.326    31808.442     9716.110       18.044        4.686      516.241       95.600        0.034      340.507       14.571      860.214
05/27/2013  13:21:00     -417.506      -94.142       -2.306      213.924      192.341       85.630    45763.470    36995.185     7332.467       13.662        4.505      427.989       89.826        0.044      340.547       14.638      860.213
05/27/2013  13:22:00     -229.085     -113.097        1.719      188.549      127.226       73.270    35550.744    16186.529     5368.435        6.118        2.855      255.481       77.417        0.092      340.592       14.716      860.233
05/27/2013  13:23:00     -150.001     -101.387       21.027      173.863      163.529       95.110    30228.303    26741.718     9045.833        4.961        3.301      181.052      109.200        0.364      340.649       14.812      860.242
05/27/2013  13:24:00     -269.323     -137.139      -13.172      116.918       90.745       55.879    13669.913     8234.605     3122.425        5.827        1.251      302.228       49.081        0.026      340.624       14.769      860.239
05/27/2013  13:25:00     -365.595     -123.334      -10.959      156.180      127.812       72.756    24392.224    16335.987     5293.476        9.750        2.301      385.838       60.694        0.025      340.534       14.618      860.244
05/27/2013  13:26:00     -263.990     -107.261       -4.169      129.042      108.379       60.258    16651.801    11746.070     3630.971        5.662        1.601      284.948       55.906        0.038      340.583       14.700      860.259
05/27/2013  13:27:00     -423.060      -35.035      -12.160      189.045      110.402       69.306    35738.112    12188.595     4803.340       11.653        2.637      424.508       69.574        0.027      340.602       14.733      860.246
05/27/2013  13:28:00     -522.662      -53.743      -38.855      193.674      192.075       92.186    37509.530    36892.948     8498.239       18.022        4.145      525.418       83.439        0.025      340.539       14.626      860.245
05/27/2013  13:29:00     -505.800     -103.704      -12.026      207.843      204.707       92.507    43198.897    41904.764     8557.596       18.018        4.683      516.321       91.143        0.031      340.546       14.638      860.284
05/27/2013  13:30:00     -478.706     -186.745      -20.315      220.645      183.018       90.721    48684.234    33495.513     8230.374       17.741        4.521      513.842       98.762        0.037      340.517       14.589      860.324
05/27/2013  13:31:00     -388.735      -82.988      -15.798      213.519      163.899       94.501    45590.504    26862.800     8930.456       11.980        4.069      397.495      103.242        0.067      340.499       14.558      860.352
05/27/2013  13:32:00     -609.390       -0.633      -48.680      252.430      182.748       83.922    63721.118    33396.908     7042.915       23.893        5.208      609.390       99.528        0.027      340.469       14.507      860.376
05/27/2013  13:33:00     -661.024     -183.062      -21.057      238.710      182.828      102.125    56982.543    33426.202    10429.459       28.586        5.042      685.905       98.328        0.021      340.355       14.315      860.381
05/27/2013  13:34:00     -400.534     -159.330        0.719      269.559      194.597      117.133    72662.224    37868.091    13720.140       15.501        6.213      431.061      126.201        0.086      340.430       14.444      860.361
05/27/2013  13:35:00     -436.031      -61.160      -25.035      214.287      166.093       85.340    45918.736    27586.907     7282.888       13.763        4.039      440.299      106.348        0.058      340.384       14.365      860.345
05/27/2013  13:36:00     -614.838     -103.930      -41.672      271.289      252.580       96.654    73597.828    63796.742     9342.058       26.863        7.337      623.561      105.801        0.029      340.404       14.399      860.303
05/27/2013  13:37:00     -425.341      -29.875      -12.998      212.869      157.823       84.816    45313.167    24908.130     7193.686       12.968        3.871      426.389       96.908        0.052      340.447       14.471      860.278
05/27/2013  13:38:00     -404.206     -106.713        9.838      344.893      211.194      133.744   118950.894    44603.098    17887.466       17.812        9.072      418.056      165.586        0.157      340.445       14.469      860.232
05/27/2013  13:39:00     -596.735     -154.104      -25.964      297.298      194.022       99.240    88386.271    37644.622     9848.552       25.817        6.794      616.312      119.333        0.037      340.428       14.438      860.205
05/27/2013  13:40:00     -706.831     -107.313      -30.768      316.117      251.787      123.874    99930.212    63396.476    15344.794       34.534        8.934      714.930      151.160        0.045      340.359       14.322      860.226
05/27/2013  13:41:00     -657.574     -172.862      -33.286      242.759      184.872      113.919    58931.967    34177.835    12977.512       28.472        5.304      679.915      126.928        0.035      340.371       14.343      860.249
05/27/2013  13:42:00     -565.521      -36.252      -26.400      235.309      221.361      110.994    55370.299    49000.525    12319.776       21.924        5.835      566.682      120.930        0.046      340.421       14.426      860.294
05/27/2013  13:43:00     -514.830     -109.066      -13.821      273.894      166.174       97.382    75017.735    27613.757     9483.316       19.461        5.606      526.256      127.452        0.059      340.424       14.432      860.348
05/27/2013  13:44:00     -495.263     -109.280      -13.229      206.647      168.318      101.412    42702.950    28330.910    10284.337       16.935        4.066      507.176      107.333        0.045      340.435       14.450      860.406
05/27/2013  13:45:00     -476.522      -34.745      -23.170      210.228      152.831       86.763    44195.881    23357.401     7527.854       15.194        3.754      477.787      105.028        0.048      340.444       14.466      860.456
05/27/2013  13:46:00     -400.130      -73.457      -14.506      148.492      140.109       78.522    22049.885    19630.505     6165.765       10.677        2.392      406.817       84.203        0.043      340.466       14.503      860.431
05/27/2013  13:47:00     -210.641     -144.440        0.310      198.073      131.024       71.365    39232.861    17167.268     5092.951        6.335        3.075      255.406       71.473        0.078      340.536       14.623      860.342
05/27/2013  13:48:00     -260.720      -79.296       20.778      246.535      159.065      100.223    60779.356    25301.825    10044.733        8.539        4.806      272.512      124.197        0.208      340.553       14.651      860.308
05/27/2013  13:49:00     -628.360      -41.391      -29.692      337.634      214.142      126.752   113996.626    45856.665    16066.090       28.665        8.796      629.722      160.360        0.065      340.444       14.465      860.299
05/27/2013  13:50:00     -740.374     -101.419      -63.878      237.684      223.552      122.100    56493.625    49975.520    14908.303       34.193        6.069      747.288      104.486        0.020      340.301       14.223      860.321
05/27/2013  13:51:00     -544.191      -99.142      -34.925      196.971      170.327       91.406    38797.398    29011.331     8354.990       19.167        3.808      553.148       98.610        0.032      340.285       14.197      860.332
05/27/2013  13:52:00     -494.402      -99.901      -47.596      257.345      152.461       87.258    66226.349    23244.316     7613.891       17.687        4.854      504.394      105.757        0.044      340.318       14.252      860.295
05/27/2013  13:53:00     -580.204     -109.096      -24.657      238.456      192.246      103.977    56861.491    36958.602    10811.302       22.687        5.232      590.372      110.725        0.035      340.294       14.212      860.244
05/27/2013  13:54:00     -468.000     -107.617      -13.559      224.525      137.597       74.103    50411.271    18932.877     5491.192       15.280        3.742      480.214       91.491        0.036      340.335       14.281      860.222
05/27/2013  13:55:00     -577.514     -116.415      -21.839      178.100      149.144       95.306    31719.710    22244.008     9083.143       20.529        3.152      589.131      100.747        0.029      340.360       14.322      860.218
05/27/2013  13:56:00     -682.921      -28.066      -58.944      216.786      170.154       99.811    46995.965    28952.435     9962.216       27.826        4.296      683.498      105.216        0.024      340.298       14.218      860.187
05/27/2013  13:57:00     -635.820     -105.136      -15.016      246.523      200.513      101.008    60773.618    40205.287    10202.601       26.334        5.559      644.453      105.507        0.027      340.257       14.149      860.139
05/27/2013  13:58:00     -719.904      -42.527      -58.362      230.696      175.518      100.446    53220.521    30806.675    10089.380       30.878        4.706      721.159      105.037        0.021      340.270       14.172      860.125
05/27/2013  13:59:00     -398.700      -72.834       -1.803      176.632      169.117       80.018    31198.793    28600.401     6402.887       11.522        3.310      405.298       74.021        0.033      340.420       14.424      860.128
05/27/2013  14:00:00     -561.767     -151.147      -25.504      210.738      183.866      102.424    44410.624    33806.812    10490.586       21.388        4.435      581.745      113.997        0.038      340.362       14.327      860.100
05/27/2013  14:01:00     -452.296     -121.095        6.385      230.477      172.085       92.628    53119.529    29613.306     8579.941       15.528        4.566      468.226      106.185        0.051      340.438       14.454      860.143
05/27/2013  14:02:00     -595.033      -86.579      -20.668      262.440      186.654      105.774    68874.504    34839.631    11188.225       23.843        5.745      601.299      120.434        0.040      340.390       14.374      860.182
05/27/2013  14:03:00     -640.819     -146.572      -28.199      249.448      178.096      104.172    62224.389    31718.351    10851.790       26.884        5.240      657.368      109.035        0.028      340.369       14.339      860.181
05/27/2013  14:04:00     -649.483     -117.191      -18.489      271.833      166.546      103.361    73892.982    27737.479    10683.566       27.409        5.616      659.971      121.119        0.034      340.305       14.229      860.191
05/27/2013  14:05:00     -480.848      -75.380      -16.367      264.216      163.041       92.032    69810.049    26582.261     8469.826       17.100        5.243      486.720      108.931        0.050      340.387       14.369      860.155
05/27/2013  14:06:00     -642.583      -92.132      -25.994      273.027      214.259      115.477    74543.746    45906.970    13335.037       27.791        6.689      649.154      136.734        0.044      340.309       14.236      860.090
05/27/2013  14:07:00     -584.102     -184.707      -32.041      273.645      206.377      112.832    74881.788    42591.432    12730.959       25.324        6.510      612.611      126.169        0.042      340.338       14.287      860.085
05/27/2013  14:08:00     -626.142      -78.857      -31.369      259.857      213.670      108.207    67525.605    45655.077    11708.702       26.205        6.244      631.088      121.485        0.037      340.322       14.259      860.028
05/27/2013  14:09:00     -508.051     -171.756       -5.869      273.189      176.293      102.213    74632.325    31079.123    10447.501       20.189        5.808      536.298      119.661        0.050      340.332       14.277      859.960
05/27/2013  14:10:00     -395.693     -127.840       -3.835      217.154      204.479       92.014    47155.772    41811.522     8466.661       13.517        4.872      415.832       91.373        0.048      340.390       14.374      859.897
05/27/2013  14:11:00     -446.613     -167.463      -16.034      226.893      190.296      105.009    51480.290    36212.591    11026.792       16.323        4.936      476.977      121.833        0.065      340.411       14.410      859.843
05/27/2013  14:12:00     -606.874      -21.517       -3.039      340.939      204.375      103.877   116239.415    41769.063    10790.515       26.876        8.440      607.255      121.744        0.040      340.388       14.371      859.849
05/27/2013  14:13:00     -534.621     -162.890       -8.021      317.194      272.814      124.890   100612.272    74427.477    15597.559       25.150        9.532      558.886      134.548        0.058      340.365       14.333      859.886
05/27/2013  14:14:00     -598.079     -251.532       -5.243      319.932      255.339      133.151   102356.183    65198.232    17729.164       30.311        9.264      648.820      153.286        0.056      340.344       14.296      859.865
05/27/2013  14:15:00     -528.335     -219.185      -39.888      259.643      246.423      122.875    67414.678    60724.149    15098.208       23.598        7.162      571.996      122.063        0.046      340.323       14.261      859.858
05/27/2013  14:16:00     -529.093     -279.634      -10.175      261.081      206.754      119.913    68163.441    42747.294    14379.238       24.174        6.264      598.443      132.960        0.049      340.331       14.273      859.785
05/27/2013  14:17:00     -520.733     -176.992      -32.981      246.110      182.250       97.343    60569.910    33214.933     9475.665       20.340        5.163      549.990      106.970        0.038      340.379       14.356      859.716
05/27/2013  14:18:00     -390.306     -155.371        0.376      240.327      210.947      106.924    57756.947    44498.518    11432.732       14.506        5.684      420.094      115.948        0.076      340.452       14.479      859.660
05/27/2013  14:19:00     -414.039     -207.271       -0.832      286.245      208.107      106.173    81935.971    43308.646    11272.666       17.543        6.826      463.022      134.007        0.084      340.483       14.531      859.699
05/27/2013  14:20:00     -556.072     -168.822       -1.261      306.013      204.894      121.617    93643.931    41981.440    14790.661       24.404        7.521      581.134      130.400        0.050      340.450       14.476      859.715
05/27/2013  14:21:00     -495.256     -263.147       -9.875      311.143      256.741      135.480    96810.252    65916.109    18354.928       24.782        9.054      560.825      159.096        0.080      340.427       14.438      859.735
05/27/2013  14:22:00     -487.774     -339.286      -23.415      254.006      257.952      127.174    64519.142    66539.366    16173.340       25.038        7.362      594.170      118.273        0.040      340.446       14.469      859.622
05/27/2013  14:23:00     -422.711     -249.480        6.803      289.881      203.413      117.188    84030.877    41376.648    13733.024       19.003        6.957      490.841      123.019        0.063      340.534       14.618      859.605
05/27/2013  14:24:00     -648.781     -326.655      -10.105      378.591      290.817      142.041   143331.371    84574.731    20175.609       38.786       12.404      726.375      169.660        0.055      340.394       14.380      859.539
05/27/2013  14:25:00     -662.925     -400.696      -17.720      315.240      235.353      134.130    99376.449    55390.882    17990.941       38.652        8.638      774.614      126.910        0.027      340.397       14.386      859.504
05/27/2013  14:26:00     -427.236     -141.139        2.399      281.523      235.617      107.021    79255.384    55515.548    11453.546       17.432        7.311      449.945      137.699        0.094      340.537       14.623      859.561
05/27/2013  14:27:00     -496.567     -141.470       -1.727      228.275      210.604      117.822    52109.259    44354.164    13882.011       18.845        5.517      516.326      129.734        0.063      340.523       14.600      859.597
05/27/2013  14:28:00     -584.239     -196.794      -18.145      343.787      205.052      120.365   118189.264    42046.396    14487.732       27.753        8.736      616.493      163.435        0.070      340.422       14.427      859.614
05/27/2013  14:29:00     -323.841     -118.900       -2.417      234.345      189.624      113.198    54917.659    35957.194    12813.684       11.133        5.184      344.979      124.932        0.131      340.560       14.662      859.618
05/27/2013  14:30:00     -454.188     -288.562      -24.218      206.173      260.791      112.955    42507.500    68012.103    12758.936       20.669        6.164      538.103      117.113        0.047      340.550       14.644      859.644
05/27/2013  14:31:00     -226.526     -122.063      -10.859      252.165      191.986      119.150    63587.238    36858.508    14196.717        9.047        5.732      257.320      122.610        0.227      340.672       14.850      859.685
05/27/2013  14:32:00     -562.569     -109.666      -14.068      250.191      207.797      127.057    62595.760    43179.455    16143.444       22.529        6.096      573.159      140.154        0.060      340.555       14.650      859.726
05/27/2013  14:33:00     -496.202      -71.049        0.095      297.137      182.286      108.026    88290.570    33228.277    11669.715       19.220        6.659      501.262      121.672        0.059      340.606       14.740      859.781
05/27/2013  14:34:00     -538.043     -329.966      -16.545      215.481      223.256      125.675    46432.030    49843.240    15794.237       25.534        5.603      631.164      117.822        0.035      340.522       14.598      859.794
05/27/2013  14:35:00     -304.068     -120.341       13.322      249.632      194.821      101.035    62316.178    37955.389    10208.167       10.878        5.524      327.016      118.710        0.132      340.670       14.847      859.768
05/27/2013  14:36:00     -623.612      -47.158      -42.234      285.734      257.355      107.095    81643.923    66231.341    11469.255       27.610        7.967      625.393       94.539        0.023      340.558       14.659      859.738
05/27/2013  14:37:00     -686.434     -230.041      -49.916      265.361      267.262      112.669    70416.593    71429.140    12694.365       34.055        7.727      723.955      121.565        0.028      340.547       14.638      859.720
05/27/2013  14:38:00     -693.698     -313.410      -46.672      266.478      216.265      109.343    71010.566    46770.636    11955.877       35.566        6.487      761.211      111.708        0.022      340.490       14.543      859.734
05/27/2013  14:39:00     -447.920     -219.942      -15.948      224.168      178.531       96.981    50251.343    31873.287     9405.407       17.038        4.577      499.006      113.389        0.052      340.569       14.676      859.817
05/27/2013  14:40:00     -442.822     -123.383       -7.759      248.136      214.598       91.584    61571.682    46052.294     8387.577       16.367        5.801      459.690       98.613        0.046      340.519       14.593      859.807
05/27/2013  14:41:00     -595.303     -202.422      -46.275      258.013      225.992       98.196    66570.885    51072.598     9642.492       26.237        6.364      628.777       96.312        0.023      340.427       14.438      859.784
05/27/2013  14:42:00     -536.210      -12.189      -36.197      228.575      151.359      100.834    52246.493    22909.690    10167.476       18.714        4.266      536.348      106.403        0.039      340.503       14.566      859.804
05/27/2013  14:43:00     -649.323     -133.535      -18.827      214.783      146.076       78.445    46131.710    21338.071     6153.632       25.670        3.681      662.912       87.487        0.017      340.461       14.493      859.806
05/27/2013  14:44:00     -583.429     -208.788      -19.526      260.971      183.891       95.020    68105.840    33815.802     9028.850       24.764        5.548      619.662      114.423        0.034      340.442       14.462      859.785
05/27/2013  14:45:00     -628.622     -147.826      -28.320      270.089      226.885      113.583    72948.026    51476.821    12901.113       27.755        6.866      645.769      126.957        0.039      340.495       14.551      859.755
05/27/2013  14:46:00     -617.128      -79.412      -44.713      208.143      251.299      104.085    43323.639    63151.253    10833.610       25.321        5.865      622.217       87.356        0.020      340.499       14.560      859.749
05/27/2013  14:47:00     -715.285       45.467      -51.993      242.131      189.017       95.112    58627.211    35727.556     9046.365       30.988        5.170      716.729      105.808        0.022      340.474       14.517      859.692
05/27/2013  14:48:00     -407.953      -47.428      -15.847      300.846      169.112       89.186    90508.172    28598.812     7954.152       14.797        6.353      410.700      107.186        0.068      340.603       14.734      859.689
05/27/2013  14:49:00     -393.818     -115.875       -2.520      229.441      169.601      105.294    52642.980    28764.354    11086.849       13.049        4.625      410.512      121.319        0.087      340.624       14.768      859.691
05/27/2013  14:50:00     -571.347     -119.627      -21.048      245.940      176.259       98.895    60486.566    31067.107     9780.288       22.125        5.067      583.736      105.908        0.033      340.522       14.598      859.707
05/27/2013  14:51:00     -597.956     -109.735      -34.661      212.802      182.281       94.703    45284.769    33226.537     8968.598       22.912        4.374      607.941      103.640        0.029      340.443       14.463      859.696
05/27/2013  14:52:00     -485.644     -113.005      -24.801      213.612      158.950       86.688    45630.011    25265.206     7514.814       16.381        3.921      498.618       92.727        0.035      340.479       14.526      859.662
05/27/2013  14:53:00     -502.124     -136.785      -23.043      185.661      141.232       81.900    34469.837    19946.518     6707.587       16.624        3.056      520.421       87.483        0.028      340.539       14.627      859.654
05/27/2013  14:54:00     -506.520     -118.787      -28.960      303.734      236.460      107.349    92254.157    55913.451    11523.762       21.557        7.985      520.263      136.373        0.069      340.508       14.574      859.626
05/27/2013  14:55:00     -349.163      -78.627      -19.825      231.076      141.798       79.290    53396.167    20106.636     6286.951       10.413        3.989      357.906      102.881        0.083      340.612       14.750      859.611
05/27/2013  14:56:00     -551.120      -74.917      -27.185      227.660      228.167      118.684    51829.076    52060.274    14085.870       21.401        5.899      556.189      124.205        0.050      340.545       14.636      859.544
05/27/2013  14:57:00     -664.996     -114.853      -33.157      256.942      206.061      110.294    66019.195    42461.220    12164.730       28.856        6.032      674.841      119.782        0.032      340.524       14.600      859.540
05/27/2013  14:58:00     -595.951      -75.796      -36.444      265.005      228.479      102.051    70227.857    52202.829    10414.502       24.752        6.642      600.752      114.191        0.036      340.486       14.538      859.482
05/27/2013  14:59:00     -444.743     -130.653      -24.637      297.783      211.292      104.759    88674.602    44644.245    10974.426       17.986        7.215      463.537      128.203        0.076      340.538       14.624      859.461
05/27/2013  15:00:00     -617.024     -154.738      -10.961      281.229      196.901      125.492    79089.925    38770.003    15748.339       26.917        6.680      636.131      130.973        0.042      340.565       14.670      859.463
05/27/2013  15:01:00     -725.983     -223.376      -32.543      297.182      225.167      107.327    88317.079    50699.992    11519.065       36.425        7.527      759.570      118.202        0.024      340.579       14.692      859.469
05/27/2013  15:02:00     -542.112      -59.774      -23.084      304.636      190.907      114.139    92803.229    36445.295    13027.740       22.011        7.114      545.397      123.785        0.052      340.630       14.780      859.541
05/27/2013  15:03:00     -727.437     -188.528      -43.793      278.234      186.382      113.696    77414.390    34738.290    12926.699       34.583        6.254      751.470      136.296        0.033      340.546       14.637      859.578
05/27/2013  15:04:00     -358.888     -200.133      -19.192      216.190      192.635      106.703    46738.076    37108.207    11385.514       13.221        4.762      410.918      109.273        0.071      340.675       14.856      859.641
05/27/2013  15:05:00     -463.640     -348.350      -26.950      238.307      198.626      130.290    56790.307    39452.202    16975.592       22.511        5.661      579.922      116.685        0.040      340.573       14.683      859.661
05/27/2013  15:06:00     -522.654     -242.943      -24.719      264.740      213.776      107.267    70087.149    45700.144    11506.113       23.003        6.365      576.358      121.702        0.045      340.534       14.618      859.725
05/27/2013  15:07:00     -604.733     -144.046      -23.590      228.548      135.875       94.537    52233.983    18461.958     8937.157       23.331        3.982      621.652       87.740        0.020      340.557       14.656      859.759
05/27/2013  15:08:00     -407.239     -230.622       -3.327      221.359      210.349      111.810    49000.002    44246.877    12501.443       16.238        5.287      468.006      115.513        0.061      340.546       14.639      859.786
05/27/2013  15:09:00     -552.251     -129.895       -2.102      220.717      203.194      113.283    48716.141    41287.986    12832.956       21.233        5.142      567.322      117.449        0.043      340.543       14.633      859.737
05/27/2013  15:10:00     -519.247     -172.579      -11.223      294.644      187.646      104.039    86815.073    35211.088    10824.183       21.617        6.643      547.175      137.688        0.063      340.584       14.704      859.725
05/27/2013  15:11:00     -432.619      -53.163       -5.822      296.031      204.684      120.658    87634.164    41895.694    14558.275       16.703        7.204      435.873      145.212        0.111      340.601       14.731      859.707
05/27/2013  15:12:00     -449.750     -149.496      -21.089      277.285      145.043       95.712    76886.775    21037.330     9160.842       16.606        5.354      473.946      105.618        0.050      340.633       14.784      859.691
05/27/2013  15:13:00     -451.315      -36.274       -2.804      215.550      151.533       98.180    46461.870    22962.190     9639.394       14.202        3.953      452.770      105.195        0.054      340.692       14.884      859.723
05/27/2013  15:14:00     -561.986     -125.183       -6.917      221.678      190.936       92.107    49141.051    36456.613     8483.676       21.280        4.704      575.760      110.713        0.037      340.703       14.903      859.725
05/27/2013  15:15:00     -543.964      -58.408      -32.629      199.681      180.405       95.424    39872.410    32545.857     9105.790       19.094        4.076      547.091       97.498        0.032      340.674       14.854      859.721
05/27/2013  15:16:00     -433.467      -34.064        5.065      206.238      152.624       83.394    42534.203    23294.008     6954.535       13.092        3.639      434.803      100.106        0.053      340.727       14.944      859.734
05/27/2013  15:17:00     -235.565     -113.887       -3.088      160.951      106.001       55.440    25905.341    11236.300     3073.646        5.434        2.011      261.651       61.637        0.055      340.829       15.118      859.762
05/27/2013  15:18:00     -261.035     -150.851      -11.212      172.779      170.296       76.790    29852.583    29000.671     5896.717        7.787        3.237      301.489       81.979        0.074      340.830       15.119      859.760
05/27/2013  15:19:00     -319.430      -23.856       -3.359      191.127      149.989       90.003    36529.430    22496.744     8100.608        8.486        3.356      320.319       83.232        0.068      340.780       15.035      859.762
05/27/2013  15:20:00     -437.281     -141.385      -33.230      133.605      147.210       64.382    17850.293    21670.656     4145.089       12.798        2.183      459.570       60.347        0.017      340.755       14.991      859.781
05/27/2013  15:21:00     -197.739      -69.671        4.033      169.971      113.488       71.562    28890.308    12879.495     5121.134        4.542        2.345      209.654       87.416        0.174      340.905       15.247      859.782
05/27/2013  15:22:00     -254.852      -90.333        1.433      219.246      121.291       89.254    48068.690    14711.424     7966.197        7.192        3.537      270.388      106.080        0.154      340.891       15.222      859.767
05/27/2013  15:23:00     -340.599     -178.290        1.581      243.195      241.390      122.633    59143.849    58269.198    15038.819       14.010        6.623      384.442      117.966        0.094      340.812       15.087      859.732
05/27/2013  15:24:00     -482.151      -93.247      -25.931      240.310      227.164       94.602    57749.060    51603.382     8949.603       18.005        5.915      491.085      108.233        0.049      340.793       15.056      859.708
05/27/2013  15:25:00     -446.622     -102.584        2.713      287.158      187.725      111.810    82459.726    35240.705    12501.425       17.008        6.510      458.251      144.469        0.099      340.717       14.928      859.698
05/27/2013  15:26:00     -498.197      -69.806       21.344      292.716      201.509      113.980    85682.782    40605.802    12991.364       19.638        6.964      503.064      119.863        0.057      340.662       14.834      859.675
05/27/2013  15:27:00     -378.335      -58.627        6.389      214.958      178.108       99.817    46206.842    31722.519     9963.513       11.724        4.395      382.851      108.642        0.081      340.733       14.953      859.663
05/27/2013  15:28:00     -406.321     -236.115      -18.060      189.908      148.395       89.565    36065.068    22021.190     8021.903       14.363        3.305      469.944       79.607        0.029      340.727       14.945      859.663
05/27/2013  15:29:00     -528.302     -152.862      -20.102      348.491      276.670      126.865   121445.825    76546.449    16094.846       25.845       10.704      549.973      156.563        0.081      340.735       14.957      859.625
05/27/2013  15:30:00     -469.795     -172.055      -16.989      282.701      209.079      105.156    79919.949    43713.870    11057.881       19.262        6.735      500.310      113.833        0.052      340.797       15.063      859.624
05/27/2013  15:31:00     -388.017     -216.395        1.722      236.312      221.091      107.914    55843.131    48881.371    11645.430       15.686        5.818      444.280      103.546        0.054      340.811       15.086      859.635
05/27/2013  15:32:00     -569.826     -150.394      -16.219      308.933      245.189      115.854    95439.852    60117.464    13422.219       25.825        8.449      589.339      130.575        0.049      340.766       15.010      859.594
05/27/2013  15:33:00     -551.495      -26.709      -36.935      224.470      232.415      107.981    50386.615    54016.541    11659.790       21.112        5.803      552.142       88.778        0.026      340.771       15.019      859.587
05/27/2013  15:34:00     -449.473     -298.878      -31.513      239.581      179.259      110.606    57398.976    32133.730    12233.582       19.704        5.088      539.772      111.187        0.042      340.820       15.101      859.591
05/27/2013  15:35:00     -426.484     -279.937       -2.586      258.171      224.696      131.339    66652.295    50488.222    17249.901       19.730        6.720      510.150      136.969        0.072      340.788       15.047      859.616
05/27/2013  15:36:00     -458.855     -267.560      -18.630      285.680      244.834      121.322    81612.852    59943.443    14719.051       21.935        7.814      531.165      127.313        0.057      340.827       15.114      859.623
05/27/2013  15:37:00     -539.807     -228.412      -11.434      229.268      189.787      106.822    52563.760    36019.101    11410.914       22.183        5.000      586.143      117.366        0.040      340.735       14.957      859.664
05/27/2013  15:38:00     -430.769     -183.206       -0.133      299.706      275.287      127.677    89823.389    75783.097    16301.406       20.049        9.095      468.109      147.597        0.099      340.816       15.095      859.659
05/27/2013  15:39:00     -327.263     -203.072       16.254      246.871      171.564       99.745    60945.335    29434.091     9949.120       12.445        5.016      385.148      113.117        0.086      340.909       15.252      859.652
05/27/2013  15:40:00     -526.945     -186.400      -20.686      248.373      198.205      104.819    61688.963    39285.199    10987.107       21.238        5.598      558.942      106.819        0.037      340.772       15.020      859.673
05/27/2013  15:41:00     -471.065      -87.921        0.031      257.986      224.285      104.006    66556.886    50303.842    10817.147       17.863        6.384      479.200      118.049        0.061      340.804       15.075      859.657
05/27/2013  15:42:00     -382.805     -159.038      -11.719      225.019      213.726      108.336    50633.421    45678.897    11736.693       13.999        5.402      414.527      122.979        0.088      340.904       15.243      859.631
05/27/2013  15:43:00     -477.658     -119.426      -12.736      301.145      208.368      118.213    90688.173    43417.225    13974.278       19.531        7.404      492.362      142.806        0.084      340.932       15.291      859.600
05/27/2013  15:44:00     -369.567     -146.883        2.497      262.909      248.190      117.268    69121.133    61598.157    13751.887       15.129        7.224      397.686      134.581        0.115      341.001       15.408      859.605
05/27/2013  15:45:00     -309.275      -86.952       -0.007      163.891      156.313       81.441    26860.104    24433.810     6632.580        8.056        2.896      321.266       83.936        0.068      341.092       15.562      859.589
05/27/2013  15:46:00     -320.536     -218.585       15.795      255.472      204.056      110.547    65265.881    41638.667    12220.612       13.493        5.956      387.973      123.945        0.102      341.068       15.522      859.626
05/27/2013  15:47:00     -547.373     -252.221      -10.405      313.319      224.674      117.467    98168.797    50478.501    13798.598       26.287        8.122      602.688      150.355        0.062      340.972       15.358      859.614
05/27/2013  15:48:00     -409.060     -186.900      -23.799      224.667      226.722       84.601    50475.131    51402.950     7157.254       15.591        5.452      449.735       81.855        0.033      341.053       15.495      859.650
05/27/2013  15:49:00     -490.815     -303.753      -20.360      263.182      227.654      105.663    69264.941    51826.237    11164.659       23.290        6.613      577.205      101.301        0.031      340.979       15.372      859.640
05/27/2013  15:50:00     -636.020     -195.275      -21.830      240.039      221.306      109.994    57618.542    48976.219    12098.717       28.089        5.935      665.322      124.445        0.035      340.984       15.378      859.644
05/27/2013  15:51:00     -330.091     -171.601       -7.091      196.467      174.891      104.756    38599.282    30586.696    10973.870       10.930        4.008      372.031      108.459        0.085      341.069       15.523      859.627
05/27/2013  15:52:00     -328.105     -230.772       -8.966      163.250      128.816       77.173    26650.476    16593.497     5955.684       10.509        2.460      401.134       62.070        0.024      341.092       15.561      859.628
05/27/2013  15:53:00     -357.195      -77.963      -15.114      271.650      163.133       96.024    73793.810    26612.361     9220.615       12.174        5.481      365.605      115.462        0.100      341.078       15.540      859.641
05/27/2013  15:54:00     -309.020     -198.660       -2.527      168.229      166.661       93.651    28300.894    27775.784     8770.566        9.990        3.242      367.368      100.160        0.074      341.076       15.534      859.651
05/27/2013  15:55:00     -330.177      -56.700       -4.480      164.231      145.416       82.079    26971.884    21145.752     6736.933        8.354        2.743      335.010       79.835        0.057      341.051       15.493      859.652
05/27/2013  15:56:00     -362.333     -150.801       -3.938      228.707      175.770      106.498    52306.889    30894.982    11341.750       12.428        4.727      392.461       99.659        0.064      340.987       15.382      859.618
05/27/2013  15:57:00     -529.710     -155.319      -29.197      239.301      212.613      104.891    57265.195    45204.320    11002.079       20.950        5.674      552.011      109.520        0.039      340.914       15.259      859.610
05/27/2013  15:58:00     -565.457     -135.714      -24.171      237.105      156.240      105.190    56218.810    24410.985    11064.960       21.520        4.585      581.515      116.781        0.040      340.839       15.134      859.634
05/27/2013  15:59:00     -501.357      -92.302      -13.389      238.368      176.016      110.807    56819.335    30981.526    12278.121       18.005        5.004      509.783      129.741        0.065      340.839       15.133      859.642
05/27/2013  16:00:00     -375.461      -33.010       -6.784      231.001      135.902       91.861    53361.419    18469.293     8438.414       11.117        4.013      376.910       97.444        0.067      340.902       15.239      859.612
05/27/2013  16:01:00     -300.597     -260.795       13.210      245.035      209.790      108.054    60042.144    44011.775    11675.601       13.712        5.786      397.961      121.147        0.093      340.935       15.295      859.569
05/27/2013  16:02:00     -384.584     -132.895      -11.540      259.187      186.616      110.944    67178.015    34825.540    12308.554       13.999        5.716      406.898      126.440        0.097      340.954       15.329      859.516
05/27/2013  16:03:00     -459.585     -253.901      -15.769      266.862      193.520      116.339    71215.155    37450.094    13534.739       19.905        6.110      525.056      106.953        0.041      340.897       15.231      859.489
05/27/2013  16:04:00     -635.184     -174.980      -53.563      238.470      201.482      110.173    56867.831    40595.093    12137.995       27.326        5.480      658.845      102.358        0.024      340.888       15.217      859.481
05/27/2013  16:05:00     -393.689     -263.529       16.717      250.891      154.885      105.662    62946.048    23989.321    11164.416       16.139        4.905      473.749      125.302        0.070      340.996       15.399      859.500
05/27/2013  16:06:00     -361.584     -211.346        0.503      216.469      149.212       89.640    46858.764    22264.127     8035.359       12.627        3.858      418.820       87.634        0.044      340.872       15.189      859.457
05/27/2013  16:07:00     -535.818     -115.885      -17.964      239.901      206.923      104.770    57552.634    42817.097    10976.722       20.608        5.567      548.206      120.718        0.048      340.998       15.403      859.359
05/27/2013  16:08:00     -466.346     -307.295      -32.933      230.669      228.895      110.196    53208.333    52392.993    12143.152       21.535        5.887      558.488      123.266        0.049      341.012       15.426      859.380
05/27/2013  16:09:00     -324.480     -274.655       -2.283      215.954      189.619      104.071    46636.092    35955.521    10830.738       13.706        4.671      425.114      112.115        0.070      341.002       15.410      859.350
05/27/2013  16:10:00     -389.034      -51.640      -15.594      217.668      155.701       93.747    47379.219    24242.781     8788.445       11.732        4.021      392.447      111.909        0.081      341.179       15.709      859.338
05/27/2013  16:11:00     -392.405      -71.988      -16.284      204.264      176.655      104.158    41723.763    31206.824    10848.800       12.159        4.189      398.954      112.955        0.080      341.167       15.688      859.342
05/27/2013  16:12:00     -366.577      -63.839       -9.904      188.636      153.994       86.840    35583.581    23714.070     7541.255       10.268        3.342      372.094       81.477        0.048      341.112       15.597      859.317
05/27/2013  16:13:00     -523.648     -137.285      -27.534      160.811      168.484       75.082    25860.078    28386.705     5637.369       17.684        2.994      541.346       58.097        0.012      340.976       15.364      859.301
05/27/2013  16:14:00     -283.551     -162.642       -3.663      197.911      185.251      101.684    39168.899    34318.068    10339.580        9.533        4.191      326.885      113.210        0.120      341.217       15.774      859.278
05/27/2013  16:15:00     -229.672       14.842        3.861      197.626       89.467       60.103    39056.045     8004.375     3612.420        5.182        2.534      230.151       79.915        0.121      341.459       16.185      859.276
05/27/2013  16:16:00     -401.926     -120.751       -0.577      200.591      142.358       86.659    40236.832    20265.691     7509.854       12.206        3.401      419.673       97.857        0.054      341.242       15.816      859.278
05/27/2013  16:17:00     -385.432     -213.786        4.440      266.786      166.532       88.095    71174.999    27733.050     7760.790       15.046        5.333      440.753       93.390        0.045      341.214       15.769      859.256
05/27/2013  16:18:00     -418.982     -221.985        1.580      281.219      192.182      114.733    79084.331    36933.909    13163.570       17.698        6.459      474.155      143.144        0.091      341.221       15.781      859.236
05/27/2013  16:19:00     -478.308     -305.223      -29.849      230.635      177.794      100.108    53192.312    31610.735    10021.677       20.881        4.741      567.398      106.986        0.036      341.131       15.627      859.243
05/27/2013  16:20:00     -525.264     -319.478       -5.951      240.606      207.267      106.242    57891.205    42959.775    11287.291       24.505        5.607      614.791      122.282        0.040      341.105       15.583      859.238
05/27/2013  16:21:00     -410.282     -228.481        5.801      204.390      159.345       92.123    41775.211    25390.942     8486.672       14.810        3.783      469.611      107.689        0.053      341.260       15.846      859.222
05/27/2013  16:22:00     -231.861     -151.499       -6.430      145.476      100.468       66.096    21163.361    10093.784     4368.702        5.618        1.781      276.968       65.441        0.056      341.493       16.241      859.210
05/27/2013  16:23:00     -362.407     -231.369      -13.708      165.840      185.385       90.159    27502.913    34367.729     8128.565       12.752        3.500      429.966       89.721        0.044      341.493       16.239      859.198
05/27/2013  16:24:00     -491.691     -382.500      -20.323      244.564      219.090      115.466    59811.636    48000.543    13332.283       25.479        6.057      622.950      125.166        0.040      341.375       16.039      859.192
05/27/2013  16:25:00     -376.363     -252.419        3.546      222.454      171.152      100.978    49485.653    29293.166    10196.512       14.716        4.449      453.172      112.075        0.061      341.365       16.025      859.166
05/27/2013  16:26:00     -460.507     -309.223      -32.875      223.660      176.968      103.732    50023.577    31317.819    10760.370       20.042        4.605      554.694      120.998        0.048      341.225       15.787      859.124
05/27/2013  16:27:00     -238.310     -152.767        8.928      159.053      169.018       74.222    25297.882    28567.028     5508.843        6.978        2.969      283.071       73.730        0.068      341.430       16.133      859.147
05/27/2013  16:28:00     -503.783     -270.824      -16.034      308.096      201.990      124.870    94923.440    40800.101    15592.399       23.933        7.566      571.964      153.557        0.072      341.150       15.660      859.144
05/27/2013  16:29:00     -469.844     -108.622       -1.075      235.282      242.793      104.921    55357.603    58948.345    11008.403       17.891        6.266      482.237      120.166        0.062      341.177       15.705      859.140
05/27/2013  16:30:00     -410.420     -187.441      -25.205      219.741      181.746       90.185    48286.250    33031.472     8133.354       14.682        4.473      451.197       76.438        0.029      341.196       15.737      859.135
05/27/2013  16:31:00     -383.316      -55.173      -13.468      139.772      153.280       73.045    19536.085    23494.633     5335.624        9.925        2.418      387.266       57.708        0.022      341.224       15.785      859.138
05/27/2013  16:32:00     -272.187      -73.020      -10.364      176.146      114.412       72.926    31027.279    13090.109     5318.254        6.447        2.472      281.811       84.016        0.089      341.350       15.997      859.186
05/27/2013  16:33:00     -332.815      -51.960       -9.986      171.897      184.253       97.664    29548.542    33949.351     9538.256        9.329        3.652      336.847      103.518        0.094      341.231       15.798      859.246
05/27/2013  16:34:00     -231.726       -0.634       -3.720      144.257      116.988       59.105    20810.092    13686.153     3493.363        4.584        1.899      231.727       61.683        0.071      341.271       15.865      859.294
05/27/2013  16:35:00     -243.554      -93.871        2.975      165.236      115.875       74.354    27303.045    13427.021     5528.449        5.719        2.313      261.018       82.212        0.099      341.262       15.851      859.299
05/27/2013  16:36:00     -269.223     -160.490        2.576      191.850      158.798       91.052    36806.334    25216.796     8290.440        8.427        3.516      313.430      112.709        0.129      341.272       15.866      859.291
05/27/2013  16:37:00     -477.996     -326.231      -12.271      308.475      186.887      121.941    95156.615    34926.855    14869.556       23.998        7.248      578.711      145.742        0.063      341.091       15.561      859.262
05/27/2013  16:38:00     -389.884      -80.546      -11.305      160.696      164.830       76.638    25823.229    27168.785     5873.368       10.874        2.943      398.118       81.437        0.042      341.124       15.616      859.252
05/27/2013  16:39:00     -256.815     -230.120        1.338      191.642      156.959       91.833    36726.572    24635.995     8433.340        9.434        3.490      344.832      100.821        0.085      341.182       15.714      859.229
05/27/2013  16:40:00     -474.399     -213.583      -16.608      203.179      179.047       88.830    41281.831    32057.788     7890.745       17.608        4.062      520.261       95.460        0.034      341.141       15.645      859.251
05/27/2013  16:41:00     -336.240     -106.819      -12.448      169.212      147.987       81.951    28632.664    21900.031     6715.953        9.093        2.862      352.800       97.600        0.077      341.164       15.683      859.275
05/27/2013  16:42:00     -540.729      -80.010      -32.918      214.349      154.327       73.784    45945.480    23816.830     5444.101       18.753        3.760      546.617       79.845        0.021      341.179       15.709      859.231
05/27/2013  16:43:00     -556.427     -132.875       -8.999      258.303      180.037       87.235    66720.255    32413.244     7610.023       21.703        5.337      572.072      103.127        0.032      341.182       15.713      859.191
05/27/2013  16:44:00     -314.004     -162.807       -6.664      221.067      175.188      101.360    48870.784    30690.763    10273.863       10.748        4.492      353.702      106.035        0.090      341.257       15.843      859.198
05/27/2013  16:45:00     -464.107     -248.528       -7.019      239.919      222.307      107.780    57560.937    49420.221    11616.581       19.788        5.930      526.461      114.543        0.047      341.160       15.676      859.207
05/27/2013  16:46:00     -435.141     -251.704       -1.271      216.214      179.289       98.590    46748.436    32144.709     9719.906       17.064        4.431      502.696      102.612        0.042      341.196       15.736      859.203
05/27/2013  16:47:00     -420.428     -290.192        9.572      273.866      197.103      114.869    75002.651    38849.662    13194.780       19.403        6.352      510.853      138.314        0.073      341.221       15.780      859.249
05/27/2013  16:48:00     -423.588     -167.060       -3.980      246.019      190.200       99.999    60525.512    36176.050     9999.723       15.701        5.335      455.341      120.169        0.070      341.231       15.796      859.226
05/27/2013  16:49:00     -437.762     -175.858      -31.455      230.288      170.450       84.317    53032.348    29053.251     7109.313       15.636        4.460      471.764      105.147        0.050      341.281       15.882      859.237
05/27/2013  16:50:00     -508.199     -220.695      -23.955      228.207      210.687      111.994    52078.644    44388.827    12542.560       20.826        5.451      554.051      120.225        0.047      341.192       15.730      859.234
05/27/2013  16:51:00     -592.528     -336.827      -45.654      343.763      252.563      137.958   118173.139    63788.285    19032.539       33.378       10.050      681.573      144.189        0.045      341.097       15.569      859.201
05/27/2013  16:52:00     -448.604     -182.008       -9.423      278.163      257.544      112.586    77374.395    66329.031    12675.634       19.539        7.819      484.121      135.884        0.079      341.141       15.644      859.230
05/27/2013  16:53:00     -508.905     -284.181        6.113      321.206      210.295      123.482   103173.322    44224.179    15247.908       25.119        8.132      582.875      161.741        0.077      341.136       15.636      859.263
05/27/2013  16:54:00     -523.914     -291.668       -7.639      248.792      176.639      110.838    61897.472    31201.236    12285.060       23.248        5.269      599.630      117.918        0.039      341.021       15.441      859.264
05/27/2013  16:55:00     -329.515     -145.420       14.461      215.863      136.128       89.090    46596.722    18530.851     7936.998       10.149        3.653      360.176      108.182        0.090      341.179       15.709      859.243
05/27/2013  16:56:00     -509.771     -238.361      -29.462      220.960      156.788       96.396    48823.176    24582.581     9292.260       20.011        4.135      562.745      101.455        0.033      341.210       15.762      859.265
05/27/2013  16:57:00     -572.537     -188.578      -29.475      252.263      215.180      108.504    63636.444    46302.491    11773.017       24.295        6.086      602.794      123.910        0.042      341.141       15.644      859.244
05/27/2013  16:58:00     -390.615      -37.862       -6.988      188.362      142.136       82.954    35480.414    20202.509     6881.447       10.830        3.128      392.445       96.497        0.060      341.256       15.840      859.249
05/27/2013  16:59:00     -404.082     -114.523       11.521      236.326      206.295      115.395    55849.765    42557.782    13315.939       14.411        5.586      419.997      129.839        0.096      341.187       15.723      859.253
05/27/2013  17:00:00     -418.257     -325.960      -19.236      234.281      184.873      123.749    54887.566    34178.169    15313.886       19.295        5.219      530.272      134.670        0.064      341.103       15.580      859.212
05/27/2013  17:01:00     -552.723     -211.062       -4.816      270.324      202.282      113.399    73075.335    40917.836    12859.322       23.844        6.343      591.650      135.376        0.052      341.112       15.596      859.206
05/27/2013  17:02:00     -647.291     -252.861      -21.973      250.656      203.690       99.161    62828.225    41489.636     9832.860       29.876        5.708      694.928      102.782        0.022      341.089       15.556      859.189
05/27/2013  17:03:00     -395.653     -241.165       -4.284      209.753      187.635      102.654    43996.261    35206.838    10537.826       15.222        4.487      463.359      114.644        0.061      341.150       15.660      859.172
05/27/2013  17:04:00     -392.131      -21.830      -18.043      198.619      136.915       91.194    39449.402    18745.721     8316.269       11.053        3.326      392.738       92.830        0.056      341.158       15.673      859.126
05/27/2013  17:05:00     -685.077      -40.230      -38.014      297.466      175.132      115.484    88486.142    30671.215    13336.637       30.242        6.625      686.257      149.948        0.048      341.136       15.634      859.125
05/27/2013  17:06:00     -560.944      -82.363      -40.112      235.316      173.375      109.147    55373.430    30058.747    11913.136       21.018        4.867      566.959      123.565        0.047      341.162       15.679      859.153
05/27/2013  17:07:00     -346.704      -58.213       33.038      246.367      205.145      107.238    60696.773    42084.487    11500.025       11.946        5.714      351.557      131.202        0.139      341.244       15.819      859.148
05/27/2013  17:08:00     -520.054       24.304      -35.958      226.738      168.921      102.630    51410.182    28534.260    10532.973       18.139        4.524      520.621      102.518        0.039      341.174       15.701      859.143
05/27/2013  17:09:00     -677.223      -65.709      -32.899      294.618      167.044      104.675    86799.866    27903.612    10956.807       29.482        6.283      680.404      140.654        0.043      341.133       15.630      859.147
05/27/2013  17:10:00     -573.812     -170.100      -42.754      257.833      214.161      109.773    66477.996    45864.735    12050.135       24.219        6.220      598.493      125.896        0.044      341.151       15.662      859.139
05/27/2013  17:11:00     -726.211     -171.164      -20.977      283.608      190.745      111.584    80433.309    36383.763    12450.891       34.317        6.463      746.109      138.902        0.035      341.129       15.624      859.139
05/27/2013  17:12:00     -357.797      -47.683       10.132      277.789      161.210       91.475    77166.729    25988.736     8367.752       12.094        5.576      360.960      111.787        0.096      341.249       15.828      859.150
05/27/2013  17:13:00     -721.594     -163.507      -35.443      282.298      224.097      112.367    79692.138    50219.287    12626.428       34.559        7.127      739.887      128.069        0.030      341.116       15.602      859.206
05/27/2013  17:14:00     -358.351      -66.578        3.233      192.284      157.087       82.395    36973.298    24676.342     6788.897       10.064        3.422      364.483       88.404        0.059      341.148       15.657      859.182
05/27/2013  17:15:00     -434.304      -91.181       -7.830      209.951      176.722       96.057    44079.293    31230.535     9226.940       14.075        4.227      443.773      105.491        0.057      341.171       15.695      859.167
05/27/2013  17:16:00     -494.953     -100.239      -23.270      218.578      205.465      105.480    47776.414    42215.863    11125.928       17.833        5.056      505.002      117.763        0.054      341.216       15.772      859.162
05/27/2013  17:17:00     -426.197     -104.215       12.086      249.837      158.876       94.940    62418.445    25241.707     9013.613       14.465        4.834      438.753      115.897        0.070      341.227       15.788      859.149
05/27/2013  17:18:00     -252.728      -24.915        9.922      205.455      160.997       87.003    42211.851    25920.131     7569.440        7.013        3.785      253.953      110.466        0.189      341.324       15.956      859.122
05/27/2013  17:19:00     -467.574      -81.150      -19.459      253.974      165.695       87.062    64502.682    27454.831     7579.720       16.255        4.977      474.564      112.359        0.056      341.312       15.934      859.124
05/27/2013  17:20:00     -423.916      -34.785      -14.517      252.912      187.337      111.480    63964.264    35095.291    12427.782       14.629        5.574      425.340      126.584        0.089      341.275       15.870      859.173
05/27/2013  17:21:00     -540.507     -180.004      -22.717      286.827      192.538      103.356    82269.487    37070.899    10682.559       22.752        6.501      569.692      100.765        0.031      341.258       15.844      859.190
05/27/2013  17:22:00     -486.149     -236.827      -22.210      252.437      184.561      104.146    63724.365    34062.840    10846.412       20.076        5.432      540.766      112.608        0.043      341.258       15.843      859.199
05/27/2013  17:23:00     -420.591      -88.958      -42.666      181.604      177.901       81.871    32979.856    31648.644     6702.900       12.897        3.567      429.896       78.982        0.034      341.291       15.898      859.208
05/27/2013  17:24:00     -442.855       -4.852      -16.048      203.081      141.153       97.577    41241.826    19924.106     9521.353       13.353        3.534      442.881       93.029        0.044      341.337       15.977      859.250
05/27/2013  17:25:00     -551.684     -115.474       -9.185      243.810      201.979       93.714    59443.419    40795.468     8782.395       21.338        5.451      563.639      110.754        0.039      341.255       15.837      859.253
05/27/2013  17:26:00     -540.069     -137.042      -32.975      309.594      189.634      109.058    95848.438    35961.143    11893.697       22.760        7.185      557.185      149.393        0.072      341.245       15.821      859.286
05/27/2013  17:27:00     -374.264     -122.068       -3.950      221.834      192.540       94.991    49210.111    37071.839     9023.322       12.513        4.765      393.667       92.675        0.055      341.229       15.794      859.307
05/27/2013  17:28:00     -415.924     -129.311      -11.092      235.466      149.824       92.470    55444.241    22447.212     8550.758       13.813        4.322      435.562       98.800        0.051      341.277       15.875      859.298
05/27/2013  17:29:00     -193.230      -39.913       28.453      181.124      132.387       94.888    32805.823    17526.295     9003.740        4.953        2.967      197.309      100.070        0.257      341.358       16.013      859.342
05/27/2013  17:30:00     -387.899     -132.449        4.610      212.527      191.643      102.174    45167.599    36727.068    10439.490       13.017        4.617      409.888      102.845        0.063      341.247       15.825      859.302
05/27/2013  17:31:00     -642.710     -187.378       -9.189      249.818      152.408       93.447    62409.197    23228.246     8732.382       27.130        4.718      669.468      102.106        0.023      341.224       15.785      859.286
05/27/2013  17:32:00     -547.089     -232.658      -22.578      262.168      150.547       87.112    68732.239    22664.549     7588.514       22.645        4.949      594.505       94.736        0.025      341.164       15.683      859.311
05/27/2013  17:33:00     -605.613       71.071      -50.881      252.122      173.881       87.684    63565.574    30234.570     7688.453       23.793        5.074      609.769      104.836        0.030      341.211       15.763      859.331
05/27/2013  17:34:00     -556.994      -83.875      -36.848      278.198      199.131       86.458    77393.856    39653.113     7474.998       22.156        6.226      563.274      103.443        0.034      341.300       15.913      859.366
05/27/2013  17:35:00     -561.934     -103.012      -22.877      309.055      183.050      106.325    95515.254    33507.317    11305.072       23.359        7.016      571.298      153.049        0.072      341.295       15.904      859.363
05/27/2013  17:36:00     -441.486      -86.788      -34.425      206.352      137.350       90.589    42581.142    18865.013     8206.281       13.663        3.483      449.936       94.206        0.044      341.349       15.996      859.403
05/27/2013  17:37:00     -528.713     -247.553      -25.076      235.922      174.813      101.405    55659.345    30559.544    10283.033       21.896        4.825      583.798      103.632        0.032      341.237       15.807      859.412
05/27/2013  17:38:00     -513.399      -49.698      -29.538      175.838      223.276       95.614    30919.118    49852.183     9141.944       17.840        4.496      515.799      100.002        0.038      341.282       15.882      859.413
05/27/2013  17:39:00     -337.434      -71.096       -7.237      180.982      176.598       87.587    32754.368    31186.953     7671.514        9.528        3.581      344.843       90.969        0.070      341.418       16.112      859.416
05/27/2013  17:40:00     -401.909      -56.174       -9.791      220.676      157.487      102.453    48697.737    24802.232    10496.687       12.438        4.200      405.816      117.091        0.083      341.292       15.900      859.412
05/27/2013  17:41:00     -510.368      -39.732      -57.132      203.311      157.821       82.992    41335.255    24907.470     6887.676       16.921        3.657      511.912       86.198        0.028      341.261       15.849      859.405
05/27/2013  17:42:00     -373.067     -111.424      -17.386      142.116      158.763       82.316    20197.071    25205.756     6775.858       10.203        2.609      389.351       62.013        0.025      341.359       16.013      859.381
05/27/2013  17:43:00     -453.370      -93.546      -33.916      160.165      151.059       77.086    25652.742    22818.830     5942.228       13.492        2.721      462.921       67.929        0.022      341.401       16.086      859.394
05/27/2013  17:44:00     -372.211      -65.480      -34.888      232.272      140.332       91.751    53950.298    19692.974     8418.207       11.304        4.103      377.927       98.581        0.068      341.345       15.989      859.389
05/27/2013  17:45:00     -441.278     -126.120      -12.479      145.348      137.002       81.362    21126.149    18769.580     6619.732       12.864        2.326      458.947       69.933        0.023      341.410       16.100      859.410
05/27/2013  17:46:00     -351.398     -164.439      -10.496      195.960      153.856       72.659    38400.161    23671.736     5279.277       10.898        3.368      387.969       66.544        0.029      341.423       16.123      859.479
05/27/2013  17:47:00     -360.783       16.082      -11.995      191.170      119.230       67.652    36545.970    14215.724     4576.815        9.294        2.767      361.141       71.863        0.040      341.389       16.063      859.481
05/27/2013  17:48:00     -330.212     -181.271      -22.876      126.823      124.509       63.655    16083.950    15502.475     4052.006        8.902        1.782      376.696       67.902        0.032      341.314       15.937      859.434
05/27/2013  17:49:00     -319.655     -151.583      -11.134      153.391      120.133       67.524    23528.868    14431.897     4559.552        8.389        2.126      353.775       74.902        0.045      341.347       15.994      859.380
05/27/2013  17:50:00     -368.264      -83.190      -10.906      142.010       95.968       60.182    20166.893     9209.837     3621.891        8.782        1.650      377.543       65.797        0.030      341.394       16.073      859.374
05/27/2013  17:51:00     -485.520      -39.476      -37.454      207.046      141.662       67.994    42867.912    20068.039     4623.236       15.311        3.378      487.123       76.216        0.024      341.320       15.946      859.336
05/27/2013  17:52:00     -411.548     -135.130      -11.134      192.694      197.385       93.973    37130.786    38960.824     8830.872       13.632        4.246      433.165      101.202        0.055      341.307       15.925      859.336
05/27/2013  17:53:00     -446.221     -149.039      -13.005      176.940      135.060       76.428    31307.753    18241.254     5841.209       13.843        2.770      470.453       93.936        0.040      341.281       15.882      859.388
05/27/2013  17:54:00     -458.649     -119.509       -3.305      195.460      177.238       86.345    38204.421    31413.343     7455.384       15.085        3.854      473.964      101.336        0.046      341.180       15.710      859.373
05/27/2013  17:55:00     -511.894     -149.596      -38.492      221.761      168.428       79.224    49177.997    28367.961     6276.375       18.485        4.191      533.305       77.425        0.021      341.217       15.774      859.368
05/27/2013  17:56:00     -321.933       -2.894      -30.166      157.685      147.706       74.180    24864.470    21816.999     5502.621        7.836        2.609      321.946       71.998        0.050      341.188       15.724      859.332
05/27/2013  17:57:00     -326.041       64.709      -15.596      143.802      156.414       67.150    20678.948    24465.400     4509.147        8.019        2.483      332.400       67.966        0.042      341.223       15.783      859.258
05/27/2013  17:58:00     -309.362       -5.009      -24.242      230.682      120.276       83.097    53214.393    14466.242     6905.162        8.544        3.729      309.403      115.444        0.139      341.322       15.951      859.276
05/27/2013  17:59:00     -412.015      -58.398      -20.535      159.378      132.380       70.348    25401.413    17524.525     4948.887       11.072        2.394      416.133       73.406        0.031      341.273       15.869      859.255
05/27/2013  18:00:00     -608.159      -22.652      -49.734      144.074      140.686       74.184    20757.272    19792.466     5503.279       20.944        2.303      608.581       73.343        0.015      341.223       15.782      859.282
05/27/2013  18:01:00     -424.528      -46.058      -17.565      193.371      129.788       85.567    37392.308    16845.023     7321.754       12.210        3.078      427.019       98.428        0.053      341.247       15.823      859.271
05/27/2013  18:02:00     -322.878     -175.484       -0.429      211.210      143.377       96.300    44609.456    20556.935     9273.615       10.473        3.722      367.484       94.294        0.066      341.190       15.727      859.263
05/27/2013  18:03:00     -284.945        5.803       -6.314      190.955      116.441       56.802    36463.689    13558.595     3226.492        6.725        2.662      285.004       75.667        0.070      341.199       15.744      859.220
05/27/2013  18:04:00     -236.347       -0.877       -6.563      124.984       91.927       51.450    15621.027     8450.568     2647.146        4.131        1.336      236.348       50.652        0.046      341.270       15.863      859.226
05/27/2013  18:05:00     -323.186     -102.079        2.969      141.653      111.585       66.546    20065.624    12451.203     4428.306        7.591        1.847      338.924       66.627        0.039      341.356       16.009      859.235
05/27/2013  18:06:00     -365.192     -178.667      -30.661      141.328      119.336       67.009    19973.634    14240.974     4490.213       10.246        1.935      406.555       64.359        0.025      341.323       15.953      859.266
05/27/2013  18:07:00     -284.957      -89.664        9.544      152.857      114.922       62.661    23365.168    13207.041     3926.416        6.491        2.025      298.731       71.011        0.057      341.308       15.928      859.258
05/27/2013  18:08:00     -133.788     -107.497       -0.841      127.243       96.721       53.717    16190.873     9354.913     2885.492        2.894        1.422      171.624       63.790        0.138      341.410       16.101      859.254
05/27/2013  18:09:00     -307.110      -79.104      -14.020      130.606       88.624       52.730    17057.898     7854.150     2780.480        6.423        1.385      317.134       62.698        0.039      341.333       15.971      859.237
05/27/2013  18:10:00     -450.016      -37.395        0.323      176.092      137.324       89.441    31008.362    18857.998     7999.754       13.088        2.893      451.567       98.850        0.048      341.297       15.908      859.198
05/27/2013  18:11:00     -380.406      -93.804      -10.624      217.932      143.548       85.125    47494.439    20606.072     7246.221       11.447        3.767      391.800       92.126        0.055      341.296       15.906      859.202
05/27/2013  18:12:00     -243.188      -93.815        0.435      125.731       82.205       58.514    15808.390     6757.636     3423.940        4.696        1.299      260.656       61.503        0.056      341.338       15.980      859.197
05/27/2013  18:13:00     -306.421     -133.660       -7.292      154.789      165.867       67.215    23959.547    27511.745     4517.859        8.389        2.799      334.303       73.793        0.049      341.329       15.962      859.175
05/27/2013  18:14:00     -315.250     -125.198       -5.479      213.753      143.188       91.177    45690.299    20502.785     8313.235        9.478        3.725      339.201      106.388        0.098      341.269       15.863      859.169
05/27/2013  18:15:00     -330.953      -44.686      -18.395      158.571      128.892       87.581    25144.757    16613.150     7670.398        8.064        2.471      333.956       71.948        0.046      341.271       15.864      859.166
05/27/2013  18:16:00     -307.454     -100.447        2.092      196.074      168.763       70.862    38444.884    28481.060     5021.442        8.827        3.597      323.447       88.721        0.075      341.309       15.929      859.150
05/27/2013  18:17:00     -300.511     -211.883       -1.010      162.439      128.244       89.869    26386.536    16446.602     8076.456        9.305        2.545      367.697       91.909        0.062      341.316       15.942      859.155
05/27/2013  18:18:00     -476.146     -139.586      -16.624      249.906      167.327       88.493    62453.167    27998.285     7831.091       17.236        4.914      496.185      101.369        0.042      341.311       15.932      859.164
05/27/2013  18:19:00     -438.146     -115.948       -6.458      188.827      152.738       85.676    35655.636    23328.858     7340.322       13.588        3.316      453.229       83.111        0.034      341.312       15.934      859.171
05/27/2013  18:20:00     -288.004        2.873       -0.032      223.859      130.182       81.483    50112.734    16947.392     6639.512        7.831        3.685      288.018       90.940        0.100      341.377       16.044      859.190
05/27/2013  18:21:00     -116.180      -97.365        4.992      101.348       96.362       53.228    10271.433     9285.588     2833.167        2.269        1.120      151.584       54.533        0.129      341.455       16.177      859.213
05/27/2013  18:22:00     -243.185     -180.695       15.680      224.806      180.059       88.063    50537.858    32421.401     7755.050        9.136        4.536      302.968      105.038        0.120      341.459       16.184      859.268
05/27/2013  18:23:00     -397.211     -289.192       -2.315      177.795      168.230       88.966    31611.225    28301.207     7915.021       15.461        3.391      491.333       96.383        0.038      341.150       15.661      859.275
05/27/2013  18:24:00     -245.895     -352.366      -13.281      190.538      198.309       92.107    36304.864    39326.550     8483.743       13.444        4.206      429.682       98.001        0.052      341.191       15.729      859.229
05/27/2013  18:25:00     -317.270     -229.092        5.005      206.051      166.249      100.921    42457.117    27638.857    10185.043       11.671        4.014      391.336      109.372        0.078      341.280       15.880      859.260
05/27/2013  18:26:00     -267.282     -198.915       18.315      200.824      146.702       89.269    40330.428    21521.353     7968.941        9.057        3.491      333.176       78.951        0.056      341.212       15.764      859.290
05/27/2013  18:27:00     -340.040     -116.337       -4.687      255.445      178.823      100.702    65252.109    31977.642    10140.847       11.826        5.369      359.390      111.743        0.097      341.219       15.777      859.285
05/27/2013  18:28:00     -363.946      -34.216      -16.028      134.143      189.076       60.682    17994.453    35749.625     3682.358        9.565        2.871      365.551       54.542        0.022      341.163       15.679      859.283
05/27/2013  18:29:00     -413.594      -96.826       -6.959      170.635      118.772       65.880    29116.385    14106.798     4340.236       11.402        2.378      424.776       66.436        0.024      341.139       15.642      859.244
05/27/2013  18:30:00     -216.267     -147.321        8.923      159.561      155.878       72.515    25459.683    24298.054     5258.353        6.178        2.751      261.677       75.337        0.083      341.259       15.845      859.250
05/27/2013  18:31:00     -379.665     -349.856      -13.323      218.145      211.949       95.979    47587.240    44922.219     9212.062       18.421        5.086      516.280      115.155        0.050      341.093       15.562      859.218
05/27/2013  18:32:00     -438.886      -11.087      -16.013      206.257      152.345       82.841    42541.869    23208.958     6862.677       13.279        3.631      439.026       92.531        0.044      341.251       15.832      859.181
05/27/2013  18:33:00     -533.927     -179.651      -21.189      201.046      138.709       89.719    40419.447    19240.117     8049.435       19.274        3.385      563.341       94.411        0.028      341.119       15.606      859.219
05/27/2013  18:34:00     -158.252      -89.941       13.541      141.043      101.548       63.866    19893.106    10311.975     4078.837        3.379        1.714      182.025       72.941        0.161      341.197       15.742      859.204
05/27/2013  18:35:00     -340.820     -200.577       -4.265      212.874      131.028       84.124    45315.360    17168.457     7076.810       11.297        3.478      395.461      101.990        0.067      341.232       15.798      859.234
05/27/2013  18:36:00     -283.712     -147.800      -13.027      193.121      153.910       96.264    37295.724    23688.263     9266.782        8.637        3.513      319.902      112.614        0.124      341.256       15.841      859.249
05/27/2013  18:37:00     -213.161     -123.643        2.680      160.628      129.188       67.479    25801.354    16689.425     4553.372        5.388        2.352      246.425       74.092        0.090      341.273       15.869      859.215
05/27/2013  18:38:00     -189.051     -174.834       21.395      155.994      158.834       72.113    24334.085    25228.181     5200.299        6.075        2.738      257.502       67.921        0.070      341.271       15.866      859.197
05/27/2013  18:39:00     -178.699     -187.602        7.839      170.942       96.741       65.076    29221.004     9358.874     4234.903        5.499        2.141      259.090       64.037        0.061      341.244       15.819      859.184
05/27/2013  18:40:00     -405.930     -226.304       -5.593      198.085      158.278       81.720    39237.701    25051.770     6678.176       14.348        3.548      464.750       94.221        0.041      341.278       15.876      859.181
05/27/2013  18:41:00     -187.865     -151.333       18.294      155.533      113.789       76.141    24190.535    12947.944     5797.475        5.073        2.147      241.236       82.652        0.117      341.258       15.843      859.182
05/27/2013  18:42:00     -427.365      -78.019      -18.807      184.339      115.708       68.182    33980.787    13388.358     4648.756       12.054        2.601      434.428       76.894        0.031      341.175       15.702      859.148
05/27/2013  18:43:00     -505.637      -62.940      -32.221      186.922      147.194       59.961    34939.650    21666.052     3595.278       16.042        3.010      509.540       71.753        0.020      341.155       15.668      859.168
05/27/2013  18:44:00     -253.896      -80.326        1.514      185.202      136.072       68.414    34299.959    18515.561     4680.527        6.420        2.875      266.299       73.855        0.077      341.227       15.790      859.223
05/27/2013  18:45:00     -179.537     -153.554       -2.683      110.198       94.708       60.092    12143.613     8969.630     3611.072        4.027        1.236      236.247       50.517        0.046      341.132       15.629      859.246
05/27/2013  18:46:00     -260.933     -200.980       -9.151      162.178      110.359       71.033    26301.615    12179.106     5045.621        7.604        2.176      329.361       85.995        0.068      341.092       15.562      859.222
05/27/2013  18:47:00     -202.279     -113.316      -10.916      110.586       76.830       49.132    12229.163     5902.834     2413.997        3.721        1.027      231.856       54.503        0.055      341.110       15.592      859.227
05/27/2013  18:48:00     -266.630      -91.665        0.572      163.747       92.918       62.539    26813.046     8633.682     3911.093        5.942        1.968      281.947       78.599        0.078      341.138       15.640      859.233
05/27/2013  18:49:00     -440.345      -68.277      -16.759      195.017      133.174       68.699    38031.723    17735.347     4719.513       12.966        3.024      445.607       59.748        0.018      341.011       15.425      859.211
05/27/2013  18:50:00     -304.400      -24.188      -25.502       85.143       98.946       40.539     7249.289     9790.270     1643.408        5.629        0.934      305.359       35.953        0.014      341.061       15.508      859.203
05/27/2013  18:51:00     -111.743      -81.467        5.732      105.752      113.379       57.761    11183.481    12854.762     3336.352        2.326        1.369      138.287       60.444        0.191      341.149       15.659      859.201
05/27/2013  18:52:00     -164.926     -104.252       -4.855      178.189      127.615       86.487    31751.285    16285.501     7479.971        4.680        2.776      195.113       97.194        0.248      341.108       15.589      859.188
05/27/2013  18:53:00     -272.672        6.221       -3.900      266.313      104.497       75.024    70922.854    10919.724     5628.604        8.092        4.374      272.743      110.472        0.164      341.105       15.586      859.209
05/27/2013  18:54:00     -422.137      -81.516      -16.883      164.928      139.776       77.655    27201.292    19537.227     6030.283       11.894        2.638      429.935       72.452        0.028      341.053       15.495      859.241
05/27/2013  18:55:00     -304.098      -71.904      -15.468       98.304      101.854       50.181     9663.749    10374.290     2518.131        6.022        1.128      312.483       40.145        0.017      341.086       15.551      859.279
05/27/2013  18:56:00     -312.405      -90.570        0.504      134.963      119.668       68.538    18215.008    14320.485     4697.488        7.151        1.862      325.269       69.049        0.045      341.129       15.625      859.316
05/27/2013  18:57:00     -290.480      -67.235      -20.844      158.674       87.435       68.017    25177.299     7644.910     4626.337        6.338        1.872      298.160       58.500        0.038      341.081       15.544      859.328
05/27/2013  18:58:00     -314.189     -106.128       -7.420      181.812      146.506       77.849    33055.658    21464.105     6060.529        8.530        3.029      331.629       57.064        0.030      341.059       15.506      859.339
05/27/2013  18:59:00     -400.455     -134.616       -7.048      250.207      131.829       79.898    62603.729    17378.852     6383.631       13.244        4.318      422.475      103.970        0.061      340.909       15.250      859.311
05/27/2013  19:00:00     -489.237     -176.137      -34.426      231.348      139.714       74.942    53521.917    19519.918     5616.328       17.510        3.933      519.978       65.891        0.016      340.829       15.117      859.288
05/27/2013  19:01:00     -296.748      -79.052        3.838      131.641      111.118       74.828    17329.438    12347.191     5599.285        6.479        1.764      307.097       72.596        0.056      340.889       15.216      859.272
05/27/2013  19:02:00     -319.259     -174.116        4.465      161.064      191.436       69.413    25941.629    36647.676     4818.137        9.982        3.370      363.652       74.562        0.042      340.881       15.205      859.292
05/27/2013  19:03:00     -286.551      -74.894       -1.300      168.650      131.106       71.454    28442.810    17188.749     5105.628        6.922        2.537      296.177       74.452        0.063      340.956       15.332      859.297
05/27/2013  19:04:00     -342.608     -168.504       -2.072      184.184      143.782       77.643    33923.655    20673.163     6028.462       10.319        3.031      381.803       78.166        0.042      340.904       15.242      859.296
05/27/2013  19:05:00     -101.606     -214.836       19.769      112.739      159.636       62.101    12710.127    25483.755     3856.495        4.945        2.103      237.651       67.791        0.081      340.881       15.204      859.286
05/27/2013  19:06:00     -159.999      -17.900      -13.258      120.511       80.133       52.303    14522.824     6421.337     2735.585        2.488        1.184      160.997       54.173        0.113      340.920       15.273      859.282
05/27/2013  19:07:00     -183.843       12.317       -6.984      158.194       77.244       51.853    25025.471     5966.667     2688.682        3.383        1.684      184.255       66.467        0.130      340.898       15.233      859.242
05/27/2013  19:08:00     -234.422      -60.752       -7.991      182.642      111.681       62.509    33358.094    12472.696     3907.393        5.421        2.487      242.166       77.893        0.103      340.888       15.216      859.220
05/27/2013  19:09:00     -256.500     -118.058       -9.025      134.469       99.724       60.606    18082.031     9944.925     3673.076        5.575        1.585      282.365       65.270        0.053      340.878       15.199      859.243
05/27/2013  19:10:00     -429.489      -71.851      -28.938      150.655      121.411       64.223    22696.878    14740.567     4124.632       11.600        2.078      435.457       60.244        0.019      340.781       15.035      859.268
05/27/2013  19:11:00     -183.928       14.451       -1.333      160.481       58.529       37.494    25754.290     3425.592     1405.828        3.231        1.529      184.495       60.095        0.106      340.884       15.211      859.269
05/27/2013  19:12:00     -123.681      -65.078       20.492      150.413      155.366       55.444    22624.142    24138.484     3074.057        3.489        2.492      139.758       64.090        0.210      340.840       15.137      859.234
05/27/2013  19:13:00     -373.722      -85.182      -26.285      113.386      135.674       54.983    12856.496    18407.500     3023.110        9.095        1.714      383.307       35.413        0.009      340.819       15.100      859.219
05/27/2013  19:14:00     -413.431       79.127      -36.891      147.472       92.179       55.666    21747.947     8496.909     3098.754       10.594        1.667      420.935       64.849        0.024      340.809       15.084      859.195
05/27/2013  19:15:00     -289.614       87.383      -10.514      129.251       95.845       87.122    16705.842     9186.314     7590.291        6.255        1.674      302.509       69.753        0.053      340.789       15.050      859.183
05/27/2013  19:16:00     -227.853       60.322      -18.356      119.987       62.772       42.094    14396.896     3940.338     1771.901        3.800        1.005      235.702       43.555        0.034      340.769       15.016      859.202
05/27/2013  19:17:00     -152.432      -61.893       -9.375       63.631       65.715       40.585     4048.916     4318.454     1647.165        1.858        0.501      164.518       32.129        0.038      340.824       15.111      859.229
05/27/2013  19:18:00     -100.032     -131.078        0.698       99.959       90.376       55.754     9991.852     8167.747     3108.455        2.422        1.063      164.888       43.344        0.069      340.861       15.173      859.243
05/27/2013  19:19:00     -242.266       -8.845       -2.347       96.716       90.899       46.395     9354.074     8262.622     2152.455        3.927        0.988      242.428       35.939        0.022      340.832       15.122      859.202
05/27/2013  19:20:00      -41.885      -42.589        9.135       68.817       44.732       29.798     4735.831     2000.926      887.903        0.564        0.381       59.735       34.917        0.342      340.966       15.353      859.187
05/27/2013  19:21:00     -147.915      -35.429       -2.231       57.968       60.463       35.779     3360.252     3655.760     1280.152        1.572        0.415      152.099       34.860        0.053      340.893       15.228      859.178
05/27/2013  19:22:00     -134.732     -130.426        6.317      154.606      105.100       48.434    23903.033    11045.976     2345.892        3.624        1.865      187.519       56.972        0.092      340.848       15.151      859.177
05/27/2013  19:23:00     -129.339     -257.324        1.009      132.571      129.125       83.781    17575.158    16673.307     7019.333        6.210        2.063      288.000       64.677        0.050      340.797       15.061      859.157
05/27/2013  19:24:00     -176.023      -20.957      -10.028       82.873       83.920       41.991     6867.933     7042.489     1763.273        2.360        0.784      177.266       24.083        0.018      340.805       15.076      859.184
05/27/2013  19:25:00     -184.487       -8.118      -16.100       79.160       84.931       45.953     6266.364     7213.243     2111.638        2.497        0.780      184.665       46.315        0.063      340.788       15.047      859.213
05/27/2013  19:26:00      -41.547       20.675       -8.606       45.841       57.120       19.442     2101.353     3262.639      378.008        0.398        0.287       46.407       17.518        0.142      340.817       15.098      859.195
05/27/2013  19:27:00     -123.466      -49.636       -7.264       84.808       62.350       22.137     7192.449     3887.523      490.038        1.466        0.579      133.070       22.381        0.028      340.848       15.149      859.198
05/27/2013  19:28:00     -150.795      -96.111        2.338      103.392       80.650       46.761    10689.999     6504.393     2186.588        2.568        0.969      178.819       40.278        0.051      340.851       15.155      859.249
05/27/2013  19:29:00      -88.491       34.157       12.676       88.467       59.817       37.083     7826.358     3578.092     1375.142        1.097        0.639       94.855       36.224        0.146      340.840       15.137      859.238
05/27/2013  19:30:00     -146.806       32.143       -8.671       96.724       43.916       38.819     9355.527     1928.593     1506.918        1.772        0.640      150.283       49.083        0.107      340.838       15.133      859.217
05/27/2013  19:31:00     -136.800        1.330        2.432       93.635       63.725       41.004     8767.564     4060.849     1681.329        1.661        0.725      136.807       46.884        0.117      340.843       15.142      859.228
05/27/2013  19:32:00     -170.668       29.707      -15.371      124.294       75.149       48.275    15449.015     5647.353     2330.497        2.683        1.171      173.234       55.783        0.104      340.798       15.066      859.251
05/27/2013  19:33:00     -237.832      104.862      -29.793       87.981       72.382       34.992     7740.687     5239.217     1224.413        4.132        0.710      259.923       28.572        0.012      340.787       15.046      859.239
05/27/2013  19:34:00     -165.100      -37.519       -9.456      101.268       74.800       51.223    10255.201     5595.115     2623.770        2.361        0.924      169.310       46.942        0.077      340.793       15.057      859.228
05/27/2013  19:35:00     -140.891      -26.653       -8.648       72.008       64.337       41.720     5185.219     4139.292     1740.564        1.585        0.553      143.390       30.863        0.046      340.782       15.040      859.241
05/27/2013  19:36:00     -109.739      -62.739       -0.108       56.966       40.251       24.679     3245.077     1620.142      609.070        1.073        0.274      126.408       23.780        0.035      340.843       15.143      859.251
05/27/2013  19:37:00      -54.264      -66.078       -6.553       58.693       57.947       38.311     3444.822     3357.816     1467.722        0.781        0.414       85.504       32.317        0.143      340.853       15.159      859.266
05/27/2013  19:38:00      -38.311      -75.245        5.072       43.652       57.103       30.639     1905.514     3260.730      938.778        0.663        0.305       84.437       18.689        0.049      340.853       15.161      859.271
05/27/2013  19:39:00     -114.573     -128.362       -0.343       64.862       66.014       34.519     4207.026     4357.794     1191.544        1.968        0.488      172.058       36.980        0.046      340.789       15.051      859.270
05/27/2013  19:40:00      -71.241      -87.900       -4.521       56.971       48.155       30.610     3245.653     2318.887      936.951        0.966        0.325      113.145       27.297        0.058      340.800       15.070      859.256
05/27/2013  19:41:00     -194.750     -140.003        0.633      132.291      107.020       49.947    17500.827    11453.268     2494.661        4.448        1.572      239.851       40.859        0.029      340.759       15.000      859.221
05/27/2013  19:42:00     -214.388     -154.536       18.040      171.174      108.816       73.489    29300.694    11840.980     5400.592        5.835        2.327      264.279       79.190        0.090      340.717       14.927      859.230
05/27/2013  19:43:00     -335.844     -129.534      -10.205      205.247      133.611       69.578    42126.192    17851.921     4841.102        9.724        3.241      359.958       83.138        0.053      340.628       14.778      859.228
05/27/2013  19:44:00     -386.616      -61.814      -19.750      149.647      121.131       50.809    22394.299    14672.812     2581.574        9.666        1.982      391.526       49.816        0.016      340.654       14.820      859.209
05/27/2013  19:45:00     -319.822     -180.286       -9.861      139.867      107.868       74.881    19562.900    11635.591     5607.154        8.584        1.840      367.136       65.784        0.032      340.683       14.871      859.235
05/27/2013  19:46:00     -196.239     -164.345       -3.528      123.531      113.479       61.064    15259.930    12877.544     3728.815        4.869        1.593      255.967       61.021        0.057      340.691       14.883      859.292
05/27/2013  19:47:00     -204.357     -183.040       -3.483      111.320      100.548       65.550    12392.060    10109.932     4296.775        5.103        1.340      274.346       60.179        0.048      340.693       14.887      859.296
05/27/2013  19:48:00     -165.989     -119.162       -3.118       99.706       61.321       46.745     9941.197     3760.237     2185.094        2.882        0.794      204.333       41.366        0.041      340.738       14.964      859.293
05/27/2013  19:49:00     -265.927      -37.521       -6.191       96.791       82.016       52.066     9368.418     6726.559     2710.869        4.548        0.940      268.561       51.766        0.037      340.623       14.767      859.290
05/27/2013  19:50:00     -177.964      -39.201        0.191       90.653       78.139       48.134     8217.987     6105.700     2316.929        2.492        0.832      182.230       47.606        0.068      340.660       14.832      859.278
05/27/2013  19:51:00     -226.025      -40.912       -4.604       96.127       70.688       53.605     9240.337     4996.753     2873.530        3.494        0.856      229.698       55.903        0.059      340.632       14.783      859.233
05/27/2013  19:52:00     -249.460      -66.672       -9.538       93.162       88.646       41.155     8679.140     7858.058     1693.715        4.250        0.912      258.216       24.025        0.009      340.611       14.748      859.218
05/27/2013  19:53:00     -292.605     -136.234      -25.080      118.709      127.756       49.419    14091.829    16321.646     2442.209        6.883        1.643      322.765       38.795        0.014      340.576       14.688      859.247
05/27/2013  19:54:00     -142.012     -197.735      -10.602       94.611       85.011       46.510     8951.258     7226.872     2163.146        3.886        0.917      243.448       38.560        0.025      340.529       14.609      859.193
05/27/2013  19:55:00     -266.806      -43.439      -31.496       76.028       69.404       31.767     5780.195     4816.974     1009.133        4.283        0.580      270.319       35.892        0.018      340.523       14.601      859.116
05/27/2013  19:56:00     -213.767     -100.010       -6.479       57.054       55.705       33.578     3255.124     3103.084     1127.479        3.161        0.374      236.005       30.785        0.017      340.580       14.694      859.124
05/27/2013  19:57:00     -150.172      -29.823       -3.890       76.087       81.597       43.225     5789.305     6658.125     1868.396        1.888        0.716      153.105       31.819        0.043      340.600       14.730      859.079
05/27/2013  19:58:00     -308.395      -81.231      -33.291       74.579       74.516       52.477     5562.057     5552.683     2753.856        5.834        0.693      318.913       46.299        0.021      340.522       14.597      859.003
05/27/2013  19:59:00     -320.992      -85.677      -23.128      103.079      110.783       38.910    10625.248    12272.815     1513.968        6.766        1.221      332.229       38.880        0.014      340.527       14.606      858.944
05/27/2013  20:00:00     -237.052     -116.415       -9.070      133.717      115.837       53.525    17880.217    13418.137     2864.950        5.199        1.708      264.095       56.303        0.045      340.550       14.647      858.890
05/27/2013  20:01:00     -187.535      -12.507      -19.772      117.047       96.464       31.892    13700.027     9305.239     1017.110        2.987        1.201      187.952       30.350        0.026      340.528       14.610      858.851
05/27/2013  20:02:00     -148.720       39.800      -17.128       92.471       95.864       43.825     8550.967     9189.822     1920.663        2.182        0.983      153.954       38.558        0.063      340.547       14.641      858.836
05/27/2013  20:03:00     -146.047       18.404       -2.213       99.853       69.573       38.489     9970.693     4840.381     1481.409        1.898        0.815      147.202       52.780        0.129      340.556       14.656      858.726
05/27/2013  20:04:00     -116.992      -16.124        2.053      112.890       57.146       39.731    12744.050     3265.649     1578.531        1.577        0.879      118.097       47.131        0.159      340.592       14.718      858.736
05/27/2013  20:05:00     -183.792      -38.651        0.392      158.668       77.435       45.130    25175.634     5996.191     2036.694        3.424        1.660      187.812       54.436        0.084      340.558       14.662      858.726
05/27/2013  20:06:00     -127.410      -78.765        8.744      116.143       91.638       49.565    13489.138     8397.547     2456.688        2.342        1.217      149.791       56.705        0.143      340.612       14.751      858.724
05/27/2013  20:07:00     -257.617     -156.090       -6.210      117.479      118.360       54.841    13801.390    14009.027     3007.486        6.079        1.541      301.215       49.868        0.027      340.535       14.618      858.747
05/27/2013  20:08:00     -190.777      -59.234        6.976      125.884       78.305       49.105    15846.757     6131.724     2411.259        3.217        1.219      199.761       55.768        0.078      340.510       14.578      858.754
05/27/2013  20:09:00     -171.332     -134.311        2.498       90.909       77.902       48.990     8264.433     6068.685     2400.016        3.206        0.837      217.702       44.523        0.042      340.532       14.616      858.786
05/27/2013  20:10:00     -182.343      -80.365       -9.019       58.112       87.252       41.904     3376.979     7612.959     1755.957        2.627        0.637      199.268       29.856        0.022      340.545       14.635      858.796
05/27/2013  20:11:00     -134.625     -101.039      -11.127      115.166      101.350       58.194    13263.232    10271.795     3386.550        2.768        1.346      168.323       45.331        0.073      340.566       14.672      858.787
05/27/2013  20:12:00     -172.894       10.925      -18.358       62.410       70.636       45.121     3894.974     4989.412     2035.876        2.063        0.546      173.239       36.539        0.044      340.521       14.598      858.790
05/27/2013  20:13:00     -136.763       34.181       -9.397       58.966       45.643       35.047     3476.978     2083.264     1228.281        1.337        0.339      140.970       24.018        0.029      340.522       14.601      858.756
05/27/2013  20:14:00     -151.905      -37.631      -23.348       63.613       49.783       31.074     4046.577     2478.377      965.616        1.626        0.375      156.497       23.288        0.022      340.522       14.596      858.732
05/27/2013  20:15:00     -125.530       -1.919      -13.955       31.284       41.737       19.527      978.669     1741.960      381.284        0.953        0.155      125.544       15.753        0.016      340.493       14.546      858.686
05/27/2013  20:16:00      -61.542       -7.043      -12.313       24.532       28.483       13.679      601.835      811.306      187.119        0.279        0.080       61.944        9.349        0.023      340.516       14.586      858.664
05/27/2013  20:17:00      -50.302      -11.192       -5.684       26.317       19.202       14.001      692.565      368.713      196.026        0.197        0.063       51.533       13.976        0.074      340.526       14.610      858.636
05/27/2013  20:18:00     -109.474       -8.572      -14.856       47.224       51.461       25.609     2230.147     2648.233      655.843        0.891        0.277      109.809       16.502        0.023      340.518       14.593      858.615
05/27/2013  20:19:00     -208.782       21.702      -16.019       70.619       53.196       33.126     4987.011     2829.842     1097.320        2.661        0.446      209.907       31.510        0.023      340.482       14.527      858.628
05/27/2013  20:20:00     -186.423      -42.470        1.075      128.289       84.054       49.827    16458.160     7065.095     2482.707        3.128        1.300      191.199       61.187        0.102      340.491       14.544      858.642
05/27/2013  20:21:00     -251.828       31.806      -25.694       86.808       77.651       37.808     7535.638     6029.669     1429.482        4.004        0.750      253.828       24.333        0.009      340.461       14.495      858.670
05/27/2013  20:22:00     -321.300      -37.848      -24.145      105.580       94.349       53.526    11147.185     8901.686     2864.989        6.408        1.146      323.521       53.046        0.027      340.454       14.482      858.691
05/27/2013  20:23:00     -142.131      -26.039        0.085      100.250      100.684       30.569    10050.104    10137.348      934.486        2.100        1.056      144.497       21.244        0.022      340.469       14.508      858.700
05/27/2013  20:24:00     -152.628       52.509      -13.484       84.040       83.924       45.118     7062.760     7043.289     2035.589        2.119        0.807      161.408       41.990        0.068      340.451       14.478      858.690
05/27/2013  20:25:00     -184.490      -52.726       -2.150       90.438       94.501       44.984     8179.121     8930.425     2023.587        2.797        0.957      191.877       45.988        0.057      340.472       14.513      858.700
05/27/2013  20:26:00     -236.750       -0.103      -33.425      113.392       81.973       50.999    12857.676     6719.595     2600.943        3.967        1.109      236.750       53.244        0.051      340.454       14.482      858.711
05/27/2013  20:27:00     -131.988      -39.258      -28.185       74.250       37.071       39.067     5513.105     1374.226     1526.220        1.408        0.421      137.703       40.082        0.085      340.463       14.499      858.728
05/27/2013  20:28:00     -122.158      -56.542       -1.034      106.090       66.211       43.036    11255.185     4383.903     1852.129        1.780        0.875      134.609       56.224        0.174      340.481       14.530      858.764
05/27/2013  20:29:00     -180.766       44.935      -24.770       75.945       59.913       30.130     5767.646     3589.540      907.796        2.279        0.513      186.268       26.800        0.021      340.451       14.479      858.768
05/27/2013  20:30:00     -140.656       29.043      -11.385       62.701       60.355       37.346     3931.467     3642.695     1394.732        1.486        0.448      143.624       38.787        0.073      340.418       14.424      858.748
05/27/2013  20:31:00      -62.727       24.522       13.013       58.012       43.345       25.739     3365.337     1878.813      662.472        0.531        0.295       67.350       21.955        0.106      340.443       14.467      858.714
05/27/2013  20:32:00     -105.484        4.276        5.361       58.690       72.892       41.971     3444.505     5313.315     1761.527        1.084        0.526      105.571       34.684        0.108      340.417       14.421      858.688
05/27/2013  20:33:00     -113.630      -44.010       -6.222       43.885       33.636       29.017     1925.933     1131.359      841.999        0.939        0.195      121.855       23.098        0.036      340.455       14.485      858.645
05/27/2013  20:34:00      -60.462       14.188       -7.041       73.943       80.718       32.273     5467.627     6515.456     1041.568        0.846        0.651       62.104       34.467        0.308      340.417       14.421      858.600
05/27/2013  20:35:00      -91.703       82.416       -3.537       57.407       40.746       30.243     3295.557     1660.270      914.611        1.054        0.294      123.296       29.510        0.057      340.359       14.324      858.561
05/27/2013  20:36:00      -59.665       43.917       -7.425       42.653       32.507       21.674     1819.276     1056.715      469.775        0.444        0.167       74.085       18.849        0.065      340.380       14.363      858.541
05/27/2013  20:37:00      -92.557      -26.574       -0.133       44.239       49.894       19.732     1957.061     2489.409      389.339        0.705        0.242       96.296       11.993        0.016      340.382       14.366      858.543
05/27/2013  20:38:00     -143.599      -54.259      -14.929       71.002       51.712       37.992     5041.347     2674.147     1443.382        1.647        0.458      153.508       39.499        0.066      340.357       14.319      858.572
05/27/2013  20:39:00      -54.493      -16.077       -7.504       49.208       27.082       19.831     2421.428      733.451      393.270        0.342        0.177       56.816        9.642        0.029      340.365       14.338      858.574
05/27/2013  20:40:00     -193.207      -52.412       -9.324       72.081       72.068       37.127     5195.694     5193.782     1378.429        2.596        0.588      200.189       32.315        0.026      340.403       14.399      858.589
05/27/2013  20:41:00     -170.605      -23.232       -9.412       92.277       65.503       43.227     8515.078     4290.675     1868.555        2.220        0.734      172.180       40.180        0.054      340.365       14.334      858.584
05/27/2013  20:42:00     -340.565       12.154      -23.212      119.592      106.779       59.766    14302.149    11401.784     3571.992        7.297        1.464      340.782       61.144        0.032      340.310       14.239      858.571
05/27/2013  20:43:00     -371.015     -135.897      -14.826      108.242       80.734       51.216    11716.361     6517.937     2623.102        8.860        1.043      395.121       46.670        0.014      340.307       14.234      858.550
05/27/2013  20:44:00     -121.950      -42.779        0.819       95.834       71.722       50.262     9184.135     5143.992     2526.227        1.678        0.843      129.235       40.535        0.098      340.343       14.296      858.596
05/27/2013  20:45:00      -95.708       -4.199       -0.143       57.483       54.622       33.436     3304.315     2983.598     1117.940        0.829        0.370       95.801       26.417        0.076      340.348       14.303      858.611
05/27/2013  20:46:00     -158.208      -57.362      -10.054      122.348       53.613       33.332    14969.141     2874.314     1111.030        2.368        0.948      168.286       33.022        0.039      340.325       14.266      858.584
05/27/2013  20:47:00     -179.803     -111.397      -25.786      106.302       64.826       39.938    11300.119     4202.444     1595.065        3.125        0.855      211.514       43.752        0.043      340.289       14.204      858.579
05/27/2013  20:48:00     -156.515      -50.829       -4.802       65.747       51.679       25.751     4322.701     2670.741      663.129        1.738        0.383      164.562       22.308        0.018      340.316       14.251      858.624
05/27/2013  20:49:00      -42.655      -47.929        2.966       71.526       48.344       30.276     5116.032     2337.166      916.608        0.625        0.418       64.161       35.191        0.301      340.367       14.337      858.640
05/27/2013  20:50:00      -33.579       28.867       14.929       36.810       27.912       31.935     1354.971      779.107     1019.823        0.267        0.158       44.282       28.656        0.419      340.400       14.394      858.621
05/27/2013  20:51:00     -125.486      -18.293       -6.459       69.228       48.648       33.834     4792.503     2366.646     1144.760        1.221        0.415      126.812       32.573        0.066      340.289       14.204      858.637
05/27/2013  20:52:00     -191.593      -55.202      -15.196       77.491       60.452       29.445     6004.912     3654.478      866.997        2.525        0.526      199.387       32.805        0.027      340.254       14.147      858.644
05/27/2013  20:53:00     -108.352     -103.738       10.360       94.953       91.908       43.373     9015.981     8446.997     1881.185        2.097        0.967      150.005       42.578        0.081      340.270       14.172      858.656
05/27/2013  20:54:00      -73.003      -18.684       -5.814       54.091      125.227       35.920     2925.793    15681.851     1290.271        1.280        0.995       75.356       39.778        0.279      340.256       14.150      858.651
05/27/2013  20:55:00      -57.326      -26.247       12.895       55.475       48.474       33.441     3077.451     2349.776     1118.282        0.534        0.327       63.049       34.225        0.295      340.264       14.164      858.654
05/27/2013  20:56:00      -21.063      -33.639        7.988       47.405       31.152       22.578     2247.246      970.417      509.757        0.268        0.186       39.689       14.535        0.134      340.343       14.296      858.660
05/27/2013  20:57:00     -120.008      -26.937       -0.142       70.540       42.367       33.335     4975.830     1794.921     1111.193        1.150        0.394      122.994       32.274        0.069      340.258       14.155      858.652
05/27/2013  20:58:00      -92.471      -76.643       -1.529       62.706       55.847       30.374     3932.071     3118.853      922.601        1.120        0.399      120.104       31.197        0.067      340.295       14.217      858.651
05/27/2013  20:59:00     -149.898      -58.462       -4.764       77.260       61.484       38.833     5969.061     3780.243     1508.039        1.858        0.563      160.895       37.672        0.055      340.241       14.126      858.636
05/27/2013  21:00:00      -18.116     -125.565       -0.670       94.362       72.441       44.714     8904.138     5247.646     1999.314        1.612        0.808      126.866       31.053        0.060      340.359       14.322      858.613
05/27/2013  21:01:00       14.206     -118.244      -12.980       83.357       61.513       46.894     6948.308     3783.814     2199.077        1.364        0.647      119.094       36.249        0.093      340.363       14.331      858.573
05/27/2013  21:02:00      -56.538     -163.063        9.810       92.342      116.277       37.473     8527.019    13520.270     1404.259        2.666        1.173      172.587       40.158        0.054      340.328       14.271      858.586
05/27/2013  21:03:00     -152.932      -95.194        4.356       84.787       87.671       43.237     7188.878     7686.210     1869.402        2.460        0.837      180.139       36.236        0.040      340.286       14.200      858.597
05/27/2013  21:04:00     -252.908      -61.569       -0.430       93.944       71.760       41.334     8825.476     5149.452     1708.527        4.172        0.784      260.295       45.233        0.030      340.279       14.185      858.596
05/27/2013  21:05:00     -185.070     -101.929        6.367      127.720       56.137       41.366    16312.334     3151.343     1711.178        3.292        1.059      211.283       48.888        0.054      340.229       14.101      858.613
05/27/2013  21:06:00      -47.704      -69.960       10.692       61.091       56.536       39.290     3732.120     3196.349     1543.704        0.788        0.424       84.677       38.989        0.212      340.276       14.183      858.652
05/27/2013  21:07:00      -94.665      -34.223        2.880       54.535      111.608       31.122     2974.088    12456.376      968.591        1.327        0.820      100.661       33.640        0.112      340.224       14.093      858.669
05/27/2013  21:08:00     -221.058      -97.387      -10.065       97.904       77.000       39.503     9585.108     5928.945     1560.469        3.776        0.854      241.559       42.187        0.031      340.219       14.085      858.662
05/27/2013  21:09:00     -271.398     -134.045      -13.121      101.150       93.827       46.491    10231.334     8803.447     2161.425        5.649        1.060      302.696       45.117        0.022      340.187       14.031      858.662
05/27/2013  21:10:00     -149.642      -98.704        4.365      114.104       84.460       48.909    13019.639     7133.565     2392.075        2.735        1.127      179.263       49.898        0.077      340.186       14.029      858.639
05/27/2013  21:11:00     -122.700      -76.435       16.884      136.431       75.481       50.667    18613.387     5697.352     2567.102        2.403        1.344      144.560       69.577        0.232      340.208       14.066      858.616
05/27/2013  21:12:00     -151.792       -8.579        1.928      131.593       60.440       39.430    17316.596     3652.966     1554.709        2.282        1.126      152.035       53.853        0.125      340.173       14.009      858.595
05/27/2013  21:13:00     -372.287      -47.098      -35.401      154.434      108.831       58.347    23849.846    11844.183     3404.420        9.058        1.955      375.255       66.459        0.031      340.120       13.918      858.551
05/27/2013  21:14:00     -240.618      -10.545      -13.615      113.803       71.858       44.989    12951.157     5163.604     2023.991        3.916        1.007      240.849       47.151        0.038      340.123       13.925      858.571
05/27/2013  21:15:00     -263.819     -119.562      -21.103      101.782       65.179       41.238    10359.582     4248.365     1700.609        5.032        0.815      289.647       29.363        0.010      340.102       13.888      858.597
05/27/2013  21:16:00     -151.305      -60.111       -6.775      127.765      120.585       53.406    16323.952    14540.635     2852.212        3.013        1.686      162.808       74.706        0.211      340.072       13.840      858.611
05/27/2013  21:17:00     -185.447      -91.834        2.209      107.066      135.974       62.149    11463.025    18489.058     3862.497        3.832        1.691      206.940       61.244        0.088      340.026       13.759      858.631
05/27/2013  21:18:00     -178.490      -74.455        6.117       85.141       95.178       45.809     7249.040     9058.912     2098.473        2.792        0.920      193.397       39.548        0.042      339.980       13.684      858.623
05/27/2013  21:19:00     -123.673      -38.700        2.092       75.719       64.186       39.865     5733.332     4119.793     1589.237        1.412        0.572      129.587       39.404        0.092      339.942       13.620      858.624
05/27/2013  21:20:00     -185.471      -28.490      -20.415       46.650       43.503       29.406     2176.252     1892.524      864.706        2.028        0.247      187.646       21.306        0.013      339.938       13.613      858.588
05/27/2013  21:21:00     -248.927      -55.747      -17.426       95.717       89.626       43.683     9161.727     8032.776     1908.224        4.224        0.955      255.092       48.925        0.037      339.904       13.554      858.555
05/27/2013  21:22:00     -351.190     -207.360      -16.177      208.848      116.894       75.397    43617.303    13664.120     5684.738       11.477        3.148      407.839       81.389        0.040      339.959       13.647      858.470
05/27/2013  21:23:00     -220.802     -174.928        0.188      121.244      108.871       65.834    14700.089    11852.967     4334.092        5.512        1.544      281.697       63.431        0.051      339.964       13.656      858.457
05/27/2013  21:24:00     -186.073     -145.917       15.423      106.186       95.104       58.934    11275.511     9044.792     3473.187        3.997        1.190      236.463       52.054        0.048      339.932       13.601      858.477
05/27/2013  21:25:00      -79.969      -22.584       -5.781       53.101       72.599       30.008     2819.709     5270.643      900.467        0.796        0.450       83.097       23.541        0.080      339.936       13.610      858.504
05/27/2013  21:26:00     -104.543      -43.086        0.442       56.814       47.983       30.333     3227.787     2302.359      920.106        0.962        0.323      113.074       21.415        0.036      339.912       13.570      858.537
05/27/2013  21:27:00     -191.450      -49.937       -4.378       66.118       59.237       31.507     4371.640     3509.081      992.660        2.402        0.444      197.856       30.991        0.025      339.930       13.601      858.576
05/27/2013  21:28:00     -145.414      -75.622       -0.411       89.116       73.085       35.037     7941.614     5341.433     1227.586        2.068        0.726      163.902       35.343        0.046      339.907       13.562      858.550
05/27/2013  21:29:00     -248.142      -76.822      -22.950      133.759       93.243       58.500    17891.446     8694.189     3422.302        4.900        1.500      259.762       68.259        0.069      339.911       13.566      858.512
05/27/2013  21:30:00     -172.734      -88.669        1.854      104.143       82.279       45.931    10845.785     6769.899     2109.678        2.871        0.986      194.163       52.641        0.074      339.935       13.607      858.481
05/27/2013  21:31:00     -123.760     -111.627        1.137       90.198       79.121       47.952     8135.760     6260.188     2299.415        2.223        0.835      166.665       47.762        0.082      339.936       13.610      858.456
05/27/2013  21:32:00      -90.767      -52.627        7.224      130.747       71.809       66.221    17094.823     5156.556     4385.179        1.884        1.332      104.920       70.389        0.450      339.956       13.643      858.460
05/27/2013  21:33:00     -103.326      -56.736        6.132       85.766       71.047       44.216     7355.763     5047.707     1955.097        1.414        0.718      117.878       48.192        0.167      339.926       13.593      858.518
05/27/2013  21:34:00      -84.212      -54.633        6.068       74.867       76.472       51.180     5604.994     5847.966     2619.425        1.209        0.704      100.382       48.654        0.235      339.957       13.646      858.544
05/27/2013  21:35:00     -204.484     -142.026       -3.551      134.459       86.923       58.374    18079.312     7555.624     3407.572        4.552        1.452      248.969       61.912        0.062      339.973       13.671      858.539
05/27/2013  21:36:00     -184.820      -43.845       -7.953      130.525       95.008       47.175    17036.656     9026.589     2225.441        3.221        1.414      189.950       54.071        0.081      339.953       13.637      858.533
05/27/2013  21:37:00     -220.731      -93.107       -8.694       84.162       99.398       48.304     7083.320     9879.911     2333.308        3.838        0.965      239.565       49.626        0.043      339.956       13.641      858.495
05/27/2013  21:38:00     -262.994      -59.225      -32.652       81.789       59.389       39.182     6689.476     3527.037     1535.223        4.274        0.588      269.580       34.772        0.017      339.966       13.658      858.452
05/27/2013  21:39:00      -98.223     -107.141       -7.237       71.243       72.270       43.203     5075.559     5222.957     1866.490        1.667        0.608      145.352       42.781        0.087      339.975       13.675      858.438
05/27/2013  21:40:00      -56.477      -66.464       17.313      105.819       70.076       65.362    11197.557     4910.701     4272.184        1.414        1.019       87.219       59.062        0.459      339.998       13.713      858.432
05/27/2013  21:41:00     -264.026     -138.399       -7.781      141.512      123.079       62.095    20025.626    15148.444     3855.809        6.397        1.951      298.101       70.587        0.056      339.962       13.650      858.431
05/27/2013  21:42:00     -188.242     -148.742       -7.461      109.030       88.245       53.006    11887.517     7787.134     2809.655        4.005        1.124      239.915       54.938        0.052      339.980       13.682      858.419
05/27/2013  21:43:00     -159.254      -87.359      -10.619      108.260       98.302       62.675    11720.249     9663.266     3928.118        2.920        1.266      181.641       53.501        0.087      339.989       13.697      858.377
05/27/2013  21:44:00     -115.705      -68.536        5.215       78.069      102.892       41.864     6094.715    10586.668     1752.588        1.827        0.922      134.480       43.789        0.106      339.948       13.630      858.360
05/27/2013  21:45:00     -206.434      -53.112       -7.875       77.274       77.123       39.087     5971.346     5947.894     1527.830        2.947        0.672      213.157       32.219        0.023      339.937       13.610      858.365
05/27/2013  21:46:00     -148.177       -7.231       -9.459       76.272       64.287       37.366     5817.380     4132.831     1396.250        1.672        0.567      148.353       38.647        0.068      339.921       13.586      858.350
05/27/2013  21:47:00      -74.139       24.249        7.358       46.786       37.260       29.122     2188.905     1388.335      848.118        0.528        0.221       78.004       26.212        0.113      339.904       13.556      858.354
05/27/2013  21:48:00     -178.751       -1.927      -13.195       86.082      104.248       52.058     7410.118    10867.616     2710.086        2.656        1.049      178.762       53.495        0.090      339.921       13.583      858.374
05/27/2013  21:49:00     -224.720      -40.488       -8.135      150.487      103.689       57.353    22646.406    10751.417     3289.314        4.444        1.834      228.338       65.588        0.083      339.879       13.513      858.360
05/27/2013  21:50:00     -182.741     -131.578       -8.336      122.147      118.774       50.221    14920.005    14107.279     2522.176        4.116        1.577      225.183       52.477        0.054      339.942       13.619      858.362
05/27/2013  21:51:00     -184.086     -118.706       -5.769      122.537       97.029       54.967    15015.436     9414.629     3021.408        3.773        1.373      219.040       53.763        0.060      339.977       13.677      858.380
05/27/2013  21:52:00     -143.168      -62.439       -2.224      104.648       69.766       44.397    10951.233     4867.335     1971.108        2.109        0.889      156.191       52.577        0.113      339.978       13.680      858.375
05/27/2013  21:53:00     -187.761     -103.166       -7.389       99.581       94.940       56.578     9916.436     9013.682     3201.123        3.404        1.107      214.237       49.761        0.054      339.947       13.628      858.396
05/27/2013  21:54:00     -200.774      -31.656       -5.188      118.979       95.232       47.663    14156.082     9069.058     2271.781        3.341        1.275      203.254       59.934        0.087      339.955       13.639      858.413
05/27/2013  21:55:00     -168.260      -87.081        5.302      110.958       79.954       46.959    12311.578     6392.614     2205.103        2.841        1.045      189.459       55.906        0.087      339.937       13.610      858.421
05/27/2013  21:56:00     -110.914       -7.529       14.478       85.610       84.828       49.505     7329.025     7195.795     2450.782        1.477        0.849      111.169       40.283        0.131      339.938       13.614      858.453
05/27/2013  21:57:00     -158.968      -12.833       -0.091       97.624      104.259       46.630     9530.392    10869.882     2174.371        2.400        1.129      159.485       52.201        0.107      339.962       13.654      858.473
05/27/2013  21:58:00     -167.778     -103.650      -13.916       97.300       70.702       56.612     9467.264     4998.735     3204.881        2.838        0.884      197.213       47.812        0.059      339.992       13.704      858.483
05/27/2013  21:59:00     -333.501      -48.914      -22.826      157.047       97.915       58.984    24663.731     9587.375     3479.089        7.593        1.887      337.069       73.019        0.047      339.995       13.706      858.487
05/27/2013  22:00:00     -155.838      -30.478        8.138      125.609       96.472       51.005    15777.742     9306.770     2601.493        2.648        1.384      158.790       53.708        0.114      340.011       13.736      858.502
05/27/2013  22:01:00     -280.344     -148.160       -9.015      119.580       92.775       65.861    14299.274     8607.262     4337.702        6.393        1.362      317.087       55.132        0.030      340.017       13.744      858.510
05/27/2013  22:02:00     -223.408      -90.953      -12.592       94.136       65.086       39.732     8861.659     4236.195     1578.666        3.651        0.734      241.213       22.798        0.009      340.016       13.742      858.504
05/27/2013  22:03:00      -91.854      -77.824        1.449       70.256       62.545       39.188     4935.865     3911.850     1535.680        1.244        0.519      120.390       35.423        0.087      340.039       13.783      858.478
05/27/2013  22:04:00     -147.606      -63.977       21.222      107.429       90.077       51.556    11540.920     8113.911     2658.017        2.432        1.116      160.874       47.607        0.088      340.036       13.777      858.480
05/27/2013  22:05:00     -288.854     -210.011       -7.341      153.430      127.522       63.415    23540.706    16261.738     4021.520        8.570        2.191      357.130       63.344        0.031      340.036       13.775      858.486
05/27/2013  22:06:00     -184.430     -120.521        9.610      147.245      116.553       58.993    21680.984    13584.498     3480.181        4.368        1.937      220.317       70.569        0.103      340.044       13.789      858.501
05/27/2013  22:07:00     -294.799     -191.928      -13.532      165.136      134.829       75.599    27269.881    18178.798     5715.175        8.754        2.558      351.771       77.187        0.048      340.037       13.776      858.490
05/27/2013  22:08:00     -373.397     -166.925      -18.555      223.981      166.413       88.933    50167.442    27693.157     7909.155       12.669        4.288      409.010      104.169        0.065      339.992       13.703      858.461
05/27/2013  22:09:00     -471.597     -246.303      -30.972      186.330      172.541       84.082    34718.880    29770.548     7069.770       17.778        3.578      532.042       90.788        0.029      339.944       13.621      858.453
05/27/2013  22:10:00     -333.614      -76.763       -6.466      243.501      127.390       89.005    59292.955    16228.316     7921.901       10.032        4.172      342.331      110.430        0.104      339.844       13.454      858.460
05/27/2013  22:11:00     -344.551      -56.905      -12.562      201.149      125.052       70.221    40460.762    15637.985     4930.937        9.156        3.051      349.219       78.257        0.050      339.782       13.349      858.477
05/27/2013  22:12:00     -379.216     -244.031      -22.080      145.266      124.386       71.344    21102.137    15472.000     5089.984       12.275        2.083      450.950       61.703        0.019      339.776       13.339      858.453
05/27/2013  22:13:00     -239.581     -158.942       -3.883      162.695      134.833       76.459    26469.669    18180.029     5846.026        6.658        2.525      287.509       79.672        0.077      339.765       13.319      858.417
05/27/2013  22:14:00     -362.706     -117.209      -32.365      153.298      131.421       62.208    23500.249    17271.349     3869.804        9.548        2.232      381.174       65.330        0.029      339.706       13.221      858.384
05/27/2013  22:15:00     -200.809      -63.264        1.497      133.618      113.197       64.771    17853.747    12813.476     4195.322        3.959        1.743      210.539       62.646        0.089      339.641       13.111      858.384
05/27/2013  22:16:00     -237.680     -100.450       20.597      165.993      117.420       63.222    27553.786    13787.457     3997.013        5.616        2.267      258.035       78.750        0.093      339.579       13.006      858.381
05/27/2013  22:17:00     -276.441     -126.004      -18.712      137.430       85.567       52.599    18887.072     7321.736     2766.682        6.081        1.449      303.804       41.252        0.018      339.571       12.993      858.372
05/27/2013  22:18:00     -274.042      -41.766       -9.533      103.930       80.566       53.421    10801.495     6490.806     2853.802        4.854        1.007      277.206       57.974        0.044      339.520       12.905      858.362
05/27/2013  22:19:00     -225.122     -113.688        8.724      154.481      111.327       68.090    23864.407    12393.665     4636.225        5.228        2.045      252.200       84.824        0.113      339.552       12.960      858.363
05/27/2013  22:20:00     -237.321      -92.565       -1.178      170.965      121.150       73.850    29228.993    14677.349     5453.871        5.712        2.468      254.734       94.581        0.138      339.513       12.894      858.359
05/27/2013  22:21:00     -261.814      -94.403      -13.687      111.605      131.124       61.889    12455.577    17193.558     3830.247        5.556        1.674      278.314       64.146        0.053      339.517       12.902      858.322
05/27/2013  22:22:00     -173.098      -96.544       -1.453      114.529       82.526       52.370    13116.913     6810.565     2742.655        3.097        1.134      198.201       50.788        0.066      339.513       12.894      858.259
05/27/2013  22:23:00     -190.237      -57.302        9.415      146.790      151.274       52.367    21547.297    22883.836     2742.254        4.336        2.359      198.680       53.311        0.072      339.505       12.881      858.195
05/27/2013  22:24:00     -178.816     -131.344       -5.795      140.740      130.723       68.824    19807.724    17088.607     4736.748        4.544        2.082      221.871       77.148        0.121      339.539       12.938      858.174
05/27/2013  22:25:00     -273.020     -115.345       -9.893      138.580       99.124       70.049    19204.430     9825.525     4906.862        6.093        1.697      296.385       75.328        0.065      339.557       12.969      858.205
05/27/2013  22:26:00     -307.441      -92.526      -12.277      149.023      111.753       58.000    22207.861    12488.694     3364.050        7.064        1.903      321.062       62.562        0.038      339.579       13.007      858.198
05/27/2013  22:27:00     -328.667     -172.444      -13.241      154.772      102.172       69.231    23954.424    10439.184     4792.877        8.855        1.959      371.159       69.125        0.035      339.581       13.011      858.179
05/27/2013  22:28:00     -181.007      -87.495       12.945      117.331      115.801       60.994    13766.585    13409.806     3720.321        3.574        1.545      201.045       71.201        0.125      339.567       12.986      858.177
05/27/2013  22:29:00     -187.799     -155.951       -5.545      120.258      111.996       61.502    14462.079    12543.003     3782.502        4.520        1.539      244.109       61.309        0.063      339.576       13.002      858.157
05/27/2013  22:30:00     -185.916     -134.645        5.386      146.288      128.396       57.857    21400.315    16485.434     3347.459        4.697        2.062      229.552       61.036        0.071      339.578       13.005      858.135
05/27/2013  22:31:00     -305.224     -234.337      -15.383      172.397      139.581       89.550    29720.775    19482.815     8019.163       10.276        2.861      384.806       89.900        0.055      339.661       13.141      858.114
05/27/2013  22:32:00     -297.776     -132.646      -12.371      129.111      120.939       52.555    16669.646    14626.193     2762.050        7.023        1.703      325.983       55.356        0.029      339.652       13.128      858.083
05/27/2013  22:33:00     -236.380      -73.654      -15.542       98.325       76.707       59.534     9667.815     5884.032     3544.308        4.032        0.955      247.589       51.584        0.043      339.628       13.088      858.084
05/27/2013  22:34:00     -195.248      -79.233       -8.909      156.191       87.396       67.898    24395.518     7638.027     4610.135        4.056        1.832      210.712       88.379        0.176      339.598       13.040      858.080
05/27/2013  22:35:00     -147.816      -92.214       31.969      159.896       98.240       63.547    25566.656     9651.154     4038.161        3.531        1.963      174.221       73.022        0.176      339.633       13.099      858.097
05/27/2013  22:36:00     -331.027      -65.238      -12.897      144.053      112.244       58.272    20751.379    12598.760     3395.640        7.537        1.837      337.394       50.498        0.022      339.621       13.076      858.132
05/27/2013  22:37:00     -257.501      -56.232      -18.074      130.478       90.335       53.869    17024.383     8160.330     2901.893        4.894        1.404      263.569       62.670        0.057      339.607       13.053      858.155
05/27/2013  22:38:00     -258.061     -182.169      -10.378      195.228      158.879       86.790    38113.984    25242.508     7532.521        8.538        3.544      315.881      100.447        0.101      339.621       13.076      858.144
05/27/2013  22:39:00     -133.558      -83.799       11.101      128.716      108.973       75.120    16567.836    11875.217     5642.984        2.953        1.704      157.670       84.412        0.287      339.627       13.088      858.129
05/27/2013  22:40:00     -188.659      -50.693        6.583      127.772      120.515       64.125    16325.630    14523.840     4112.038        3.658        1.748      195.351       49.200        0.063      339.618       13.072      858.102
05/27/2013  22:41:00     -235.138     -128.357        6.476      160.224      113.332       68.657    25671.804    12844.171     4713.811        5.751        2.161      267.891       86.849        0.105      339.624       13.082      858.031
05/27/2013  22:42:00     -370.761     -191.875       -6.949      250.145      167.303       75.455    62572.696    27990.206     5693.524       13.528        4.813      417.468      108.942        0.068      339.631       13.094      857.973
05/27/2013  22:43:00     -242.788      -50.776       -8.074      150.635      117.901       69.103    22690.779    13900.583     4775.199        5.147        2.068      248.040       74.516        0.090      339.573       12.998      858.007
05/27/2013  22:44:00     -302.808      -74.742       -9.950      144.258      114.837       61.639    20810.259    13187.509     3799.325        6.758        1.890      311.896       63.099        0.041      339.564       12.981      858.067
05/27/2013  22:45:00     -334.717      -52.098      -26.043      132.969       87.369       63.176    17680.762     7633.335     3991.269        7.236        1.465      338.748       70.497        0.043      339.588       13.021      858.122
05/27/2013  22:46:00     -191.597      -87.860        3.103      167.253       86.067       67.384    27973.589     7407.476     4540.669        4.217        1.996      210.782       82.126        0.152      339.586       13.019      858.155
05/27/2013  22:47:00     -280.571      -59.723      -12.480      124.692      112.792       60.325    15548.193    12721.928     3639.083        5.717        1.595      286.857       52.839        0.034      339.549       12.955      858.162
05/27/2013  22:48:00     -386.947      -47.008      -12.442      131.730       94.462       62.465    17352.669     8923.144     3901.828        9.113        1.509      389.792       67.110        0.030      339.545       12.947      858.147
05/27/2013  22:49:00     -174.388      -55.516        1.395      111.020       89.390       46.046    12325.416     7990.630     2120.195        2.796        1.122      183.011       38.434        0.044      339.528       12.919      858.092
05/27/2013  22:50:00     -313.651      -24.172       -6.358      135.503      115.994       62.519    18360.930    13454.634     3908.638        6.736        1.786      314.581       59.484        0.036      339.539       12.940      858.036
05/27/2013  22:51:00     -296.078     -101.801       -8.625      120.575      100.769       52.978    14538.248    10154.478     2806.648        6.280        1.375      313.090       55.339        0.031      339.534       12.930      858.093
05/27/2013  22:52:00     -283.852     -220.524      -13.335      123.311      105.424       74.538    15205.701    11114.169     5555.865        8.062        1.594      359.448       65.179        0.033      339.549       12.956      858.115
05/27/2013  22:53:00     -121.990      -86.618       12.138      118.107      103.983       65.197    13949.206    10812.426     4250.674        2.577        1.451      149.613       65.116        0.189      339.578       13.006      858.105
05/27/2013  22:54:00     -273.202      -25.343       -8.082      104.859       88.068       50.450    10995.459     7756.045     2545.243        4.832        1.065      274.375       52.291        0.036      339.514       12.896      858.084
05/27/2013  22:55:00     -392.736      -31.606      -15.748      136.663      103.164       67.300    18676.741    10642.900     4529.267        9.466        1.692      394.006       61.896        0.025      339.523       12.912      858.051
05/27/2013  22:56:00     -258.061      -16.828      -10.832       98.517       83.210       50.101     9705.620     6923.903     2510.159        4.306        0.957      258.609       44.526        0.030      339.522       12.911      858.033
05/27/2013  22:57:00     -241.624      -48.742       -9.696      139.784      137.220       74.795    19539.607    18829.252     5594.312        5.240        2.198      246.491       79.900        0.105      339.547       12.953      858.017
05/27/2013  22:58:00     -369.630      -87.948      -21.651      170.932      125.199       60.065    29217.859    15674.755     3607.764        9.666        2.425      379.949       72.265        0.036      339.544       12.946      858.016
05/27/2013  22:59:00     -285.888     -195.904      -18.784      130.624      152.778       62.250    17062.580    23341.073     3875.011        8.236        2.214      346.569       61.435        0.031      339.546       12.951      858.008
05/27/2013  23:00:00     -327.519      -77.240      -28.872      109.948      102.783       56.043    12088.585    10564.375     3140.785        6.993        1.290      336.504       54.546        0.026      339.547       12.953      857.981
05/27/2013  23:01:00     -322.890     -127.010      -17.899      139.438      128.148       75.610    19443.003    16421.917     5716.883        8.114        2.079      346.972       70.232        0.041      339.557       12.968      857.963
05/27/2013  23:02:00     -335.949      -67.469      -25.692      152.722      128.451       66.245    23324.130    16499.642     4388.461        8.114        2.211      342.657       62.210        0.033      339.556       12.968      857.946
05/27/2013  23:03:00     -241.742     -159.033       -6.754      174.855      122.717       73.300    30574.416    15059.518     5372.919        6.738        2.550      289.363       82.565        0.081      339.544       12.947      857.908
05/27/2013  23:04:00     -255.782      -92.790       -5.056      172.237      122.290       66.157    29665.534    14954.771     4376.709        6.152        2.450      272.093       81.584        0.090      339.561       12.976      857.859
05/27/2013  23:05:00     -301.225     -136.314      -11.728      166.527      154.927       69.409    27731.378    24002.221     4817.578        8.299        2.828      330.633       76.618        0.054      339.557       12.970      857.857
05/27/2013  23:06:00     -216.821     -126.440        2.588      131.847      102.813       62.120    17383.737    10570.598     3858.928        4.740        1.591      250.995       62.221        0.061      339.557       12.968      857.849
05/27/2013  23:07:00     -106.275      -98.367        7.324      111.111      121.847       69.473    12345.615    14846.571     4826.505        2.652        1.601      144.812       65.260        0.203      339.546       12.950      857.857
05/27/2013  23:08:00     -351.697     -160.978       -5.733      208.629      196.089       96.088    43525.991    38450.783     9232.998       12.041        4.560      386.787      105.416        0.074      339.595       13.034      857.870
05/27/2013  23:09:00     -427.851     -126.594      -31.473      143.291      113.514       84.418    20532.423    12885.425     7126.321       12.030        2.027      446.187       84.518        0.036      339.588       13.022      857.901
05/27/2013  23:10:00     -290.020     -180.271       -9.862      133.706      132.784       71.420    17877.298    17631.624     5100.885        7.865        2.030      341.481       67.732        0.039      339.590       13.025      857.974
05/27/2013  23:11:00     -236.395      -69.433        0.667      168.374      137.459       58.272    28349.746    18895.046     3395.671        5.566        2.532      246.381       76.737        0.097      339.564       12.981      857.966
05/27/2013  23:12:00     -325.456     -129.882      -35.754      225.953      142.082      101.710    51054.928    20187.204    10344.873       10.281        4.079      350.415      131.864        0.142      339.590       13.026      857.916
05/27/2013  23:13:00     -187.535     -119.525       13.537      159.853      120.824       88.020    25553.042    14598.480     7747.539        4.876        2.395      222.386       89.424        0.162      339.581       13.008      857.908
05/27/2013  23:14:00     -299.952      -88.141       -5.794      184.345      133.440       82.146    33982.912    17806.233     6748.013        7.815        2.927      312.634       84.411        0.073      339.573       12.995      857.884
05/27/2013  23:15:00     -208.462     -123.605       -4.916      129.240      126.270       75.129    16702.893    15944.088     5644.434        4.852        1.915      242.352       73.559        0.092      339.593       13.030      857.894
05/27/2013  23:16:00     -275.797     -229.796       -0.096      223.579      173.868       98.644    49987.477    30229.916     9730.669       10.939        4.497      358.985      100.313        0.078      339.590       13.026      857.859
05/27/2013  23:17:00     -267.023      -85.058       10.485      176.950      164.160       88.008    31311.395    26948.406     7745.435        7.231        3.300      280.243       85.930        0.094      339.585       13.016      857.827
05/27/2013  23:18:00     -333.607      -95.752      -29.929      165.708      128.798       73.111    27459.141    16588.893     5345.289        8.537        2.470      347.076       73.122        0.044      339.581       13.010      857.767
05/27/2013  23:19:00     -259.354     -108.791       11.157      182.627      151.117       87.557    33352.544    22836.330     7666.275        7.153        3.193      281.247      100.856        0.129      339.562       12.977      857.764
05/27/2013  23:20:00     -278.093     -182.851        0.917      176.149      120.825       88.219    31028.479    14598.650     7782.543        8.208        2.670      332.821       88.511        0.071      339.579       13.005      857.726
05/27/2013  23:21:00     -449.328     -215.615      -12.586      207.408      135.132      105.270    43018.028    18260.710    11081.670       16.044        3.618      498.383       98.923        0.039      339.574       12.999      857.739
05/27/2013  23:22:00     -441.606      -92.086      -28.507      188.839      156.065       88.270    35660.011    24356.419     7791.641       13.605        3.390      451.104       89.377        0.039      339.558       12.971      857.737
05/27/2013  23:23:00     -555.424     -194.110      -13.705      179.546      163.835      101.330    32236.790    26841.964    10267.799       20.784        3.467      588.366      102.996        0.031      339.575       13.000      857.697
05/27/2013  23:24:00     -300.490      -60.365      -11.001      142.880      118.498       71.652    20414.637    14041.849     5133.978        6.682        1.980      306.494       76.235        0.062      339.575       12.998      857.646
05/27/2013  23:25:00     -315.925      -63.694       18.675      216.463      159.254       94.211    46856.082    25361.888     8875.776        9.264        4.055      322.282       97.234        0.091      339.546       12.952      857.600
05/27/2013  23:26:00     -302.582      -34.204       -4.147      228.487      143.446       75.651    52206.314    20576.617     5723.058        8.561        3.925      304.509       90.839        0.089      339.548       12.956      857.622
05/27/2013  23:27:00     -289.181      -88.517       -7.561      182.040      163.006       79.864    33138.691    26570.862     6378.291        7.879        3.304      302.425       80.424        0.071      339.558       12.970      857.632
05/27/2013  23:28:00     -223.353     -116.811        4.073      211.103      119.660       78.307    44564.572    14318.459     6131.937        6.427        3.251      252.054      102.596        0.166      339.546       12.951      857.682
05/27/2013  23:29:00     -144.069       -4.245       10.011      114.085       78.369       53.797    13015.430     6141.672     2894.139        2.146        1.103      144.131       44.754        0.096      339.526       12.917      857.663
05/27/2013  23:30:00     -373.018      -50.201      -22.600      209.139      164.063       83.233    43739.060    26916.730     6927.690       10.987        3.879      376.381       81.112        0.046      339.542       12.945      857.650
05/27/2013  23:31:00     -358.321     -100.012      -10.508      192.730      159.046       87.530    37145.001    25295.727     7661.441       10.429        3.505      372.016      104.035        0.078      339.533       12.928      857.670
05/27/2013  23:32:00     -453.372     -110.825      -29.477      180.406      150.577       78.400    32546.147    22673.316     6146.633       14.002        3.068      466.721       81.210        0.030      339.532       12.927      857.660
05/27/2013  23:33:00     -296.924     -122.660      -15.368      219.256      138.356       70.127    48073.260    19142.484     4917.728        8.778        3.607      321.262       85.662        0.071      339.521       12.908      857.635
05/27/2013  23:34:00     -539.837     -108.607       -0.722      233.865      151.997       84.202    54692.844    23103.239     7090.016       19.404        4.244      550.653       93.003        0.029      339.518       12.902      857.595
05/27/2013  23:35:00     -396.067      -54.102      -16.850      151.416      127.479       81.538    22926.703    16250.933     6648.413       10.295        2.291      399.745       83.431        0.044      339.502       12.874      857.596
05/27/2013  23:36:00     -532.174     -128.068      -30.921      219.155      156.205       84.015    48028.804    24400.093     7058.469       19.001        3.974      547.367       87.794        0.026      339.511       12.891      857.614
05/27/2013  23:37:00     -363.765     -167.050      -11.027      184.331      149.491       88.754    33977.916    22347.643     7877.288       11.227        3.210      400.288       91.151        0.052      339.508       12.885      857.640
05/27/2013  23:38:00     -205.374     -131.436       12.850      148.224      168.692       88.061    21970.367    28456.952     7754.825        5.889        2.909      243.832       92.128        0.143      339.506       12.884      857.651
05/27/2013  23:39:00     -332.892     -135.645       -1.662      190.363      162.661       87.532    36237.995    26458.722     7661.866        9.978        3.518      359.468       98.736        0.075      339.497       12.867      857.632
05/27/2013  23:40:00     -366.771     -107.603        7.555      201.907      159.122       98.345    40766.399    25319.660     9671.738       11.094        3.788      382.229      112.311        0.086      339.497       12.867      857.622
05/27/2013  23:41:00     -596.001     -155.136      -36.803      241.820      172.488       99.673    58476.722    29751.985     9934.737       23.938        4.908      615.860      120.061        0.038      339.498       12.867      857.625
05/27/2013  23:42:00     -303.597      -98.702      -18.240      180.760      142.295       66.855    32674.271    20247.981     4469.653        7.981        2.870      319.238       72.594        0.052      339.494       12.861      857.676
05/27/2013  23:43:00     -294.501     -103.091       -9.425      163.980      139.784       71.301    26889.513    19539.531     5083.897        7.447        2.576      312.023       68.391        0.048      339.500       12.871      857.712
05/27/2013  23:44:00     -516.542     -119.449      -24.140      239.329      234.239      109.742    57278.466    54867.964    12043.298       20.291        6.209      530.174      114.332        0.047      339.476       12.832      857.727
05/27/2013  23:45:00     -579.815     -200.799      -27.813      324.641      185.640      106.382   105391.893    34462.308    11317.036       26.420        7.559      613.601      137.235        0.050      339.487       12.850      857.713
05/27/2013  23:46:00     -406.477      -50.998       -8.229      221.918      191.270       97.273    49247.398    36584.339     9462.056       13.158        4.765      409.664      101.842        0.062      339.502       12.875      857.721
05/27/2013  23:47:00     -461.132       12.994      -13.686      242.922      166.405       98.911    59011.234    27690.639     9783.351       15.473        4.824      461.315       98.852        0.046      339.504       12.879      857.694
05/27/2013  23:48:00     -525.670      -60.285      -27.445      175.467      189.562      105.840    30788.612    35933.586    11202.029       17.931        3.896      529.115       98.009        0.034      339.506       12.882      857.652
05/27/2013  23:49:00     -403.091     -132.177      -22.891      238.902      180.495      114.413    57073.961    32578.560    13090.357       14.159        5.137      424.208      119.592        0.079      339.527       12.918      857.661
05/27/2013  23:50:00     -406.511      -36.159      -18.915      161.883      151.279       86.325    26205.990    22885.239     7451.936       11.172        2.827      408.116       69.703        0.029      339.532       12.925      857.694
05/27/2013  23:51:00     -463.706       -4.675      -19.587      266.833      138.311       83.505    71199.668    19129.972     6973.125       15.635        4.865      463.730       95.840        0.043      339.520       12.907      857.672
05/27/2013  23:52:00     -511.129     -203.177      -50.367      285.605      188.528       87.485    81570.199    35542.704     7653.628       21.490        6.238      550.031      102.126        0.034      339.486       12.850      857.652
05/27/2013  23:53:00     -376.900      -92.629      -15.200      177.164      158.837       86.830    31387.096    25229.336     7539.516       10.750        3.208      388.115       73.992        0.036      339.427       12.750      857.632
05/27/2013  23:54:00     -467.976     -242.917      -19.644      234.503      221.816       96.735    54991.585    49202.183     9357.722       19.595        5.678      527.266       95.241        0.033      339.361       12.638      857.588
05/27/2013  23:55:00     -533.092     -172.817      -29.197      200.567      209.733       87.949    40226.950    43988.129     7735.050       20.341        4.598      560.405       83.441        0.022      339.320       12.567      857.550
05/27/2013  23:56:00     -284.626     -139.564       10.180      236.877      169.338       95.018    56110.779    28675.394     9028.385        9.719        4.691      317.001      112.225        0.125      339.280       12.502      857.587
05/27/2013  23:57:00     -374.335      -53.906       -1.023      203.021      175.116       82.687    41217.406    30665.741     6837.078       11.086        3.936      378.197       82.358        0.047      339.237       12.430      857.585
05/27/2013  23:58:00     -282.645      -75.027       21.467      204.482      149.272       87.321    41812.907    22282.003     7624.947        7.884        3.586      292.433      105.838        0.131      339.199       12.367      857.563
05/27/2013  23:59:00     -201.315      -84.424       -3.903      141.870      100.894       70.312    20127.082    10179.502     4943.775        4.145        1.763      218.301       64.963        0.089      339.223       12.407      857.512
